<?xml version="1.0" encoding="UTF-8" standalone="no" ?>
<gpx xmlns="http://www.topografix.com/GPX/1/1" xmlns:xsi="http://www.w3.org/2001/XMLSchema-instance" xsi:schemaLocation="http://www.topografix.com/GPX/1/1 http://www.topografix.com/GPX/1/1/gpx.xsd" version="1.1" creator="VisuGPX - https://www.visugpx.com">
  <metadata>
    <name>Ballade Gascougnolles mougon</name>
    <desc><![CDATA[Ballade Gascougnolles mougon]]></desc>
  </metadata>
  <trk>
    <name><![CDATA[Entraînement libre]]></name>
    <trkseg>
      <trkpt lat="46.30841" lon="-0.3398">
        <ele>63.8012</ele>
        <time>2011-07-23T12:18:21Z</time>
      </trkpt>
      <trkpt lat="46.30843" lon="-0.33966">
        <ele>65.2352</ele>
        <time>2011-07-23T12:18:28Z</time>
      </trkpt>
      <trkpt lat="46.30843" lon="-0.33951">
        <ele>66.0802</ele>
        <time>2011-07-23T12:18:34Z</time>
      </trkpt>
      <trkpt lat="46.30841" lon="-0.33936">
        <ele>66.8955</ele>
        <time>2011-07-23T12:18:41Z</time>
      </trkpt>
      <trkpt lat="46.3084" lon="-0.33922">
        <ele>67.5994</ele>
        <time>2011-07-23T12:18:48Z</time>
      </trkpt>
      <trkpt lat="46.30838" lon="-0.33908">
        <ele>68.1808</ele>
        <time>2011-07-23T12:18:55Z</time>
      </trkpt>
      <trkpt lat="46.30835" lon="-0.33895">
        <ele>68.7774</ele>
        <time>2011-07-23T12:19:03Z</time>
      </trkpt>
      <trkpt lat="46.30831" lon="-0.33881">
        <ele>69.3104</ele>
        <time>2011-07-23T12:19:10Z</time>
      </trkpt>
      <trkpt lat="46.30826" lon="-0.3387">
        <ele>69.9871</ele>
        <time>2011-07-23T12:19:17Z</time>
      </trkpt>
      <trkpt lat="46.30821" lon="-0.33857">
        <ele>70.6899</ele>
        <time>2011-07-23T12:19:25Z</time>
      </trkpt>
      <trkpt lat="46.30814" lon="-0.33847">
        <ele>71.3749</ele>
        <time>2011-07-23T12:19:34Z</time>
      </trkpt>
      <trkpt lat="46.30808" lon="-0.33835">
        <ele>71.8329</ele>
        <time>2011-07-23T12:19:41Z</time>
      </trkpt>
      <trkpt lat="46.30802" lon="-0.33824">
        <ele>72.2346</ele>
        <time>2011-07-23T12:19:48Z</time>
      </trkpt>
      <trkpt lat="46.30796" lon="-0.33813">
        <ele>72.6117</ele>
        <time>2011-07-23T12:19:55Z</time>
      </trkpt>
      <trkpt lat="46.30789" lon="-0.33803">
        <ele>73.0184</ele>
        <time>2011-07-23T12:20:03Z</time>
      </trkpt>
      <trkpt lat="46.30784" lon="-0.33791">
        <ele>73.4218</ele>
        <time>2011-07-23T12:20:11Z</time>
      </trkpt>
      <trkpt lat="46.30776" lon="-0.33781">
        <ele>73.853</ele>
        <time>2011-07-23T12:20:19Z</time>
      </trkpt>
      <trkpt lat="46.30771" lon="-0.33768">
        <ele>74.198</ele>
        <time>2011-07-23T12:20:26Z</time>
      </trkpt>
      <trkpt lat="46.30766" lon="-0.33756">
        <ele>74.5411</ele>
        <time>2011-07-23T12:20:34Z</time>
      </trkpt>
      <trkpt lat="46.30759" lon="-0.33748">
        <ele>74.8658</ele>
        <time>2011-07-23T12:20:41Z</time>
      </trkpt>
      <trkpt lat="46.30752" lon="-0.33737">
        <ele>75.1956</ele>
        <time>2011-07-23T12:20:49Z</time>
      </trkpt>
      <trkpt lat="46.30747" lon="-0.33725">
        <ele>75.5794</ele>
        <time>2011-07-23T12:20:58Z</time>
      </trkpt>
      <trkpt lat="46.30745" lon="-0.33711">
        <ele>76.217</ele>
        <time>2011-07-23T12:21:07Z</time>
      </trkpt>
      <trkpt lat="46.30743" lon="-0.33697">
        <ele>76.8024</ele>
        <time>2011-07-23T12:21:15Z</time>
      </trkpt>
      <trkpt lat="46.30739" lon="-0.33686">
        <ele>77.3585</ele>
        <time>2011-07-23T12:21:22Z</time>
      </trkpt>
      <trkpt lat="46.30735" lon="-0.33673">
        <ele>77.8793</ele>
        <time>2011-07-23T12:21:28Z</time>
      </trkpt>
      <trkpt lat="46.30731" lon="-0.3366">
        <ele>78.517</ele>
        <time>2011-07-23T12:21:36Z</time>
      </trkpt>
      <trkpt lat="46.30727" lon="-0.33648">
        <ele>78.9934</ele>
        <time>2011-07-23T12:21:44Z</time>
      </trkpt>
      <trkpt lat="46.30722" lon="-0.33634">
        <ele>79.313</ele>
        <time>2011-07-23T12:21:50Z</time>
      </trkpt>
      <trkpt lat="46.30719" lon="-0.33622">
        <ele>79.6365</ele>
        <time>2011-07-23T12:21:58Z</time>
      </trkpt>
      <trkpt lat="46.30717" lon="-0.33608">
        <ele>80.0221</ele>
        <time>2011-07-23T12:22:06Z</time>
      </trkpt>
      <trkpt lat="46.30714" lon="-0.33594">
        <ele>80.3918</ele>
        <time>2011-07-23T12:22:12Z</time>
      </trkpt>
      <trkpt lat="46.30712" lon="-0.33581">
        <ele>80.7557</ele>
        <time>2011-07-23T12:22:18Z</time>
      </trkpt>
      <trkpt lat="46.30708" lon="-0.33569">
        <ele>81.0851</ele>
        <time>2011-07-23T12:22:24Z</time>
      </trkpt>
      <trkpt lat="46.30703" lon="-0.33556">
        <ele>81.4749</ele>
        <time>2011-07-23T12:22:32Z</time>
      </trkpt>
      <trkpt lat="46.30698" lon="-0.33544">
        <ele>81.8773</ele>
        <time>2011-07-23T12:22:39Z</time>
      </trkpt>
      <trkpt lat="46.30693" lon="-0.33532">
        <ele>82.1803</ele>
        <time>2011-07-23T12:22:45Z</time>
      </trkpt>
      <trkpt lat="46.30687" lon="-0.33521">
        <ele>82.5083</ele>
        <time>2011-07-23T12:22:53Z</time>
      </trkpt>
      <trkpt lat="46.30679" lon="-0.33512">
        <ele>82.7598</ele>
        <time>2011-07-23T12:23:00Z</time>
      </trkpt>
      <trkpt lat="46.30674" lon="-0.33501">
        <ele>82.9855</ele>
        <time>2011-07-23T12:23:09Z</time>
      </trkpt>
      <trkpt lat="46.30666" lon="-0.33493">
        <ele>83.1614</ele>
        <time>2011-07-23T12:23:18Z</time>
      </trkpt>
      <trkpt lat="46.30657" lon="-0.33489">
        <ele>83.2122</ele>
        <time>2011-07-23T12:23:27Z</time>
      </trkpt>
      <trkpt lat="46.3065" lon="-0.33479">
        <ele>83.1716</ele>
        <time>2011-07-23T12:23:34Z</time>
      </trkpt>
      <trkpt lat="46.30644" lon="-0.33469">
        <ele>83.0843</ele>
        <time>2011-07-23T12:23:42Z</time>
      </trkpt>
      <trkpt lat="46.30637" lon="-0.33458">
        <ele>82.9908</ele>
        <time>2011-07-23T12:23:49Z</time>
      </trkpt>
      <trkpt lat="46.30632" lon="-0.33447">
        <ele>82.9536</ele>
        <time>2011-07-23T12:23:56Z</time>
      </trkpt>
      <trkpt lat="46.30626" lon="-0.33436">
        <ele>83.0507</ele>
        <time>2011-07-23T12:24:02Z</time>
      </trkpt>
      <trkpt lat="46.30622" lon="-0.33423">
        <ele>83.1921</ele>
        <time>2011-07-23T12:24:12Z</time>
      </trkpt>
      <trkpt lat="46.30631" lon="-0.33415">
        <ele>83.0704</ele>
        <time>2011-07-23T12:24:29Z</time>
      </trkpt>
      <trkpt lat="46.3064" lon="-0.33408">
        <ele>82.4935</ele>
        <time>2011-07-23T12:24:36Z</time>
      </trkpt>
      <trkpt lat="46.3065" lon="-0.33404">
        <ele>81.9462</ele>
        <time>2011-07-23T12:24:43Z</time>
      </trkpt>
      <trkpt lat="46.30658" lon="-0.33397">
        <ele>81.3591</ele>
        <time>2011-07-23T12:24:51Z</time>
      </trkpt>
      <trkpt lat="46.30666" lon="-0.33389">
        <ele>80.7984</ele>
        <time>2011-07-23T12:24:59Z</time>
      </trkpt>
      <trkpt lat="46.30675" lon="-0.33383">
        <ele>80.3608</ele>
        <time>2011-07-23T12:25:06Z</time>
      </trkpt>
      <trkpt lat="46.30684" lon="-0.33377">
        <ele>79.9577</ele>
        <time>2011-07-23T12:25:13Z</time>
      </trkpt>
      <trkpt lat="46.30693" lon="-0.33371">
        <ele>79.5189</ele>
        <time>2011-07-23T12:25:20Z</time>
      </trkpt>
      <trkpt lat="46.30703" lon="-0.33366">
        <ele>79.0579</ele>
        <time>2011-07-23T12:25:29Z</time>
      </trkpt>
      <trkpt lat="46.30712" lon="-0.33364">
        <ele>78.741</ele>
        <time>2011-07-23T12:25:37Z</time>
      </trkpt>
      <trkpt lat="46.30721" lon="-0.33362">
        <ele>78.6167</ele>
        <time>2011-07-23T12:25:44Z</time>
      </trkpt>
      <trkpt lat="46.3073" lon="-0.3336">
        <ele>78.5712</ele>
        <time>2011-07-23T12:25:51Z</time>
      </trkpt>
      <trkpt lat="46.3074" lon="-0.33356">
        <ele>78.526</ele>
        <time>2011-07-23T12:25:58Z</time>
      </trkpt>
      <trkpt lat="46.3075" lon="-0.33354">
        <ele>78.4524</ele>
        <time>2011-07-23T12:26:05Z</time>
      </trkpt>
      <trkpt lat="46.30759" lon="-0.3335">
        <ele>78.4541</ele>
        <time>2011-07-23T12:26:13Z</time>
      </trkpt>
      <trkpt lat="46.30768" lon="-0.33346">
        <ele>78.3722</ele>
        <time>2011-07-23T12:26:20Z</time>
      </trkpt>
      <trkpt lat="46.30777" lon="-0.33341">
        <ele>78.1359</ele>
        <time>2011-07-23T12:26:28Z</time>
      </trkpt>
      <trkpt lat="46.30787" lon="-0.33338">
        <ele>77.896</ele>
        <time>2011-07-23T12:26:35Z</time>
      </trkpt>
      <trkpt lat="46.30795" lon="-0.33334">
        <ele>77.7345</ele>
        <time>2011-07-23T12:26:41Z</time>
      </trkpt>
      <trkpt lat="46.30804" lon="-0.3333">
        <ele>77.5455</ele>
        <time>2011-07-23T12:26:49Z</time>
      </trkpt>
      <trkpt lat="46.30814" lon="-0.33325">
        <ele>77.37</ele>
        <time>2011-07-23T12:26:57Z</time>
      </trkpt>
      <trkpt lat="46.30823" lon="-0.3332">
        <ele>77.187</ele>
        <time>2011-07-23T12:27:05Z</time>
      </trkpt>
      <trkpt lat="46.30831" lon="-0.33315">
        <ele>77.0609</ele>
        <time>2011-07-23T12:27:12Z</time>
      </trkpt>
      <trkpt lat="46.3084" lon="-0.33308">
        <ele>76.8816</ele>
        <time>2011-07-23T12:27:20Z</time>
      </trkpt>
      <trkpt lat="46.30848" lon="-0.333">
        <ele>76.8195</ele>
        <time>2011-07-23T12:27:28Z</time>
      </trkpt>
      <trkpt lat="46.30854" lon="-0.3329">
        <ele>76.5527</ele>
        <time>2011-07-23T12:27:34Z</time>
      </trkpt>
      <trkpt lat="46.30861" lon="-0.33281">
        <ele>76.1744</ele>
        <time>2011-07-23T12:27:41Z</time>
      </trkpt>
      <trkpt lat="46.30867" lon="-0.33267">
        <ele>75.7685</ele>
        <time>2011-07-23T12:27:47Z</time>
      </trkpt>
      <trkpt lat="46.30872" lon="-0.33257">
        <ele>75.2333</ele>
        <time>2011-07-23T12:27:54Z</time>
      </trkpt>
      <trkpt lat="46.30878" lon="-0.33244">
        <ele>74.687</ele>
        <time>2011-07-23T12:28:02Z</time>
      </trkpt>
      <trkpt lat="46.30882" lon="-0.33232">
        <ele>74.3031</ele>
        <time>2011-07-23T12:28:09Z</time>
      </trkpt>
      <trkpt lat="46.30885" lon="-0.33219">
        <ele>73.9662</ele>
        <time>2011-07-23T12:28:16Z</time>
      </trkpt>
      <trkpt lat="46.30886" lon="-0.33206">
        <ele>73.6195</ele>
        <time>2011-07-23T12:28:22Z</time>
      </trkpt>
      <trkpt lat="46.30886" lon="-0.33193">
        <ele>73.2367</ele>
        <time>2011-07-23T12:28:28Z</time>
      </trkpt>
      <trkpt lat="46.30885" lon="-0.33178">
        <ele>72.8777</ele>
        <time>2011-07-23T12:28:34Z</time>
      </trkpt>
      <trkpt lat="46.30883" lon="-0.33162">
        <ele>72.5245</ele>
        <time>2011-07-23T12:28:40Z</time>
      </trkpt>
      <trkpt lat="46.3088" lon="-0.33149">
        <ele>72.079</ele>
        <time>2011-07-23T12:28:48Z</time>
      </trkpt>
      <trkpt lat="46.3088" lon="-0.33134">
        <ele>71.343</ele>
        <time>2011-07-23T12:28:57Z</time>
      </trkpt>
      <trkpt lat="46.30878" lon="-0.33121">
        <ele>70.6074</ele>
        <time>2011-07-23T12:29:07Z</time>
      </trkpt>
      <trkpt lat="46.30878" lon="-0.33106">
        <ele>69.9701</ele>
        <time>2011-07-23T12:29:17Z</time>
      </trkpt>
      <trkpt lat="46.30877" lon="-0.33093">
        <ele>69.5199</ele>
        <time>2011-07-23T12:29:26Z</time>
      </trkpt>
      <trkpt lat="46.30877" lon="-0.33079">
        <ele>69.1004</ele>
        <time>2011-07-23T12:29:35Z</time>
      </trkpt>
      <trkpt lat="46.30877" lon="-0.33066">
        <ele>68.6107</ele>
        <time>2011-07-23T12:29:44Z</time>
      </trkpt>
      <trkpt lat="46.30877" lon="-0.33053">
        <ele>68.2267</ele>
        <time>2011-07-23T12:29:53Z</time>
      </trkpt>
      <trkpt lat="46.30876" lon="-0.33039">
        <ele>68.1721</ele>
        <time>2011-07-23T12:30:01Z</time>
      </trkpt>
      <trkpt lat="46.30876" lon="-0.33024">
        <ele>68.0974</ele>
        <time>2011-07-23T12:30:10Z</time>
      </trkpt>
      <trkpt lat="46.30877" lon="-0.33011">
        <ele>67.9639</ele>
        <time>2011-07-23T12:30:17Z</time>
      </trkpt>
      <trkpt lat="46.30875" lon="-0.32998">
        <ele>67.8716</ele>
        <time>2011-07-23T12:30:24Z</time>
      </trkpt>
      <trkpt lat="46.30872" lon="-0.32984">
        <ele>67.7962</ele>
        <time>2011-07-23T12:30:31Z</time>
      </trkpt>
      <trkpt lat="46.3087" lon="-0.32971">
        <ele>67.6924</ele>
        <time>2011-07-23T12:30:39Z</time>
      </trkpt>
      <trkpt lat="46.3087" lon="-0.32957">
        <ele>67.5228</ele>
        <time>2011-07-23T12:30:47Z</time>
      </trkpt>
      <trkpt lat="46.30869" lon="-0.32943">
        <ele>67.3826</ele>
        <time>2011-07-23T12:30:56Z</time>
      </trkpt>
      <trkpt lat="46.30867" lon="-0.32929">
        <ele>67.2593</ele>
        <time>2011-07-23T12:31:03Z</time>
      </trkpt>
      <trkpt lat="46.30866" lon="-0.32916">
        <ele>67.0426</ele>
        <time>2011-07-23T12:31:12Z</time>
      </trkpt>
      <trkpt lat="46.30864" lon="-0.32902">
        <ele>66.8242</ele>
        <time>2011-07-23T12:31:20Z</time>
      </trkpt>
      <trkpt lat="46.30862" lon="-0.32889">
        <ele>66.6818</ele>
        <time>2011-07-23T12:31:27Z</time>
      </trkpt>
      <trkpt lat="46.30861" lon="-0.32875">
        <ele>66.5495</ele>
        <time>2011-07-23T12:31:34Z</time>
      </trkpt>
      <trkpt lat="46.30856" lon="-0.32863">
        <ele>66.533</ele>
        <time>2011-07-23T12:31:41Z</time>
      </trkpt>
      <trkpt lat="46.30853" lon="-0.32851">
        <ele>66.7087</ele>
        <time>2011-07-23T12:31:48Z</time>
      </trkpt>
      <trkpt lat="46.3085" lon="-0.32838">
        <ele>67.0407</ele>
        <time>2011-07-23T12:31:56Z</time>
      </trkpt>
      <trkpt lat="46.30848" lon="-0.32824">
        <ele>67.4825</ele>
        <time>2011-07-23T12:32:04Z</time>
      </trkpt>
      <trkpt lat="46.30847" lon="-0.3281">
        <ele>67.9363</ele>
        <time>2011-07-23T12:32:11Z</time>
      </trkpt>
      <trkpt lat="46.30846" lon="-0.32797">
        <ele>68.5229</ele>
        <time>2011-07-23T12:32:19Z</time>
      </trkpt>
      <trkpt lat="46.30845" lon="-0.32783">
        <ele>69.31</ele>
        <time>2011-07-23T12:32:28Z</time>
      </trkpt>
      <trkpt lat="46.30845" lon="-0.3277">
        <ele>69.9947</ele>
        <time>2011-07-23T12:32:35Z</time>
      </trkpt>
      <trkpt lat="46.30844" lon="-0.32756">
        <ele>70.6478</ele>
        <time>2011-07-23T12:32:42Z</time>
      </trkpt>
      <trkpt lat="46.30845" lon="-0.32743">
        <ele>71.3727</ele>
        <time>2011-07-23T12:32:49Z</time>
      </trkpt>
      <trkpt lat="46.30846" lon="-0.32729">
        <ele>71.9812</ele>
        <time>2011-07-23T12:32:57Z</time>
      </trkpt>
      <trkpt lat="46.30848" lon="-0.32715">
        <ele>72.4443</ele>
        <time>2011-07-23T12:33:06Z</time>
      </trkpt>
      <trkpt lat="46.30851" lon="-0.32702">
        <ele>72.5741</ele>
        <time>2011-07-23T12:33:19Z</time>
      </trkpt>
      <trkpt lat="46.30854" lon="-0.32688">
        <ele>72.5061</ele>
        <time>2011-07-23T12:33:28Z</time>
      </trkpt>
      <trkpt lat="46.30858" lon="-0.32675">
        <ele>72.1627</ele>
        <time>2011-07-23T12:33:35Z</time>
      </trkpt>
      <trkpt lat="46.30861" lon="-0.32662">
        <ele>71.6406</ele>
        <time>2011-07-23T12:33:43Z</time>
      </trkpt>
      <trkpt lat="46.30863" lon="-0.32648">
        <ele>71.1192</ele>
        <time>2011-07-23T12:33:52Z</time>
      </trkpt>
      <trkpt lat="46.30863" lon="-0.32634">
        <ele>70.6589</ele>
        <time>2011-07-23T12:34:00Z</time>
      </trkpt>
      <trkpt lat="46.30863" lon="-0.32621">
        <ele>70.1616</ele>
        <time>2011-07-23T12:34:08Z</time>
      </trkpt>
      <trkpt lat="46.30863" lon="-0.32606">
        <ele>69.6067</ele>
        <time>2011-07-23T12:34:17Z</time>
      </trkpt>
      <trkpt lat="46.30866" lon="-0.32592">
        <ele>69.1627</ele>
        <time>2011-07-23T12:34:25Z</time>
      </trkpt>
      <trkpt lat="46.30868" lon="-0.32579">
        <ele>68.8096</ele>
        <time>2011-07-23T12:34:33Z</time>
      </trkpt>
      <trkpt lat="46.30869" lon="-0.32565">
        <ele>68.5153</ele>
        <time>2011-07-23T12:34:41Z</time>
      </trkpt>
      <trkpt lat="46.30869" lon="-0.32551">
        <ele>68.3306</ele>
        <time>2011-07-23T12:34:49Z</time>
      </trkpt>
      <trkpt lat="46.30866" lon="-0.32537">
        <ele>68.278</ele>
        <time>2011-07-23T12:34:56Z</time>
      </trkpt>
      <trkpt lat="46.30865" lon="-0.32525">
        <ele>68.2391</ele>
        <time>2011-07-23T12:35:04Z</time>
      </trkpt>
      <trkpt lat="46.30864" lon="-0.32511">
        <ele>68.2192</ele>
        <time>2011-07-23T12:35:11Z</time>
      </trkpt>
      <trkpt lat="46.30861" lon="-0.32497">
        <ele>68.3034</ele>
        <time>2011-07-23T12:35:18Z</time>
      </trkpt>
      <trkpt lat="46.30859" lon="-0.32483">
        <ele>68.4268</ele>
        <time>2011-07-23T12:35:26Z</time>
      </trkpt>
      <trkpt lat="46.30856" lon="-0.3247">
        <ele>68.5659</ele>
        <time>2011-07-23T12:35:34Z</time>
      </trkpt>
      <trkpt lat="46.30854" lon="-0.32455">
        <ele>68.6843</ele>
        <time>2011-07-23T12:35:42Z</time>
      </trkpt>
      <trkpt lat="46.30851" lon="-0.32441">
        <ele>68.8242</ele>
        <time>2011-07-23T12:35:49Z</time>
      </trkpt>
      <trkpt lat="46.30848" lon="-0.32428">
        <ele>68.9924</ele>
        <time>2011-07-23T12:35:56Z</time>
      </trkpt>
      <trkpt lat="46.30846" lon="-0.32415">
        <ele>69.2214</ele>
        <time>2011-07-23T12:36:03Z</time>
      </trkpt>
      <trkpt lat="46.30842" lon="-0.32401">
        <ele>69.4625</ele>
        <time>2011-07-23T12:36:11Z</time>
      </trkpt>
      <trkpt lat="46.3084" lon="-0.32388">
        <ele>69.7268</ele>
        <time>2011-07-23T12:36:19Z</time>
      </trkpt>
      <trkpt lat="46.30838" lon="-0.32375">
        <ele>70.0739</ele>
        <time>2011-07-23T12:36:27Z</time>
      </trkpt>
      <trkpt lat="46.30834" lon="-0.32362">
        <ele>70.3537</ele>
        <time>2011-07-23T12:36:34Z</time>
      </trkpt>
      <trkpt lat="46.30824" lon="-0.32351">
        <ele>69.9555</ele>
        <time>2011-07-23T12:36:40Z</time>
      </trkpt>
      <trkpt lat="46.30817" lon="-0.32341">
        <ele>69.5205</ele>
        <time>2011-07-23T12:36:46Z</time>
      </trkpt>
      <trkpt lat="46.30813" lon="-0.32329">
        <ele>68.9292</ele>
        <time>2011-07-23T12:36:53Z</time>
      </trkpt>
      <trkpt lat="46.30808" lon="-0.32316">
        <ele>68.1394</ele>
        <time>2011-07-23T12:37:00Z</time>
      </trkpt>
      <trkpt lat="46.30801" lon="-0.32305">
        <ele>66.6242</ele>
        <time>2011-07-23T12:37:07Z</time>
      </trkpt>
      <trkpt lat="46.30796" lon="-0.32294">
        <ele>65.3069</ele>
        <time>2011-07-23T12:37:14Z</time>
      </trkpt>
      <trkpt lat="46.30792" lon="-0.32283">
        <ele>63.7323</ele>
        <time>2011-07-23T12:37:20Z</time>
      </trkpt>
      <trkpt lat="46.30784" lon="-0.32272">
        <ele>61.4802</ele>
        <time>2011-07-23T12:37:27Z</time>
      </trkpt>
      <trkpt lat="46.30784" lon="-0.32258">
        <ele>59.5001</ele>
        <time>2011-07-23T12:37:36Z</time>
      </trkpt>
      <trkpt lat="46.30786" lon="-0.32244">
        <ele>59.1857</ele>
        <time>2011-07-23T12:37:43Z</time>
      </trkpt>
      <trkpt lat="46.30785" lon="-0.32229">
        <ele>58.9308</ele>
        <time>2011-07-23T12:37:51Z</time>
      </trkpt>
      <trkpt lat="46.30785" lon="-0.32216">
        <ele>58.9783</ele>
        <time>2011-07-23T12:38:00Z</time>
      </trkpt>
      <trkpt lat="46.30785" lon="-0.32202">
        <ele>59.3989</ele>
        <time>2011-07-23T12:38:09Z</time>
      </trkpt>
      <trkpt lat="46.30782" lon="-0.32189">
        <ele>59.7642</ele>
        <time>2011-07-23T12:38:17Z</time>
      </trkpt>
      <trkpt lat="46.30792" lon="-0.32179">
        <ele>60.6943</ele>
        <time>2011-07-23T12:38:24Z</time>
      </trkpt>
      <trkpt lat="46.30789" lon="-0.32165">
        <ele>62.3312</ele>
        <time>2011-07-23T12:38:31Z</time>
      </trkpt>
      <trkpt lat="46.30787" lon="-0.32152">
        <ele>64.1543</ele>
        <time>2011-07-23T12:38:39Z</time>
      </trkpt>
      <trkpt lat="46.30784" lon="-0.32138">
        <ele>65.7032</ele>
        <time>2011-07-23T12:38:47Z</time>
      </trkpt>
      <trkpt lat="46.3078" lon="-0.32125">
        <ele>66.7893</ele>
        <time>2011-07-23T12:38:54Z</time>
      </trkpt>
      <trkpt lat="46.3078" lon="-0.32111">
        <ele>67.9733</ele>
        <time>2011-07-23T12:39:03Z</time>
      </trkpt>
      <trkpt lat="46.30781" lon="-0.32097">
        <ele>68.993</ele>
        <time>2011-07-23T12:39:12Z</time>
      </trkpt>
      <trkpt lat="46.3078" lon="-0.32083">
        <ele>69.6812</ele>
        <time>2011-07-23T12:39:19Z</time>
      </trkpt>
      <trkpt lat="46.30781" lon="-0.3207">
        <ele>70.4365</ele>
        <time>2011-07-23T12:39:27Z</time>
      </trkpt>
      <trkpt lat="46.30781" lon="-0.32057">
        <ele>71.2596</ele>
        <time>2011-07-23T12:39:36Z</time>
      </trkpt>
      <trkpt lat="46.30779" lon="-0.32043">
        <ele>71.8582</ele>
        <time>2011-07-23T12:39:43Z</time>
      </trkpt>
      <trkpt lat="46.30779" lon="-0.32028">
        <ele>72.3978</ele>
        <time>2011-07-23T12:39:49Z</time>
      </trkpt>
      <trkpt lat="46.3078" lon="-0.32014">
        <ele>73.1522</ele>
        <time>2011-07-23T12:39:58Z</time>
      </trkpt>
      <trkpt lat="46.30782" lon="-0.32001">
        <ele>73.737</ele>
        <time>2011-07-23T12:40:07Z</time>
      </trkpt>
      <trkpt lat="46.30786" lon="-0.31987">
        <ele>74.169</ele>
        <time>2011-07-23T12:40:15Z</time>
      </trkpt>
      <trkpt lat="46.3079" lon="-0.31976">
        <ele>74.5511</ele>
        <time>2011-07-23T12:40:23Z</time>
      </trkpt>
      <trkpt lat="46.30795" lon="-0.31964">
        <ele>74.89</ele>
        <time>2011-07-23T12:40:32Z</time>
      </trkpt>
      <trkpt lat="46.30799" lon="-0.31952">
        <ele>75.0223</ele>
        <time>2011-07-23T12:40:40Z</time>
      </trkpt>
      <trkpt lat="46.30802" lon="-0.31939">
        <ele>75.1579</ele>
        <time>2011-07-23T12:40:48Z</time>
      </trkpt>
      <trkpt lat="46.30806" lon="-0.31925">
        <ele>75.3145</ele>
        <time>2011-07-23T12:41:05Z</time>
      </trkpt>
      <trkpt lat="46.30808" lon="-0.31911">
        <ele>75.4902</ele>
        <time>2011-07-23T12:41:13Z</time>
      </trkpt>
      <trkpt lat="46.30809" lon="-0.31898">
        <ele>75.812</ele>
        <time>2011-07-23T12:41:20Z</time>
      </trkpt>
      <trkpt lat="46.30809" lon="-0.31884">
        <ele>76.2296</ele>
        <time>2011-07-23T12:41:28Z</time>
      </trkpt>
      <trkpt lat="46.30808" lon="-0.3187">
        <ele>76.6862</ele>
        <time>2011-07-23T12:41:36Z</time>
      </trkpt>
      <trkpt lat="46.30806" lon="-0.31857">
        <ele>77.2233</ele>
        <time>2011-07-23T12:41:43Z</time>
      </trkpt>
      <trkpt lat="46.30805" lon="-0.31842">
        <ele>77.8495</ele>
        <time>2011-07-23T12:41:51Z</time>
      </trkpt>
      <trkpt lat="46.30802" lon="-0.3183">
        <ele>78.5012</ele>
        <time>2011-07-23T12:41:58Z</time>
      </trkpt>
      <trkpt lat="46.30801" lon="-0.31817">
        <ele>79.2995</ele>
        <time>2011-07-23T12:42:06Z</time>
      </trkpt>
      <trkpt lat="46.30797" lon="-0.31803">
        <ele>80.1392</ele>
        <time>2011-07-23T12:42:14Z</time>
      </trkpt>
      <trkpt lat="46.30795" lon="-0.3179">
        <ele>80.9899</ele>
        <time>2011-07-23T12:42:22Z</time>
      </trkpt>
      <trkpt lat="46.30791" lon="-0.31776">
        <ele>81.8909</ele>
        <time>2011-07-23T12:42:30Z</time>
      </trkpt>
      <trkpt lat="46.30788" lon="-0.31763">
        <ele>82.5281</ele>
        <time>2011-07-23T12:42:37Z</time>
      </trkpt>
      <trkpt lat="46.30785" lon="-0.31749">
        <ele>83.1964</ele>
        <time>2011-07-23T12:42:45Z</time>
      </trkpt>
      <trkpt lat="46.30782" lon="-0.31736">
        <ele>83.7486</ele>
        <time>2011-07-23T12:42:52Z</time>
      </trkpt>
      <trkpt lat="46.30779" lon="-0.31723">
        <ele>84.2835</ele>
        <time>2011-07-23T12:43:01Z</time>
      </trkpt>
      <trkpt lat="46.30776" lon="-0.31709">
        <ele>84.581</ele>
        <time>2011-07-23T12:43:10Z</time>
      </trkpt>
      <trkpt lat="46.30771" lon="-0.31695">
        <ele>84.7083</ele>
        <time>2011-07-23T12:43:16Z</time>
      </trkpt>
      <trkpt lat="46.30766" lon="-0.31683">
        <ele>84.4391</ele>
        <time>2011-07-23T12:43:25Z</time>
      </trkpt>
      <trkpt lat="46.3076" lon="-0.31671">
        <ele>84.0362</ele>
        <time>2011-07-23T12:43:37Z</time>
      </trkpt>
      <trkpt lat="46.30755" lon="-0.31659">
        <ele>83.6113</ele>
        <time>2011-07-23T12:43:44Z</time>
      </trkpt>
      <trkpt lat="46.30749" lon="-0.31647">
        <ele>82.9696</ele>
        <time>2011-07-23T12:43:54Z</time>
      </trkpt>
      <trkpt lat="46.30743" lon="-0.31637">
        <ele>82.4214</ele>
        <time>2011-07-23T12:44:02Z</time>
      </trkpt>
      <trkpt lat="46.30736" lon="-0.31626">
        <ele>81.9327</ele>
        <time>2011-07-23T12:44:09Z</time>
      </trkpt>
      <trkpt lat="46.3073" lon="-0.31615">
        <ele>81.1965</ele>
        <time>2011-07-23T12:44:18Z</time>
      </trkpt>
      <trkpt lat="46.30724" lon="-0.31604">
        <ele>80.2605</ele>
        <time>2011-07-23T12:44:27Z</time>
      </trkpt>
      <trkpt lat="46.30718" lon="-0.31595">
        <ele>79.5605</ele>
        <time>2011-07-23T12:44:34Z</time>
      </trkpt>
      <trkpt lat="46.30711" lon="-0.31585">
        <ele>78.9086</ele>
        <time>2011-07-23T12:44:41Z</time>
      </trkpt>
      <trkpt lat="46.30707" lon="-0.31573">
        <ele>78.1157</ele>
        <time>2011-07-23T12:44:49Z</time>
      </trkpt>
      <trkpt lat="46.30703" lon="-0.31561">
        <ele>77.3959</ele>
        <time>2011-07-23T12:44:58Z</time>
      </trkpt>
      <trkpt lat="46.30698" lon="-0.31547">
        <ele>76.9514</ele>
        <time>2011-07-23T12:45:04Z</time>
      </trkpt>
      <trkpt lat="46.30694" lon="-0.31534">
        <ele>76.419</ele>
        <time>2011-07-23T12:45:11Z</time>
      </trkpt>
      <trkpt lat="46.3069" lon="-0.31522">
        <ele>75.9146</ele>
        <time>2011-07-23T12:45:18Z</time>
      </trkpt>
      <trkpt lat="46.30686" lon="-0.3151">
        <ele>75.4558</ele>
        <time>2011-07-23T12:45:26Z</time>
      </trkpt>
      <trkpt lat="46.30683" lon="-0.31496">
        <ele>75.1482</ele>
        <time>2011-07-23T12:45:34Z</time>
      </trkpt>
      <trkpt lat="46.30679" lon="-0.31483">
        <ele>74.9883</ele>
        <time>2011-07-23T12:45:42Z</time>
      </trkpt>
      <trkpt lat="46.30676" lon="-0.31469">
        <ele>74.8385</ele>
        <time>2011-07-23T12:45:51Z</time>
      </trkpt>
      <trkpt lat="46.30674" lon="-0.31455">
        <ele>74.7745</ele>
        <time>2011-07-23T12:45:59Z</time>
      </trkpt>
      <trkpt lat="46.30671" lon="-0.31442">
        <ele>74.7532</ele>
        <time>2011-07-23T12:46:06Z</time>
      </trkpt>
      <trkpt lat="46.30668" lon="-0.31429">
        <ele>74.7399</ele>
        <time>2011-07-23T12:46:13Z</time>
      </trkpt>
      <trkpt lat="46.30666" lon="-0.31416">
        <ele>74.6053</ele>
        <time>2011-07-23T12:46:20Z</time>
      </trkpt>
      <trkpt lat="46.30664" lon="-0.31403">
        <ele>74.3932</ele>
        <time>2011-07-23T12:46:30Z</time>
      </trkpt>
      <trkpt lat="46.30663" lon="-0.31389">
        <ele>74.4033</ele>
        <time>2011-07-23T12:46:39Z</time>
      </trkpt>
      <trkpt lat="46.30659" lon="-0.31376">
        <ele>74.5607</ele>
        <time>2011-07-23T12:46:48Z</time>
      </trkpt>
      <trkpt lat="46.30655" lon="-0.31364">
        <ele>74.8665</ele>
        <time>2011-07-23T12:46:55Z</time>
      </trkpt>
      <trkpt lat="46.30651" lon="-0.31351">
        <ele>75.0335</ele>
        <time>2011-07-23T12:47:04Z</time>
      </trkpt>
      <trkpt lat="46.30647" lon="-0.31339">
        <ele>75.1004</ele>
        <time>2011-07-23T12:47:12Z</time>
      </trkpt>
      <trkpt lat="46.30641" lon="-0.31329">
        <ele>75.0361</ele>
        <time>2011-07-23T12:47:20Z</time>
      </trkpt>
      <trkpt lat="46.30636" lon="-0.31318">
        <ele>74.9748</ele>
        <time>2011-07-23T12:47:27Z</time>
      </trkpt>
      <trkpt lat="46.3063" lon="-0.31307">
        <ele>74.8309</ele>
        <time>2011-07-23T12:47:34Z</time>
      </trkpt>
      <trkpt lat="46.30626" lon="-0.31295">
        <ele>74.6737</ele>
        <time>2011-07-23T12:47:43Z</time>
      </trkpt>
      <trkpt lat="46.30624" lon="-0.31281">
        <ele>74.4825</ele>
        <time>2011-07-23T12:47:53Z</time>
      </trkpt>
      <trkpt lat="46.30623" lon="-0.31268">
        <ele>74.3924</ele>
        <time>2011-07-23T12:48:02Z</time>
      </trkpt>
      <trkpt lat="46.3062" lon="-0.31254">
        <ele>74.4996</ele>
        <time>2011-07-23T12:48:11Z</time>
      </trkpt>
      <trkpt lat="46.30617" lon="-0.31242">
        <ele>74.6307</ele>
        <time>2011-07-23T12:48:19Z</time>
      </trkpt>
      <trkpt lat="46.30614" lon="-0.31229">
        <ele>74.6858</ele>
        <time>2011-07-23T12:48:25Z</time>
      </trkpt>
      <trkpt lat="46.30612" lon="-0.31216">
        <ele>74.8169</ele>
        <time>2011-07-23T12:48:31Z</time>
      </trkpt>
      <trkpt lat="46.30608" lon="-0.31203">
        <ele>75.1206</ele>
        <time>2011-07-23T12:48:39Z</time>
      </trkpt>
      <trkpt lat="46.30604" lon="-0.31191">
        <ele>75.2752</ele>
        <time>2011-07-23T12:48:46Z</time>
      </trkpt>
      <trkpt lat="46.306" lon="-0.31179">
        <ele>75.5718</ele>
        <time>2011-07-23T12:48:54Z</time>
      </trkpt>
      <trkpt lat="46.30597" lon="-0.31166">
        <ele>75.7899</ele>
        <time>2011-07-23T12:49:04Z</time>
      </trkpt>
      <trkpt lat="46.30592" lon="-0.31154">
        <ele>75.8705</ele>
        <time>2011-07-23T12:49:12Z</time>
      </trkpt>
      <trkpt lat="46.30587" lon="-0.31142">
        <ele>75.8006</ele>
        <time>2011-07-23T12:49:20Z</time>
      </trkpt>
      <trkpt lat="46.30583" lon="-0.3113">
        <ele>75.6663</ele>
        <time>2011-07-23T12:49:28Z</time>
      </trkpt>
      <trkpt lat="46.30579" lon="-0.31118">
        <ele>75.5921</ele>
        <time>2011-07-23T12:49:36Z</time>
      </trkpt>
      <trkpt lat="46.30576" lon="-0.31103">
        <ele>75.6548</ele>
        <time>2011-07-23T12:49:44Z</time>
      </trkpt>
      <trkpt lat="46.30574" lon="-0.3109">
        <ele>75.7281</ele>
        <time>2011-07-23T12:49:52Z</time>
      </trkpt>
      <trkpt lat="46.30572" lon="-0.31077">
        <ele>75.7812</ele>
        <time>2011-07-23T12:50:00Z</time>
      </trkpt>
      <trkpt lat="46.30568" lon="-0.31062">
        <ele>75.7753</ele>
        <time>2011-07-23T12:50:09Z</time>
      </trkpt>
      <trkpt lat="46.30561" lon="-0.31048">
        <ele>75.9385</ele>
        <time>2011-07-23T12:50:15Z</time>
      </trkpt>
      <trkpt lat="46.30556" lon="-0.31036">
        <ele>75.9187</ele>
        <time>2011-07-23T12:50:23Z</time>
      </trkpt>
      <trkpt lat="46.30553" lon="-0.31024">
        <ele>75.8981</ele>
        <time>2011-07-23T12:50:31Z</time>
      </trkpt>
      <trkpt lat="46.30549" lon="-0.3101">
        <ele>75.95</ele>
        <time>2011-07-23T12:50:40Z</time>
      </trkpt>
      <trkpt lat="46.30545" lon="-0.30996">
        <ele>75.8315</ele>
        <time>2011-07-23T12:50:50Z</time>
      </trkpt>
      <trkpt lat="46.30541" lon="-0.30983">
        <ele>75.7001</ele>
        <time>2011-07-23T12:50:56Z</time>
      </trkpt>
      <trkpt lat="46.30536" lon="-0.30972">
        <ele>75.5297</ele>
        <time>2011-07-23T12:51:03Z</time>
      </trkpt>
      <trkpt lat="46.30532" lon="-0.30959">
        <ele>75.3834</ele>
        <time>2011-07-23T12:51:11Z</time>
      </trkpt>
      <trkpt lat="46.30526" lon="-0.30948">
        <ele>75.3006</ele>
        <time>2011-07-23T12:51:19Z</time>
      </trkpt>
      <trkpt lat="46.30522" lon="-0.30937">
        <ele>75.3591</ele>
        <time>2011-07-23T12:51:27Z</time>
      </trkpt>
      <trkpt lat="46.30518" lon="-0.30925">
        <ele>75.5323</ele>
        <time>2011-07-23T12:51:35Z</time>
      </trkpt>
      <trkpt lat="46.30514" lon="-0.30912">
        <ele>75.7172</ele>
        <time>2011-07-23T12:51:46Z</time>
      </trkpt>
      <trkpt lat="46.30512" lon="-0.30899">
        <ele>75.7311</ele>
        <time>2011-07-23T12:51:56Z</time>
      </trkpt>
      <trkpt lat="46.30508" lon="-0.30886">
        <ele>75.5907</ele>
        <time>2011-07-23T12:52:05Z</time>
      </trkpt>
      <trkpt lat="46.30505" lon="-0.30873">
        <ele>75.5505</ele>
        <time>2011-07-23T12:52:14Z</time>
      </trkpt>
      <trkpt lat="46.30502" lon="-0.3086">
        <ele>75.5741</ele>
        <time>2011-07-23T12:52:22Z</time>
      </trkpt>
      <trkpt lat="46.30499" lon="-0.30848">
        <ele>75.6693</ele>
        <time>2011-07-23T12:52:31Z</time>
      </trkpt>
      <trkpt lat="46.30494" lon="-0.30836">
        <ele>75.7787</ele>
        <time>2011-07-23T12:52:39Z</time>
      </trkpt>
      <trkpt lat="46.30488" lon="-0.30823">
        <ele>75.8511</ele>
        <time>2011-07-23T12:52:45Z</time>
      </trkpt>
      <trkpt lat="46.30482" lon="-0.30806">
        <ele>76.009</ele>
        <time>2011-07-23T12:52:51Z</time>
      </trkpt>
      <trkpt lat="46.30476" lon="-0.30795">
        <ele>76.1568</ele>
        <time>2011-07-23T12:52:57Z</time>
      </trkpt>
      <trkpt lat="46.30471" lon="-0.30783">
        <ele>76.055</ele>
        <time>2011-07-23T12:53:04Z</time>
      </trkpt>
      <trkpt lat="46.30466" lon="-0.30771">
        <ele>75.8695</ele>
        <time>2011-07-23T12:53:12Z</time>
      </trkpt>
      <trkpt lat="46.30462" lon="-0.30758">
        <ele>75.6939</ele>
        <time>2011-07-23T12:53:20Z</time>
      </trkpt>
      <trkpt lat="46.30458" lon="-0.30745">
        <ele>75.4688</ele>
        <time>2011-07-23T12:53:29Z</time>
      </trkpt>
      <trkpt lat="46.30455" lon="-0.30733">
        <ele>75.2466</ele>
        <time>2011-07-23T12:53:37Z</time>
      </trkpt>
      <trkpt lat="46.3045" lon="-0.30721">
        <ele>75.1161</ele>
        <time>2011-07-23T12:53:44Z</time>
      </trkpt>
      <trkpt lat="46.30445" lon="-0.3071">
        <ele>75.1126</ele>
        <time>2011-07-23T12:53:53Z</time>
      </trkpt>
      <trkpt lat="46.30441" lon="-0.30697">
        <ele>75.1112</ele>
        <time>2011-07-23T12:54:02Z</time>
      </trkpt>
      <trkpt lat="46.30437" lon="-0.30684">
        <ele>75.0719</ele>
        <time>2011-07-23T12:54:10Z</time>
      </trkpt>
      <trkpt lat="46.30433" lon="-0.30672">
        <ele>75.0399</ele>
        <time>2011-07-23T12:54:18Z</time>
      </trkpt>
      <trkpt lat="46.30429" lon="-0.30659">
        <ele>74.9288</ele>
        <time>2011-07-23T12:54:27Z</time>
      </trkpt>
      <trkpt lat="46.30426" lon="-0.30645">
        <ele>74.7711</ele>
        <time>2011-07-23T12:54:36Z</time>
      </trkpt>
      <trkpt lat="46.30421" lon="-0.30633">
        <ele>74.7583</ele>
        <time>2011-07-23T12:54:43Z</time>
      </trkpt>
      <trkpt lat="46.30417" lon="-0.30619">
        <ele>74.7456</ele>
        <time>2011-07-23T12:54:51Z</time>
      </trkpt>
      <trkpt lat="46.30412" lon="-0.30607">
        <ele>74.7468</ele>
        <time>2011-07-23T12:54:58Z</time>
      </trkpt>
      <trkpt lat="46.30407" lon="-0.30596">
        <ele>74.7322</ele>
        <time>2011-07-23T12:55:06Z</time>
      </trkpt>
      <trkpt lat="46.30401" lon="-0.30585">
        <ele>74.7395</ele>
        <time>2011-07-23T12:55:14Z</time>
      </trkpt>
      <trkpt lat="46.30396" lon="-0.30574">
        <ele>74.8355</ele>
        <time>2011-07-23T12:55:21Z</time>
      </trkpt>
      <trkpt lat="46.30389" lon="-0.30563">
        <ele>74.9623</ele>
        <time>2011-07-23T12:55:29Z</time>
      </trkpt>
      <trkpt lat="46.30383" lon="-0.30553">
        <ele>75.0691</ele>
        <time>2011-07-23T12:55:39Z</time>
      </trkpt>
      <trkpt lat="46.30376" lon="-0.30543">
        <ele>75.0858</ele>
        <time>2011-07-23T12:55:45Z</time>
      </trkpt>
      <trkpt lat="46.3037" lon="-0.30533">
        <ele>75.1451</ele>
        <time>2011-07-23T12:55:52Z</time>
      </trkpt>
      <trkpt lat="46.30362" lon="-0.30524">
        <ele>75.3369</ele>
        <time>2011-07-23T12:56:00Z</time>
      </trkpt>
      <trkpt lat="46.30355" lon="-0.30515">
        <ele>75.5342</ele>
        <time>2011-07-23T12:56:07Z</time>
      </trkpt>
      <trkpt lat="46.30347" lon="-0.30507">
        <ele>75.7219</ele>
        <time>2011-07-23T12:56:14Z</time>
      </trkpt>
      <trkpt lat="46.30341" lon="-0.30498">
        <ele>75.8925</ele>
        <time>2011-07-23T12:56:21Z</time>
      </trkpt>
      <trkpt lat="46.30336" lon="-0.30487">
        <ele>75.9946</ele>
        <time>2011-07-23T12:56:29Z</time>
      </trkpt>
      <trkpt lat="46.30345" lon="-0.30491">
        <ele>76.0385</ele>
        <time>2011-07-23T12:56:40Z</time>
      </trkpt>
      <trkpt lat="46.30355" lon="-0.30492">
        <ele>76.046</ele>
        <time>2011-07-23T12:56:49Z</time>
      </trkpt>
      <trkpt lat="46.30365" lon="-0.30492">
        <ele>75.9816</ele>
        <time>2011-07-23T12:56:57Z</time>
      </trkpt>
      <trkpt lat="46.30375" lon="-0.30491">
        <ele>75.9642</ele>
        <time>2011-07-23T12:57:04Z</time>
      </trkpt>
      <trkpt lat="46.30384" lon="-0.30489">
        <ele>75.9857</ele>
        <time>2011-07-23T12:57:11Z</time>
      </trkpt>
      <trkpt lat="46.30394" lon="-0.30489">
        <ele>76.0079</ele>
        <time>2011-07-23T12:57:19Z</time>
      </trkpt>
      <trkpt lat="46.30404" lon="-0.30488">
        <ele>76.0617</ele>
        <time>2011-07-23T12:57:27Z</time>
      </trkpt>
      <trkpt lat="46.30413" lon="-0.30485">
        <ele>76.2009</ele>
        <time>2011-07-23T12:57:35Z</time>
      </trkpt>
      <trkpt lat="46.30424" lon="-0.30482">
        <ele>76.5643</ele>
        <time>2011-07-23T12:57:44Z</time>
      </trkpt>
      <trkpt lat="46.30434" lon="-0.30479">
        <ele>77.0275</ele>
        <time>2011-07-23T12:57:52Z</time>
      </trkpt>
      <trkpt lat="46.30444" lon="-0.3048">
        <ele>77.3577</ele>
        <time>2011-07-23T12:57:59Z</time>
      </trkpt>
      <trkpt lat="46.30454" lon="-0.30479">
        <ele>77.6837</ele>
        <time>2011-07-23T12:58:07Z</time>
      </trkpt>
      <trkpt lat="46.30463" lon="-0.30477">
        <ele>77.9436</ele>
        <time>2011-07-23T12:58:13Z</time>
      </trkpt>
      <trkpt lat="46.30473" lon="-0.30476">
        <ele>78.3258</ele>
        <time>2011-07-23T12:58:21Z</time>
      </trkpt>
      <trkpt lat="46.30482" lon="-0.30473">
        <ele>78.8544</ele>
        <time>2011-07-23T12:58:30Z</time>
      </trkpt>
      <trkpt lat="46.30492" lon="-0.30472">
        <ele>79.4096</ele>
        <time>2011-07-23T12:58:40Z</time>
      </trkpt>
      <trkpt lat="46.30502" lon="-0.30471">
        <ele>79.8336</ele>
        <time>2011-07-23T12:58:49Z</time>
      </trkpt>
      <trkpt lat="46.30511" lon="-0.30471">
        <ele>80.0829</ele>
        <time>2011-07-23T12:58:58Z</time>
      </trkpt>
      <trkpt lat="46.30521" lon="-0.30469">
        <ele>80.2052</ele>
        <time>2011-07-23T12:59:07Z</time>
      </trkpt>
      <trkpt lat="46.3053" lon="-0.30469">
        <ele>80.2536</ele>
        <time>2011-07-23T12:59:15Z</time>
      </trkpt>
      <trkpt lat="46.3054" lon="-0.30466">
        <ele>80.3402</ele>
        <time>2011-07-23T12:59:22Z</time>
      </trkpt>
      <trkpt lat="46.30549" lon="-0.30465">
        <ele>80.477</ele>
        <time>2011-07-23T12:59:30Z</time>
      </trkpt>
      <trkpt lat="46.30559" lon="-0.30465">
        <ele>80.5115</ele>
        <time>2011-07-23T12:59:38Z</time>
      </trkpt>
      <trkpt lat="46.30568" lon="-0.30465">
        <ele>80.422</ele>
        <time>2011-07-23T12:59:46Z</time>
      </trkpt>
      <trkpt lat="46.30578" lon="-0.30466">
        <ele>80.197</ele>
        <time>2011-07-23T12:59:55Z</time>
      </trkpt>
      <trkpt lat="46.30587" lon="-0.30465">
        <ele>79.9813</ele>
        <time>2011-07-23T13:00:03Z</time>
      </trkpt>
      <trkpt lat="46.30597" lon="-0.30466">
        <ele>79.776</ele>
        <time>2011-07-23T13:00:12Z</time>
      </trkpt>
      <trkpt lat="46.30607" lon="-0.30463">
        <ele>79.6492</ele>
        <time>2011-07-23T13:00:19Z</time>
      </trkpt>
      <trkpt lat="46.30616" lon="-0.30463">
        <ele>79.535</ele>
        <time>2011-07-23T13:00:27Z</time>
      </trkpt>
      <trkpt lat="46.30626" lon="-0.30463">
        <ele>79.4418</ele>
        <time>2011-07-23T13:00:35Z</time>
      </trkpt>
      <trkpt lat="46.30636" lon="-0.30462">
        <ele>79.3542</ele>
        <time>2011-07-23T13:00:43Z</time>
      </trkpt>
      <trkpt lat="46.30645" lon="-0.30461">
        <ele>79.2299</ele>
        <time>2011-07-23T13:00:51Z</time>
      </trkpt>
      <trkpt lat="46.30655" lon="-0.30463">
        <ele>79.2607</ele>
        <time>2011-07-23T13:01:00Z</time>
      </trkpt>
      <trkpt lat="46.30664" lon="-0.30459">
        <ele>79.6028</ele>
        <time>2011-07-23T13:01:08Z</time>
      </trkpt>
      <trkpt lat="46.30674" lon="-0.30456">
        <ele>80.0915</ele>
        <time>2011-07-23T13:01:15Z</time>
      </trkpt>
      <trkpt lat="46.30683" lon="-0.30459">
        <ele>80.3677</ele>
        <time>2011-07-23T13:01:22Z</time>
      </trkpt>
      <trkpt lat="46.30692" lon="-0.3046">
        <ele>80.3227</ele>
        <time>2011-07-23T13:01:29Z</time>
      </trkpt>
      <trkpt lat="46.30702" lon="-0.30458">
        <ele>80.3842</ele>
        <time>2011-07-23T13:01:36Z</time>
      </trkpt>
      <trkpt lat="46.30712" lon="-0.30458">
        <ele>80.4708</ele>
        <time>2011-07-23T13:01:44Z</time>
      </trkpt>
      <trkpt lat="46.30721" lon="-0.30458">
        <ele>80.4924</ele>
        <time>2011-07-23T13:01:51Z</time>
      </trkpt>
      <trkpt lat="46.30731" lon="-0.30458">
        <ele>80.4065</ele>
        <time>2011-07-23T13:01:59Z</time>
      </trkpt>
      <trkpt lat="46.30741" lon="-0.30455">
        <ele>80.2808</ele>
        <time>2011-07-23T13:02:07Z</time>
      </trkpt>
      <trkpt lat="46.3075" lon="-0.30453">
        <ele>80.102</ele>
        <time>2011-07-23T13:02:13Z</time>
      </trkpt>
      <trkpt lat="46.3076" lon="-0.30454">
        <ele>79.6977</ele>
        <time>2011-07-23T13:02:22Z</time>
      </trkpt>
      <trkpt lat="46.3077" lon="-0.30454">
        <ele>79.3377</ele>
        <time>2011-07-23T13:02:31Z</time>
      </trkpt>
      <trkpt lat="46.3078" lon="-0.30453">
        <ele>79.0714</ele>
        <time>2011-07-23T13:02:39Z</time>
      </trkpt>
      <trkpt lat="46.3079" lon="-0.30455">
        <ele>78.8162</ele>
        <time>2011-07-23T13:02:47Z</time>
      </trkpt>
      <trkpt lat="46.308" lon="-0.30454">
        <ele>78.5951</ele>
        <time>2011-07-23T13:02:55Z</time>
      </trkpt>
      <trkpt lat="46.30809" lon="-0.30453">
        <ele>78.3997</ele>
        <time>2011-07-23T13:03:03Z</time>
      </trkpt>
      <trkpt lat="46.30818" lon="-0.30454">
        <ele>78.4287</ele>
        <time>2011-07-23T13:03:12Z</time>
      </trkpt>
      <trkpt lat="46.30828" lon="-0.30452">
        <ele>78.5525</ele>
        <time>2011-07-23T13:03:20Z</time>
      </trkpt>
      <trkpt lat="46.30838" lon="-0.30452">
        <ele>79.5487</ele>
        <time>2011-07-23T13:07:06Z</time>
      </trkpt>
      <trkpt lat="46.30847" lon="-0.30449">
        <ele>79.6782</ele>
        <time>2011-07-23T13:07:15Z</time>
      </trkpt>
      <trkpt lat="46.30856" lon="-0.30448">
        <ele>79.7915</ele>
        <time>2011-07-23T13:07:23Z</time>
      </trkpt>
      <trkpt lat="46.30866" lon="-0.30449">
        <ele>79.8566</ele>
        <time>2011-07-23T13:07:31Z</time>
      </trkpt>
      <trkpt lat="46.30875" lon="-0.30448">
        <ele>79.8539</ele>
        <time>2011-07-23T13:07:40Z</time>
      </trkpt>
      <trkpt lat="46.30885" lon="-0.30447">
        <ele>79.7903</ele>
        <time>2011-07-23T13:07:47Z</time>
      </trkpt>
      <trkpt lat="46.30894" lon="-0.30445">
        <ele>79.6529</ele>
        <time>2011-07-23T13:07:54Z</time>
      </trkpt>
      <trkpt lat="46.30903" lon="-0.30445">
        <ele>79.5758</ele>
        <time>2011-07-23T13:08:02Z</time>
      </trkpt>
      <trkpt lat="46.30913" lon="-0.30444">
        <ele>79.4658</ele>
        <time>2011-07-23T13:08:10Z</time>
      </trkpt>
      <trkpt lat="46.30923" lon="-0.30441">
        <ele>79.3051</ele>
        <time>2011-07-23T13:08:17Z</time>
      </trkpt>
      <trkpt lat="46.30933" lon="-0.30438">
        <ele>79.142</ele>
        <time>2011-07-23T13:08:24Z</time>
      </trkpt>
      <trkpt lat="46.30942" lon="-0.30437">
        <ele>78.9629</ele>
        <time>2011-07-23T13:08:31Z</time>
      </trkpt>
      <trkpt lat="46.30952" lon="-0.30437">
        <ele>78.6668</ele>
        <time>2011-07-23T13:08:40Z</time>
      </trkpt>
      <trkpt lat="46.30962" lon="-0.30435">
        <ele>78.3715</ele>
        <time>2011-07-23T13:08:49Z</time>
      </trkpt>
      <trkpt lat="46.30972" lon="-0.30436">
        <ele>77.9882</ele>
        <time>2011-07-23T13:08:59Z</time>
      </trkpt>
      <trkpt lat="46.30981" lon="-0.30438">
        <ele>77.7069</ele>
        <time>2011-07-23T13:09:06Z</time>
      </trkpt>
      <trkpt lat="46.3099" lon="-0.3044">
        <ele>77.5418</ele>
        <time>2011-07-23T13:09:12Z</time>
      </trkpt>
      <trkpt lat="46.30996" lon="-0.30452">
        <ele>77.3697</ele>
        <time>2011-07-23T13:09:20Z</time>
      </trkpt>
      <trkpt lat="46.30998" lon="-0.30465">
        <ele>77.2992</ele>
        <time>2011-07-23T13:09:26Z</time>
      </trkpt>
      <trkpt lat="46.30999" lon="-0.30479">
        <ele>77.3091</ele>
        <time>2011-07-23T13:09:34Z</time>
      </trkpt>
      <trkpt lat="46.30999" lon="-0.30493">
        <ele>77.3216</ele>
        <time>2011-07-23T13:09:42Z</time>
      </trkpt>
      <trkpt lat="46.30999" lon="-0.30506">
        <ele>77.7839</ele>
        <time>2011-07-23T13:09:50Z</time>
      </trkpt>
      <trkpt lat="46.30997" lon="-0.30521">
        <ele>78.3354</ele>
        <time>2011-07-23T13:09:58Z</time>
      </trkpt>
      <trkpt lat="46.30995" lon="-0.30535">
        <ele>78.6323</ele>
        <time>2011-07-23T13:10:06Z</time>
      </trkpt>
      <trkpt lat="46.30998" lon="-0.3069">
        <ele>79.4657</ele>
        <time>2011-07-23T13:11:33Z</time>
      </trkpt>
      <trkpt lat="46.31" lon="-0.30703">
        <ele>79.7783</ele>
        <time>2011-07-23T13:11:41Z</time>
      </trkpt>
      <trkpt lat="46.31001" lon="-0.30717">
        <ele>80.0883</ele>
        <time>2011-07-23T13:11:49Z</time>
      </trkpt>
      <trkpt lat="46.31" lon="-0.3073">
        <ele>80.2793</ele>
        <time>2011-07-23T13:11:55Z</time>
      </trkpt>
      <trkpt lat="46.30998" lon="-0.30743">
        <ele>80.1015</ele>
        <time>2011-07-23T13:12:03Z</time>
      </trkpt>
      <trkpt lat="46.30998" lon="-0.30756">
        <ele>80.1415</ele>
        <time>2011-07-23T13:12:11Z</time>
      </trkpt>
      <trkpt lat="46.30996" lon="-0.30771">
        <ele>80.2277</ele>
        <time>2011-07-23T13:12:19Z</time>
      </trkpt>
      <trkpt lat="46.30996" lon="-0.30784">
        <ele>80.2908</ele>
        <time>2011-07-23T13:12:27Z</time>
      </trkpt>
      <trkpt lat="46.30995" lon="-0.30797">
        <ele>80.367</ele>
        <time>2011-07-23T13:12:35Z</time>
      </trkpt>
      <trkpt lat="46.30995" lon="-0.3081">
        <ele>80.4207</ele>
        <time>2011-07-23T13:12:42Z</time>
      </trkpt>
      <trkpt lat="46.30994" lon="-0.30824">
        <ele>80.4199</ele>
        <time>2011-07-23T13:12:50Z</time>
      </trkpt>
      <trkpt lat="46.30993" lon="-0.30838">
        <ele>80.3896</ele>
        <time>2011-07-23T13:12:58Z</time>
      </trkpt>
      <trkpt lat="46.30993" lon="-0.30851">
        <ele>80.4316</ele>
        <time>2011-07-23T13:13:05Z</time>
      </trkpt>
      <trkpt lat="46.30993" lon="-0.30864">
        <ele>80.4929</ele>
        <time>2011-07-23T13:13:12Z</time>
      </trkpt>
      <trkpt lat="46.30994" lon="-0.30878">
        <ele>80.5874</ele>
        <time>2011-07-23T13:13:20Z</time>
      </trkpt>
      <trkpt lat="46.30993" lon="-0.30891">
        <ele>80.6837</ele>
        <time>2011-07-23T13:13:27Z</time>
      </trkpt>
      <trkpt lat="46.30994" lon="-0.30905">
        <ele>80.7498</ele>
        <time>2011-07-23T13:13:36Z</time>
      </trkpt>
      <trkpt lat="46.30994" lon="-0.30919">
        <ele>80.7463</ele>
        <time>2011-07-23T13:13:44Z</time>
      </trkpt>
      <trkpt lat="46.30993" lon="-0.30933">
        <ele>80.6582</ele>
        <time>2011-07-23T13:13:52Z</time>
      </trkpt>
      <trkpt lat="46.30991" lon="-0.30946">
        <ele>80.5956</ele>
        <time>2011-07-23T13:13:59Z</time>
      </trkpt>
      <trkpt lat="46.3099" lon="-0.30959">
        <ele>80.5392</ele>
        <time>2011-07-23T13:14:06Z</time>
      </trkpt>
      <trkpt lat="46.30989" lon="-0.30973">
        <ele>80.455</ele>
        <time>2011-07-23T13:14:14Z</time>
      </trkpt>
      <trkpt lat="46.30987" lon="-0.30987">
        <ele>80.3447</ele>
        <time>2011-07-23T13:14:22Z</time>
      </trkpt>
      <trkpt lat="46.30986" lon="-0.31">
        <ele>80.192</ele>
        <time>2011-07-23T13:14:30Z</time>
      </trkpt>
      <trkpt lat="46.30985" lon="-0.31014">
        <ele>80.0327</ele>
        <time>2011-07-23T13:14:38Z</time>
      </trkpt>
      <trkpt lat="46.30985" lon="-0.31029">
        <ele>79.8749</ele>
        <time>2011-07-23T13:14:47Z</time>
      </trkpt>
      <trkpt lat="46.30982" lon="-0.31043">
        <ele>79.7913</ele>
        <time>2011-07-23T13:14:55Z</time>
      </trkpt>
      <trkpt lat="46.30981" lon="-0.31056">
        <ele>79.742</ele>
        <time>2011-07-23T13:15:02Z</time>
      </trkpt>
      <trkpt lat="46.3098" lon="-0.31069">
        <ele>79.6901</ele>
        <time>2011-07-23T13:15:09Z</time>
      </trkpt>
      <trkpt lat="46.30979" lon="-0.31082">
        <ele>79.5833</ele>
        <time>2011-07-23T13:15:17Z</time>
      </trkpt>
      <trkpt lat="46.30981" lon="-0.31096">
        <ele>79.4372</ele>
        <time>2011-07-23T13:15:25Z</time>
      </trkpt>
      <trkpt lat="46.30981" lon="-0.31109">
        <ele>79.2955</ele>
        <time>2011-07-23T13:15:32Z</time>
      </trkpt>
      <trkpt lat="46.30982" lon="-0.31122">
        <ele>79.1044</ele>
        <time>2011-07-23T13:15:39Z</time>
      </trkpt>
      <trkpt lat="46.30983" lon="-0.31137">
        <ele>78.8836</ele>
        <time>2011-07-23T13:15:48Z</time>
      </trkpt>
      <trkpt lat="46.30981" lon="-0.31151">
        <ele>78.7129</ele>
        <time>2011-07-23T13:15:55Z</time>
      </trkpt>
      <trkpt lat="46.30978" lon="-0.31164">
        <ele>78.5608</ele>
        <time>2011-07-23T13:16:03Z</time>
      </trkpt>
      <trkpt lat="46.30975" lon="-0.31178">
        <ele>78.4123</ele>
        <time>2011-07-23T13:16:10Z</time>
      </trkpt>
      <trkpt lat="46.30973" lon="-0.31192">
        <ele>78.1694</ele>
        <time>2011-07-23T13:16:18Z</time>
      </trkpt>
      <trkpt lat="46.3097" lon="-0.31205">
        <ele>77.8768</ele>
        <time>2011-07-23T13:16:26Z</time>
      </trkpt>
      <trkpt lat="46.30966" lon="-0.3122">
        <ele>77.5998</ele>
        <time>2011-07-23T13:16:33Z</time>
      </trkpt>
      <trkpt lat="46.30963" lon="-0.31234">
        <ele>77.2217</ele>
        <time>2011-07-23T13:16:43Z</time>
      </trkpt>
      <trkpt lat="46.30959" lon="-0.31247">
        <ele>76.8421</ele>
        <time>2011-07-23T13:16:51Z</time>
      </trkpt>
      <trkpt lat="46.30956" lon="-0.31261">
        <ele>76.5346</ele>
        <time>2011-07-23T13:17:00Z</time>
      </trkpt>
      <trkpt lat="46.30953" lon="-0.31273">
        <ele>76.1987</ele>
        <time>2011-07-23T13:17:08Z</time>
      </trkpt>
      <trkpt lat="46.3095" lon="-0.31287">
        <ele>75.7566</ele>
        <time>2011-07-23T13:17:16Z</time>
      </trkpt>
      <trkpt lat="46.30947" lon="-0.313">
        <ele>75.3628</ele>
        <time>2011-07-23T13:17:24Z</time>
      </trkpt>
      <trkpt lat="46.30945" lon="-0.31313">
        <ele>75.0046</ele>
        <time>2011-07-23T13:17:32Z</time>
      </trkpt>
      <trkpt lat="46.30941" lon="-0.31327">
        <ele>74.6791</ele>
        <time>2011-07-23T13:17:40Z</time>
      </trkpt>
      <trkpt lat="46.30939" lon="-0.3134">
        <ele>74.4171</ele>
        <time>2011-07-23T13:17:47Z</time>
      </trkpt>
      <trkpt lat="46.30938" lon="-0.31354">
        <ele>74.1173</ele>
        <time>2011-07-23T13:17:56Z</time>
      </trkpt>
      <trkpt lat="46.30937" lon="-0.31369">
        <ele>73.9061</ele>
        <time>2011-07-23T13:18:03Z</time>
      </trkpt>
      <trkpt lat="46.30935" lon="-0.31382">
        <ele>73.8468</ele>
        <time>2011-07-23T13:18:10Z</time>
      </trkpt>
      <trkpt lat="46.30933" lon="-0.31397">
        <ele>73.8503</ele>
        <time>2011-07-23T13:18:18Z</time>
      </trkpt>
      <trkpt lat="46.30935" lon="-0.31411">
        <ele>73.7878</ele>
        <time>2011-07-23T13:18:27Z</time>
      </trkpt>
      <trkpt lat="46.30934" lon="-0.31424">
        <ele>73.6592</ele>
        <time>2011-07-23T13:18:35Z</time>
      </trkpt>
      <trkpt lat="46.30934" lon="-0.31439">
        <ele>73.4572</ele>
        <time>2011-07-23T13:18:44Z</time>
      </trkpt>
      <trkpt lat="46.30935" lon="-0.31452">
        <ele>73.2655</ele>
        <time>2011-07-23T13:18:52Z</time>
      </trkpt>
      <trkpt lat="46.30935" lon="-0.31465">
        <ele>73.1802</ele>
        <time>2011-07-23T13:18:59Z</time>
      </trkpt>
      <trkpt lat="46.30935" lon="-0.31479">
        <ele>73.155</ele>
        <time>2011-07-23T13:19:08Z</time>
      </trkpt>
      <trkpt lat="46.30935" lon="-0.31494">
        <ele>73.154</ele>
        <time>2011-07-23T13:19:16Z</time>
      </trkpt>
      <trkpt lat="46.30936" lon="-0.31509">
        <ele>73.1608</ele>
        <time>2011-07-23T13:19:25Z</time>
      </trkpt>
      <trkpt lat="46.30935" lon="-0.31522">
        <ele>73.1256</ele>
        <time>2011-07-23T13:19:33Z</time>
      </trkpt>
      <trkpt lat="46.30935" lon="-0.31536">
        <ele>73.0919</ele>
        <time>2011-07-23T13:19:41Z</time>
      </trkpt>
      <trkpt lat="46.30938" lon="-0.3155">
        <ele>73.0536</ele>
        <time>2011-07-23T13:19:49Z</time>
      </trkpt>
      <trkpt lat="46.30943" lon="-0.31562">
        <ele>72.9508</ele>
        <time>2011-07-23T13:19:57Z</time>
      </trkpt>
      <trkpt lat="46.30949" lon="-0.31572">
        <ele>72.7447</ele>
        <time>2011-07-23T13:20:05Z</time>
      </trkpt>
      <trkpt lat="46.30956" lon="-0.31581">
        <ele>72.5154</ele>
        <time>2011-07-23T13:20:12Z</time>
      </trkpt>
      <trkpt lat="46.30963" lon="-0.31589">
        <ele>72.2762</ele>
        <time>2011-07-23T13:20:19Z</time>
      </trkpt>
      <trkpt lat="46.3097" lon="-0.316">
        <ele>71.9537</ele>
        <time>2011-07-23T13:20:27Z</time>
      </trkpt>
      <trkpt lat="46.30977" lon="-0.31608">
        <ele>71.6497</ele>
        <time>2011-07-23T13:20:34Z</time>
      </trkpt>
      <trkpt lat="46.30985" lon="-0.31619">
        <ele>71.3572</ele>
        <time>2011-07-23T13:20:42Z</time>
      </trkpt>
      <trkpt lat="46.3099" lon="-0.31631">
        <ele>71.0583</ele>
        <time>2011-07-23T13:20:50Z</time>
      </trkpt>
      <trkpt lat="46.30991" lon="-0.31644">
        <ele>70.7559</ele>
        <time>2011-07-23T13:20:57Z</time>
      </trkpt>
      <trkpt lat="46.30993" lon="-0.31658">
        <ele>70.4119</ele>
        <time>2011-07-23T13:21:06Z</time>
      </trkpt>
      <trkpt lat="46.30994" lon="-0.31672">
        <ele>70.1558</ele>
        <time>2011-07-23T13:21:14Z</time>
      </trkpt>
      <trkpt lat="46.30995" lon="-0.31687">
        <ele>69.8915</ele>
        <time>2011-07-23T13:21:22Z</time>
      </trkpt>
      <trkpt lat="46.30994" lon="-0.317">
        <ele>69.638</ele>
        <time>2011-07-23T13:21:30Z</time>
      </trkpt>
      <trkpt lat="46.30995" lon="-0.31714">
        <ele>69.4422</ele>
        <time>2011-07-23T13:21:38Z</time>
      </trkpt>
      <trkpt lat="46.30997" lon="-0.31727">
        <ele>69.2903</ele>
        <time>2011-07-23T13:21:45Z</time>
      </trkpt>
      <trkpt lat="46.30998" lon="-0.3174">
        <ele>69.1153</ele>
        <time>2011-07-23T13:21:53Z</time>
      </trkpt>
      <trkpt lat="46.30999" lon="-0.31754">
        <ele>68.9559</ele>
        <time>2011-07-23T13:22:02Z</time>
      </trkpt>
      <trkpt lat="46.30998" lon="-0.31768">
        <ele>68.8788</ele>
        <time>2011-07-23T13:22:09Z</time>
      </trkpt>
      <trkpt lat="46.30997" lon="-0.31782">
        <ele>68.8171</ele>
        <time>2011-07-23T13:22:17Z</time>
      </trkpt>
      <trkpt lat="46.30996" lon="-0.31795">
        <ele>68.7666</ele>
        <time>2011-07-23T13:22:25Z</time>
      </trkpt>
      <trkpt lat="46.30996" lon="-0.31809">
        <ele>68.7262</ele>
        <time>2011-07-23T13:22:33Z</time>
      </trkpt>
      <trkpt lat="46.30996" lon="-0.31823">
        <ele>68.7222</ele>
        <time>2011-07-23T13:22:41Z</time>
      </trkpt>
      <trkpt lat="46.30997" lon="-0.31837">
        <ele>68.7085</ele>
        <time>2011-07-23T13:22:49Z</time>
      </trkpt>
      <trkpt lat="46.30992" lon="-0.31849">
        <ele>68.5679</ele>
        <time>2011-07-23T13:22:56Z</time>
      </trkpt>
      <trkpt lat="46.30984" lon="-0.31855">
        <ele>68.3738</ele>
        <time>2011-07-23T13:23:03Z</time>
      </trkpt>
      <trkpt lat="46.30974" lon="-0.31858">
        <ele>68.0615</ele>
        <time>2011-07-23T13:23:11Z</time>
      </trkpt>
      <trkpt lat="46.30967" lon="-0.31867">
        <ele>67.6841</ele>
        <time>2011-07-23T13:23:19Z</time>
      </trkpt>
      <trkpt lat="46.30964" lon="-0.3188">
        <ele>67.2897</ele>
        <time>2011-07-23T13:23:27Z</time>
      </trkpt>
      <trkpt lat="46.30963" lon="-0.31894">
        <ele>66.817</ele>
        <time>2011-07-23T13:23:36Z</time>
      </trkpt>
      <trkpt lat="46.30961" lon="-0.31908">
        <ele>66.4208</ele>
        <time>2011-07-23T13:23:44Z</time>
      </trkpt>
      <trkpt lat="46.30961" lon="-0.31921">
        <ele>66.1299</ele>
        <time>2011-07-23T13:23:51Z</time>
      </trkpt>
      <trkpt lat="46.30959" lon="-0.31936">
        <ele>65.8449</ele>
        <time>2011-07-23T13:23:59Z</time>
      </trkpt>
      <trkpt lat="46.30957" lon="-0.31949">
        <ele>65.6406</ele>
        <time>2011-07-23T13:24:08Z</time>
      </trkpt>
      <trkpt lat="46.30956" lon="-0.31963">
        <ele>65.5643</ele>
        <time>2011-07-23T13:24:16Z</time>
      </trkpt>
      <trkpt lat="46.30956" lon="-0.31978">
        <ele>65.5424</ele>
        <time>2011-07-23T13:24:24Z</time>
      </trkpt>
      <trkpt lat="46.30957" lon="-0.31993">
        <ele>65.5068</ele>
        <time>2011-07-23T13:24:32Z</time>
      </trkpt>
      <trkpt lat="46.30959" lon="-0.32006">
        <ele>65.5382</ele>
        <time>2011-07-23T13:24:40Z</time>
      </trkpt>
      <trkpt lat="46.30961" lon="-0.32019">
        <ele>65.6561</ele>
        <time>2011-07-23T13:24:48Z</time>
      </trkpt>
      <trkpt lat="46.30962" lon="-0.32034">
        <ele>65.676</ele>
        <time>2011-07-23T13:24:56Z</time>
      </trkpt>
      <trkpt lat="46.30965" lon="-0.32047">
        <ele>65.6739</ele>
        <time>2011-07-23T13:25:02Z</time>
      </trkpt>
      <trkpt lat="46.30969" lon="-0.3206">
        <ele>65.7433</ele>
        <time>2011-07-23T13:25:09Z</time>
      </trkpt>
      <trkpt lat="46.30971" lon="-0.32074">
        <ele>65.8951</ele>
        <time>2011-07-23T13:25:17Z</time>
      </trkpt>
      <trkpt lat="46.30975" lon="-0.32087">
        <ele>66.0794</ele>
        <time>2011-07-23T13:25:25Z</time>
      </trkpt>
      <trkpt lat="46.30978" lon="-0.321">
        <ele>66.0732</ele>
        <time>2011-07-23T13:25:34Z</time>
      </trkpt>
      <trkpt lat="46.3098" lon="-0.32114">
        <ele>65.725</ele>
        <time>2011-07-23T13:25:42Z</time>
      </trkpt>
      <trkpt lat="46.30983" lon="-0.32127">
        <ele>65.7865</ele>
        <time>2011-07-23T13:25:49Z</time>
      </trkpt>
      <trkpt lat="46.30987" lon="-0.3214">
        <ele>65.8055</ele>
        <time>2011-07-23T13:25:57Z</time>
      </trkpt>
      <trkpt lat="46.30994" lon="-0.32151">
        <ele>65.7286</ele>
        <time>2011-07-23T13:26:05Z</time>
      </trkpt>
      <trkpt lat="46.30994" lon="-0.32166">
        <ele>65.6626</ele>
        <time>2011-07-23T13:26:13Z</time>
      </trkpt>
      <trkpt lat="46.30993" lon="-0.32179">
        <ele>65.6182</ele>
        <time>2011-07-23T13:26:20Z</time>
      </trkpt>
      <trkpt lat="46.30993" lon="-0.32193">
        <ele>65.7043</ele>
        <time>2011-07-23T13:26:30Z</time>
      </trkpt>
      <trkpt lat="46.30993" lon="-0.32207">
        <ele>65.869</ele>
        <time>2011-07-23T13:26:38Z</time>
      </trkpt>
      <trkpt lat="46.30993" lon="-0.32222">
        <ele>66.087</ele>
        <time>2011-07-23T13:26:46Z</time>
      </trkpt>
      <trkpt lat="46.30992" lon="-0.32236">
        <ele>66.4298</ele>
        <time>2011-07-23T13:26:54Z</time>
      </trkpt>
      <trkpt lat="46.30991" lon="-0.32249">
        <ele>66.7424</ele>
        <time>2011-07-23T13:27:02Z</time>
      </trkpt>
      <trkpt lat="46.30992" lon="-0.32264">
        <ele>67.0972</ele>
        <time>2011-07-23T13:27:11Z</time>
      </trkpt>
      <trkpt lat="46.3099" lon="-0.32278">
        <ele>67.3999</ele>
        <time>2011-07-23T13:27:18Z</time>
      </trkpt>
      <trkpt lat="46.30988" lon="-0.32292">
        <ele>67.7261</ele>
        <time>2011-07-23T13:27:26Z</time>
      </trkpt>
      <trkpt lat="46.30988" lon="-0.32305">
        <ele>68.0537</ele>
        <time>2011-07-23T13:27:34Z</time>
      </trkpt>
      <trkpt lat="46.30988" lon="-0.32319">
        <ele>68.3942</ele>
        <time>2011-07-23T13:27:43Z</time>
      </trkpt>
      <trkpt lat="46.30987" lon="-0.32332">
        <ele>68.6916</ele>
        <time>2011-07-23T13:27:50Z</time>
      </trkpt>
      <trkpt lat="46.30988" lon="-0.32347">
        <ele>69.1789</ele>
        <time>2011-07-23T13:27:59Z</time>
      </trkpt>
      <trkpt lat="46.30986" lon="-0.32361">
        <ele>69.6691</ele>
        <time>2011-07-23T13:28:08Z</time>
      </trkpt>
      <trkpt lat="46.30984" lon="-0.32374">
        <ele>70.0446</ele>
        <time>2011-07-23T13:28:16Z</time>
      </trkpt>
      <trkpt lat="46.30983" lon="-0.32388">
        <ele>70.4942</ele>
        <time>2011-07-23T13:28:26Z</time>
      </trkpt>
      <trkpt lat="46.30983" lon="-0.32403">
        <ele>70.8917</ele>
        <time>2011-07-23T13:28:35Z</time>
      </trkpt>
      <trkpt lat="46.30982" lon="-0.32416">
        <ele>71.3268</ele>
        <time>2011-07-23T13:28:44Z</time>
      </trkpt>
      <trkpt lat="46.30982" lon="-0.3243">
        <ele>71.778</ele>
        <time>2011-07-23T13:28:53Z</time>
      </trkpt>
      <trkpt lat="46.30981" lon="-0.32443">
        <ele>72.2058</ele>
        <time>2011-07-23T13:29:01Z</time>
      </trkpt>
      <trkpt lat="46.3098" lon="-0.32457">
        <ele>72.8169</ele>
        <time>2011-07-23T13:29:10Z</time>
      </trkpt>
      <trkpt lat="46.3098" lon="-0.32471">
        <ele>73.273</ele>
        <time>2011-07-23T13:29:18Z</time>
      </trkpt>
      <trkpt lat="46.30981" lon="-0.32486">
        <ele>73.5699</ele>
        <time>2011-07-23T13:29:25Z</time>
      </trkpt>
      <trkpt lat="46.30983" lon="-0.32499">
        <ele>73.8398</ele>
        <time>2011-07-23T13:29:32Z</time>
      </trkpt>
      <trkpt lat="46.30984" lon="-0.32512">
        <ele>74.1318</ele>
        <time>2011-07-23T13:29:40Z</time>
      </trkpt>
      <trkpt lat="46.30987" lon="-0.32526">
        <ele>74.2855</ele>
        <time>2011-07-23T13:29:49Z</time>
      </trkpt>
      <trkpt lat="46.30988" lon="-0.32539">
        <ele>74.2532</ele>
        <time>2011-07-23T13:29:56Z</time>
      </trkpt>
      <trkpt lat="46.30986" lon="-0.32553">
        <ele>74.1449</ele>
        <time>2011-07-23T13:30:03Z</time>
      </trkpt>
      <trkpt lat="46.30986" lon="-0.32566">
        <ele>74.104</ele>
        <time>2011-07-23T13:30:10Z</time>
      </trkpt>
      <trkpt lat="46.30987" lon="-0.32581">
        <ele>74.0621</ele>
        <time>2011-07-23T13:30:18Z</time>
      </trkpt>
      <trkpt lat="46.30986" lon="-0.32594">
        <ele>73.9382</ele>
        <time>2011-07-23T13:30:26Z</time>
      </trkpt>
      <trkpt lat="46.30985" lon="-0.32607">
        <ele>73.8368</ele>
        <time>2011-07-23T13:30:34Z</time>
      </trkpt>
      <trkpt lat="46.30983" lon="-0.32621">
        <ele>73.8338</ele>
        <time>2011-07-23T13:30:41Z</time>
      </trkpt>
      <trkpt lat="46.30982" lon="-0.32635">
        <ele>73.947</ele>
        <time>2011-07-23T13:30:49Z</time>
      </trkpt>
      <trkpt lat="46.30981" lon="-0.32648">
        <ele>74.0665</ele>
        <time>2011-07-23T13:30:57Z</time>
      </trkpt>
      <trkpt lat="46.30979" lon="-0.32661">
        <ele>74.2387</ele>
        <time>2011-07-23T13:31:04Z</time>
      </trkpt>
      <trkpt lat="46.30979" lon="-0.32675">
        <ele>74.4668</ele>
        <time>2011-07-23T13:31:13Z</time>
      </trkpt>
      <trkpt lat="46.30977" lon="-0.32688">
        <ele>74.6436</ele>
        <time>2011-07-23T13:31:20Z</time>
      </trkpt>
      <trkpt lat="46.30975" lon="-0.32701">
        <ele>74.8338</ele>
        <time>2011-07-23T13:31:27Z</time>
      </trkpt>
      <trkpt lat="46.30977" lon="-0.32717">
        <ele>75.0357</ele>
        <time>2011-07-23T13:31:35Z</time>
      </trkpt>
      <trkpt lat="46.30975" lon="-0.32731">
        <ele>74.6336</ele>
        <time>2011-07-23T13:31:43Z</time>
      </trkpt>
      <trkpt lat="46.30952" lon="-0.32829">
        <ele>66.3506</ele>
        <time>2011-07-23T13:32:47Z</time>
      </trkpt>
      <trkpt lat="46.30952" lon="-0.32831">
        <ele>66.2762</ele>
        <time>2011-07-23T13:32:48Z</time>
      </trkpt>
      <trkpt lat="46.30951" lon="-0.32832">
        <ele>66.2043</ele>
        <time>2011-07-23T13:32:49Z</time>
      </trkpt>
      <trkpt lat="46.30951" lon="-0.32834">
        <ele>66.1334</ele>
        <time>2011-07-23T13:32:50Z</time>
      </trkpt>
      <trkpt lat="46.30951" lon="-0.32835">
        <ele>66.0635</ele>
        <time>2011-07-23T13:32:51Z</time>
      </trkpt>
      <trkpt lat="46.3095" lon="-0.32837">
        <ele>65.9943</ele>
        <time>2011-07-23T13:32:52Z</time>
      </trkpt>
      <trkpt lat="46.30949" lon="-0.32838">
        <ele>65.9249</ele>
        <time>2011-07-23T13:32:53Z</time>
      </trkpt>
      <trkpt lat="46.30949" lon="-0.3284">
        <ele>65.8587</ele>
        <time>2011-07-23T13:32:54Z</time>
      </trkpt>
      <trkpt lat="46.30948" lon="-0.32842">
        <ele>65.7933</ele>
        <time>2011-07-23T13:32:55Z</time>
      </trkpt>
      <trkpt lat="46.30948" lon="-0.32844">
        <ele>65.7304</ele>
        <time>2011-07-23T13:32:56Z</time>
      </trkpt>
      <trkpt lat="46.30947" lon="-0.32846">
        <ele>65.6695</ele>
        <time>2011-07-23T13:32:57Z</time>
      </trkpt>
      <trkpt lat="46.30946" lon="-0.32847">
        <ele>65.6117</ele>
        <time>2011-07-23T13:32:58Z</time>
      </trkpt>
      <trkpt lat="46.30946" lon="-0.32849">
        <ele>65.5566</ele>
        <time>2011-07-23T13:32:59Z</time>
      </trkpt>
      <trkpt lat="46.30946" lon="-0.32851">
        <ele>65.5016</ele>
        <time>2011-07-23T13:33:00Z</time>
      </trkpt>
      <trkpt lat="46.30945" lon="-0.32853">
        <ele>65.4475</ele>
        <time>2011-07-23T13:33:01Z</time>
      </trkpt>
      <trkpt lat="46.30944" lon="-0.32855">
        <ele>65.3895</ele>
        <time>2011-07-23T13:33:02Z</time>
      </trkpt>
      <trkpt lat="46.30943" lon="-0.32857">
        <ele>65.3338</ele>
        <time>2011-07-23T13:33:03Z</time>
      </trkpt>
      <trkpt lat="46.30943" lon="-0.3286">
        <ele>65.2813</ele>
        <time>2011-07-23T13:33:04Z</time>
      </trkpt>
      <trkpt lat="46.30942" lon="-0.32862">
        <ele>65.231</ele>
        <time>2011-07-23T13:33:05Z</time>
      </trkpt>
      <trkpt lat="46.30942" lon="-0.32863">
        <ele>65.1826</ele>
        <time>2011-07-23T13:33:06Z</time>
      </trkpt>
      <trkpt lat="46.30941" lon="-0.32865">
        <ele>65.1362</ele>
        <time>2011-07-23T13:33:07Z</time>
      </trkpt>
      <trkpt lat="46.30941" lon="-0.32867">
        <ele>65.0905</ele>
        <time>2011-07-23T13:33:08Z</time>
      </trkpt>
      <trkpt lat="46.3094" lon="-0.32869">
        <ele>65.0476</ele>
        <time>2011-07-23T13:33:09Z</time>
      </trkpt>
      <trkpt lat="46.3094" lon="-0.32871">
        <ele>65.0054</ele>
        <time>2011-07-23T13:33:10Z</time>
      </trkpt>
      <trkpt lat="46.3094" lon="-0.32873">
        <ele>64.967</ele>
        <time>2011-07-23T13:33:11Z</time>
      </trkpt>
      <trkpt lat="46.30939" lon="-0.32875">
        <ele>64.9287</ele>
        <time>2011-07-23T13:33:12Z</time>
      </trkpt>
      <trkpt lat="46.30939" lon="-0.32877">
        <ele>64.8916</ele>
        <time>2011-07-23T13:33:13Z</time>
      </trkpt>
      <trkpt lat="46.30939" lon="-0.32879">
        <ele>64.857</ele>
        <time>2011-07-23T13:33:14Z</time>
      </trkpt>
      <trkpt lat="46.30938" lon="-0.32881">
        <ele>64.8239</ele>
        <time>2011-07-23T13:33:15Z</time>
      </trkpt>
      <trkpt lat="46.30938" lon="-0.32882">
        <ele>64.7923</ele>
        <time>2011-07-23T13:33:16Z</time>
      </trkpt>
      <trkpt lat="46.30938" lon="-0.32883">
        <ele>64.7622</ele>
        <time>2011-07-23T13:33:17Z</time>
      </trkpt>
      <trkpt lat="46.30938" lon="-0.32885">
        <ele>64.7324</ele>
        <time>2011-07-23T13:33:18Z</time>
      </trkpt>
      <trkpt lat="46.30938" lon="-0.32887">
        <ele>64.7033</ele>
        <time>2011-07-23T13:33:19Z</time>
      </trkpt>
      <trkpt lat="46.30938" lon="-0.32888">
        <ele>64.6763</ele>
        <time>2011-07-23T13:33:20Z</time>
      </trkpt>
      <trkpt lat="46.30938" lon="-0.3289">
        <ele>64.6498</ele>
        <time>2011-07-23T13:33:21Z</time>
      </trkpt>
      <trkpt lat="46.30938" lon="-0.32892">
        <ele>64.6254</ele>
        <time>2011-07-23T13:33:22Z</time>
      </trkpt>
      <trkpt lat="46.30938" lon="-0.32893">
        <ele>64.6009</ele>
        <time>2011-07-23T13:33:23Z</time>
      </trkpt>
      <trkpt lat="46.30937" lon="-0.32895">
        <ele>64.5782</ele>
        <time>2011-07-23T13:33:24Z</time>
      </trkpt>
      <trkpt lat="46.30937" lon="-0.32896">
        <ele>64.559</ele>
        <time>2011-07-23T13:33:25Z</time>
      </trkpt>
      <trkpt lat="46.30937" lon="-0.32897">
        <ele>64.5409</ele>
        <time>2011-07-23T13:33:26Z</time>
      </trkpt>
      <trkpt lat="46.30937" lon="-0.32899">
        <ele>64.5226</ele>
        <time>2011-07-23T13:33:27Z</time>
      </trkpt>
      <trkpt lat="46.30937" lon="-0.329">
        <ele>64.5015</ele>
        <time>2011-07-23T13:33:28Z</time>
      </trkpt>
      <trkpt lat="46.30937" lon="-0.32902">
        <ele>64.4805</ele>
        <time>2011-07-23T13:33:29Z</time>
      </trkpt>
      <trkpt lat="46.30937" lon="-0.32903">
        <ele>64.4644</ele>
        <time>2011-07-23T13:33:30Z</time>
      </trkpt>
      <trkpt lat="46.30937" lon="-0.32905">
        <ele>64.4558</ele>
        <time>2011-07-23T13:33:31Z</time>
      </trkpt>
      <trkpt lat="46.30936" lon="-0.32906">
        <ele>64.4485</ele>
        <time>2011-07-23T13:33:32Z</time>
      </trkpt>
      <trkpt lat="46.30937" lon="-0.32908">
        <ele>64.4399</ele>
        <time>2011-07-23T13:33:33Z</time>
      </trkpt>
      <trkpt lat="46.30937" lon="-0.3291">
        <ele>64.4322</ele>
        <time>2011-07-23T13:33:34Z</time>
      </trkpt>
      <trkpt lat="46.30937" lon="-0.32911">
        <ele>64.425</ele>
        <time>2011-07-23T13:33:35Z</time>
      </trkpt>
      <trkpt lat="46.30937" lon="-0.32913">
        <ele>64.4202</ele>
        <time>2011-07-23T13:33:36Z</time>
      </trkpt>
      <trkpt lat="46.30937" lon="-0.32914">
        <ele>64.4169</ele>
        <time>2011-07-23T13:33:37Z</time>
      </trkpt>
      <trkpt lat="46.30938" lon="-0.32915">
        <ele>64.4204</ele>
        <time>2011-07-23T13:33:38Z</time>
      </trkpt>
      <trkpt lat="46.30938" lon="-0.32917">
        <ele>64.4305</ele>
        <time>2011-07-23T13:33:39Z</time>
      </trkpt>
      <trkpt lat="46.30938" lon="-0.32918">
        <ele>64.4414</ele>
        <time>2011-07-23T13:33:40Z</time>
      </trkpt>
      <trkpt lat="46.30938" lon="-0.3292">
        <ele>64.4545</ele>
        <time>2011-07-23T13:33:41Z</time>
      </trkpt>
      <trkpt lat="46.30938" lon="-0.32921">
        <ele>64.4683</ele>
        <time>2011-07-23T13:33:42Z</time>
      </trkpt>
      <trkpt lat="46.30938" lon="-0.32922">
        <ele>64.4819</ele>
        <time>2011-07-23T13:33:43Z</time>
      </trkpt>
      <trkpt lat="46.30938" lon="-0.32923">
        <ele>64.4954</ele>
        <time>2011-07-23T13:33:44Z</time>
      </trkpt>
      <trkpt lat="46.30938" lon="-0.32924">
        <ele>64.5106</ele>
        <time>2011-07-23T13:33:45Z</time>
      </trkpt>
      <trkpt lat="46.30939" lon="-0.32926">
        <ele>64.5276</ele>
        <time>2011-07-23T13:33:46Z</time>
      </trkpt>
      <trkpt lat="46.30939" lon="-0.32927">
        <ele>64.5493</ele>
        <time>2011-07-23T13:33:47Z</time>
      </trkpt>
      <trkpt lat="46.3094" lon="-0.32929">
        <ele>64.5725</ele>
        <time>2011-07-23T13:33:48Z</time>
      </trkpt>
      <trkpt lat="46.3094" lon="-0.3293">
        <ele>64.595</ele>
        <time>2011-07-23T13:33:49Z</time>
      </trkpt>
      <trkpt lat="46.3094" lon="-0.32932">
        <ele>64.6327</ele>
        <time>2011-07-23T13:33:50Z</time>
      </trkpt>
      <trkpt lat="46.30941" lon="-0.32933">
        <ele>64.6699</ele>
        <time>2011-07-23T13:33:51Z</time>
      </trkpt>
      <trkpt lat="46.30941" lon="-0.32934">
        <ele>64.7042</ele>
        <time>2011-07-23T13:33:52Z</time>
      </trkpt>
      <trkpt lat="46.30942" lon="-0.32936">
        <ele>64.7376</ele>
        <time>2011-07-23T13:33:53Z</time>
      </trkpt>
      <trkpt lat="46.30942" lon="-0.32937">
        <ele>64.7754</ele>
        <time>2011-07-23T13:33:54Z</time>
      </trkpt>
      <trkpt lat="46.30942" lon="-0.32938">
        <ele>64.8131</ele>
        <time>2011-07-23T13:33:55Z</time>
      </trkpt>
      <trkpt lat="46.30943" lon="-0.3294">
        <ele>64.8484</ele>
        <time>2011-07-23T13:33:56Z</time>
      </trkpt>
      <trkpt lat="46.30943" lon="-0.32941">
        <ele>64.8881</ele>
        <time>2011-07-23T13:33:57Z</time>
      </trkpt>
      <trkpt lat="46.30943" lon="-0.32943">
        <ele>64.9357</ele>
        <time>2011-07-23T13:33:58Z</time>
      </trkpt>
      <trkpt lat="46.30943" lon="-0.32944">
        <ele>64.9785</ele>
        <time>2011-07-23T13:33:59Z</time>
      </trkpt>
      <trkpt lat="46.30943" lon="-0.32946">
        <ele>65.0218</ele>
        <time>2011-07-23T13:34:00Z</time>
      </trkpt>
      <trkpt lat="46.30944" lon="-0.32948">
        <ele>65.0588</ele>
        <time>2011-07-23T13:34:01Z</time>
      </trkpt>
      <trkpt lat="46.30944" lon="-0.3295">
        <ele>65.089</ele>
        <time>2011-07-23T13:34:02Z</time>
      </trkpt>
      <trkpt lat="46.30944" lon="-0.32952">
        <ele>65.1174</ele>
        <time>2011-07-23T13:34:03Z</time>
      </trkpt>
      <trkpt lat="46.30944" lon="-0.32953">
        <ele>65.146</ele>
        <time>2011-07-23T13:34:04Z</time>
      </trkpt>
      <trkpt lat="46.30944" lon="-0.32955">
        <ele>65.1734</ele>
        <time>2011-07-23T13:34:05Z</time>
      </trkpt>
      <trkpt lat="46.30944" lon="-0.32957">
        <ele>65.2001</ele>
        <time>2011-07-23T13:34:06Z</time>
      </trkpt>
      <trkpt lat="46.30944" lon="-0.32959">
        <ele>65.2255</ele>
        <time>2011-07-23T13:34:07Z</time>
      </trkpt>
      <trkpt lat="46.30944" lon="-0.32962">
        <ele>65.2516</ele>
        <time>2011-07-23T13:34:08Z</time>
      </trkpt>
      <trkpt lat="46.30945" lon="-0.32964">
        <ele>65.275</ele>
        <time>2011-07-23T13:34:09Z</time>
      </trkpt>
      <trkpt lat="46.30945" lon="-0.32966">
        <ele>65.2994</ele>
        <time>2011-07-23T13:34:10Z</time>
      </trkpt>
      <trkpt lat="46.30945" lon="-0.32967">
        <ele>65.3299</ele>
        <time>2011-07-23T13:34:11Z</time>
      </trkpt>
      <trkpt lat="46.30946" lon="-0.32969">
        <ele>65.355</ele>
        <time>2011-07-23T13:34:12Z</time>
      </trkpt>
      <trkpt lat="46.30946" lon="-0.32971">
        <ele>65.3748</ele>
        <time>2011-07-23T13:34:13Z</time>
      </trkpt>
      <trkpt lat="46.30946" lon="-0.32972">
        <ele>65.3937</ele>
        <time>2011-07-23T13:34:14Z</time>
      </trkpt>
      <trkpt lat="46.30946" lon="-0.32974">
        <ele>65.4123</ele>
        <time>2011-07-23T13:34:15Z</time>
      </trkpt>
      <trkpt lat="46.30946" lon="-0.32976">
        <ele>65.4311</ele>
        <time>2011-07-23T13:34:16Z</time>
      </trkpt>
      <trkpt lat="46.30946" lon="-0.32977">
        <ele>65.4512</ele>
        <time>2011-07-23T13:34:17Z</time>
      </trkpt>
      <trkpt lat="46.30946" lon="-0.32979">
        <ele>65.4675</ele>
        <time>2011-07-23T13:34:18Z</time>
      </trkpt>
      <trkpt lat="46.30946" lon="-0.3298">
        <ele>65.4837</ele>
        <time>2011-07-23T13:34:19Z</time>
      </trkpt>
      <trkpt lat="46.30947" lon="-0.32982">
        <ele>65.4939</ele>
        <time>2011-07-23T13:34:20Z</time>
      </trkpt>
      <trkpt lat="46.30947" lon="-0.32984">
        <ele>65.5037</ele>
        <time>2011-07-23T13:34:21Z</time>
      </trkpt>
      <trkpt lat="46.30947" lon="-0.32986">
        <ele>65.5117</ele>
        <time>2011-07-23T13:34:22Z</time>
      </trkpt>
      <trkpt lat="46.30948" lon="-0.32988">
        <ele>65.5191</ele>
        <time>2011-07-23T13:34:23Z</time>
      </trkpt>
      <trkpt lat="46.30948" lon="-0.32989">
        <ele>65.5262</ele>
        <time>2011-07-23T13:34:24Z</time>
      </trkpt>
      <trkpt lat="46.30949" lon="-0.32991">
        <ele>65.522</ele>
        <time>2011-07-23T13:34:25Z</time>
      </trkpt>
      <trkpt lat="46.30949" lon="-0.32993">
        <ele>65.5183</ele>
        <time>2011-07-23T13:34:26Z</time>
      </trkpt>
      <trkpt lat="46.3095" lon="-0.32996">
        <ele>65.5068</ele>
        <time>2011-07-23T13:34:27Z</time>
      </trkpt>
      <trkpt lat="46.3095" lon="-0.32998">
        <ele>65.4943</ele>
        <time>2011-07-23T13:34:28Z</time>
      </trkpt>
      <trkpt lat="46.30951" lon="-0.33">
        <ele>65.484</ele>
        <time>2011-07-23T13:34:29Z</time>
      </trkpt>
      <trkpt lat="46.30951" lon="-0.33002">
        <ele>65.4747</ele>
        <time>2011-07-23T13:34:30Z</time>
      </trkpt>
      <trkpt lat="46.30951" lon="-0.33004">
        <ele>65.4653</ele>
        <time>2011-07-23T13:34:31Z</time>
      </trkpt>
      <trkpt lat="46.30952" lon="-0.33006">
        <ele>65.4537</ele>
        <time>2011-07-23T13:34:32Z</time>
      </trkpt>
      <trkpt lat="46.30952" lon="-0.33008">
        <ele>65.4408</ele>
        <time>2011-07-23T13:34:33Z</time>
      </trkpt>
      <trkpt lat="46.30952" lon="-0.3301">
        <ele>65.4295</ele>
        <time>2011-07-23T13:34:34Z</time>
      </trkpt>
      <trkpt lat="46.30952" lon="-0.33012">
        <ele>65.4205</ele>
        <time>2011-07-23T13:34:35Z</time>
      </trkpt>
      <trkpt lat="46.30953" lon="-0.33014">
        <ele>65.4133</ele>
        <time>2011-07-23T13:34:36Z</time>
      </trkpt>
      <trkpt lat="46.30953" lon="-0.33015">
        <ele>65.4073</ele>
        <time>2011-07-23T13:34:37Z</time>
      </trkpt>
      <trkpt lat="46.30952" lon="-0.33017">
        <ele>65.4018</ele>
        <time>2011-07-23T13:34:38Z</time>
      </trkpt>
      <trkpt lat="46.30952" lon="-0.33019">
        <ele>65.3961</ele>
        <time>2011-07-23T13:34:39Z</time>
      </trkpt>
      <trkpt lat="46.30951" lon="-0.3302">
        <ele>65.3897</ele>
        <time>2011-07-23T13:34:40Z</time>
      </trkpt>
      <trkpt lat="46.30951" lon="-0.33022">
        <ele>65.3838</ele>
        <time>2011-07-23T13:34:41Z</time>
      </trkpt>
      <trkpt lat="46.30951" lon="-0.33024">
        <ele>65.3794</ele>
        <time>2011-07-23T13:34:42Z</time>
      </trkpt>
      <trkpt lat="46.3095" lon="-0.33026">
        <ele>65.377</ele>
        <time>2011-07-23T13:34:43Z</time>
      </trkpt>
      <trkpt lat="46.3095" lon="-0.33027">
        <ele>65.3759</ele>
        <time>2011-07-23T13:34:44Z</time>
      </trkpt>
      <trkpt lat="46.30949" lon="-0.33029">
        <ele>65.378</ele>
        <time>2011-07-23T13:34:45Z</time>
      </trkpt>
      <trkpt lat="46.30949" lon="-0.3303">
        <ele>65.3831</ele>
        <time>2011-07-23T13:34:46Z</time>
      </trkpt>
      <trkpt lat="46.30949" lon="-0.33031">
        <ele>65.3865</ele>
        <time>2011-07-23T13:34:47Z</time>
      </trkpt>
      <trkpt lat="46.30948" lon="-0.33033">
        <ele>65.391</ele>
        <time>2011-07-23T13:34:48Z</time>
      </trkpt>
      <trkpt lat="46.30948" lon="-0.33034">
        <ele>65.3951</ele>
        <time>2011-07-23T13:34:49Z</time>
      </trkpt>
      <trkpt lat="46.30948" lon="-0.33036">
        <ele>65.4001</ele>
        <time>2011-07-23T13:34:50Z</time>
      </trkpt>
      <trkpt lat="46.30948" lon="-0.33038">
        <ele>65.4077</ele>
        <time>2011-07-23T13:34:51Z</time>
      </trkpt>
      <trkpt lat="46.30948" lon="-0.33039">
        <ele>65.4159</ele>
        <time>2011-07-23T13:34:52Z</time>
      </trkpt>
      <trkpt lat="46.30947" lon="-0.33041">
        <ele>65.4291</ele>
        <time>2011-07-23T13:34:53Z</time>
      </trkpt>
      <trkpt lat="46.30946" lon="-0.33043">
        <ele>65.4291</ele>
        <time>2011-07-23T13:34:54Z</time>
      </trkpt>
      <trkpt lat="46.30947" lon="-0.33044">
        <ele>65.4406</ele>
        <time>2011-07-23T13:34:55Z</time>
      </trkpt>
      <trkpt lat="46.30947" lon="-0.33046">
        <ele>65.4481</ele>
        <time>2011-07-23T13:34:56Z</time>
      </trkpt>
      <trkpt lat="46.30946" lon="-0.33048">
        <ele>65.4578</ele>
        <time>2011-07-23T13:34:57Z</time>
      </trkpt>
      <trkpt lat="46.30946" lon="-0.3305">
        <ele>65.4641</ele>
        <time>2011-07-23T13:34:58Z</time>
      </trkpt>
      <trkpt lat="46.30945" lon="-0.33052">
        <ele>65.4669</ele>
        <time>2011-07-23T13:34:59Z</time>
      </trkpt>
      <trkpt lat="46.30945" lon="-0.33053">
        <ele>65.455</ele>
        <time>2011-07-23T13:35:00Z</time>
      </trkpt>
      <trkpt lat="46.30944" lon="-0.33055">
        <ele>65.4304</ele>
        <time>2011-07-23T13:35:01Z</time>
      </trkpt>
      <trkpt lat="46.30944" lon="-0.33057">
        <ele>65.3913</ele>
        <time>2011-07-23T13:35:02Z</time>
      </trkpt>
      <trkpt lat="46.30943" lon="-0.33059">
        <ele>65.3558</ele>
        <time>2011-07-23T13:35:03Z</time>
      </trkpt>
      <trkpt lat="46.30942" lon="-0.33061">
        <ele>65.3255</ele>
        <time>2011-07-23T13:35:04Z</time>
      </trkpt>
      <trkpt lat="46.30941" lon="-0.33063">
        <ele>65.2891</ele>
        <time>2011-07-23T13:35:05Z</time>
      </trkpt>
      <trkpt lat="46.30941" lon="-0.33064">
        <ele>65.2478</ele>
        <time>2011-07-23T13:35:06Z</time>
      </trkpt>
      <trkpt lat="46.3094" lon="-0.33066">
        <ele>65.2085</ele>
        <time>2011-07-23T13:35:07Z</time>
      </trkpt>
      <trkpt lat="46.30939" lon="-0.33067">
        <ele>65.1701</ele>
        <time>2011-07-23T13:35:08Z</time>
      </trkpt>
      <trkpt lat="46.30938" lon="-0.33069">
        <ele>65.1326</ele>
        <time>2011-07-23T13:35:09Z</time>
      </trkpt>
      <trkpt lat="46.30938" lon="-0.3307">
        <ele>65.0926</ele>
        <time>2011-07-23T13:35:10Z</time>
      </trkpt>
      <trkpt lat="46.30938" lon="-0.33072">
        <ele>65.0514</ele>
        <time>2011-07-23T13:35:11Z</time>
      </trkpt>
      <trkpt lat="46.30937" lon="-0.33073">
        <ele>65.0168</ele>
        <time>2011-07-23T13:35:12Z</time>
      </trkpt>
      <trkpt lat="46.30936" lon="-0.33075">
        <ele>64.9865</ele>
        <time>2011-07-23T13:35:13Z</time>
      </trkpt>
      <trkpt lat="46.30935" lon="-0.33077">
        <ele>64.9601</ele>
        <time>2011-07-23T13:35:14Z</time>
      </trkpt>
      <trkpt lat="46.30935" lon="-0.33079">
        <ele>64.9418</ele>
        <time>2011-07-23T13:35:15Z</time>
      </trkpt>
      <trkpt lat="46.30934" lon="-0.33081">
        <ele>64.923</ele>
        <time>2011-07-23T13:35:16Z</time>
      </trkpt>
      <trkpt lat="46.30934" lon="-0.33082">
        <ele>64.9066</ele>
        <time>2011-07-23T13:35:17Z</time>
      </trkpt>
      <trkpt lat="46.30933" lon="-0.33084">
        <ele>64.8925</ele>
        <time>2011-07-23T13:35:18Z</time>
      </trkpt>
      <trkpt lat="46.30933" lon="-0.33085">
        <ele>64.8773</ele>
        <time>2011-07-23T13:35:19Z</time>
      </trkpt>
      <trkpt lat="46.30933" lon="-0.33087">
        <ele>64.8629</ele>
        <time>2011-07-23T13:35:20Z</time>
      </trkpt>
      <trkpt lat="46.30932" lon="-0.33089">
        <ele>64.8533</ele>
        <time>2011-07-23T13:35:21Z</time>
      </trkpt>
      <trkpt lat="46.30932" lon="-0.3309">
        <ele>64.8433</ele>
        <time>2011-07-23T13:35:22Z</time>
      </trkpt>
      <trkpt lat="46.30931" lon="-0.33092">
        <ele>64.8345</ele>
        <time>2011-07-23T13:35:23Z</time>
      </trkpt>
      <trkpt lat="46.3093" lon="-0.33094">
        <ele>64.8282</ele>
        <time>2011-07-23T13:35:24Z</time>
      </trkpt>
      <trkpt lat="46.3093" lon="-0.33095">
        <ele>64.8198</ele>
        <time>2011-07-23T13:35:25Z</time>
      </trkpt>
      <trkpt lat="46.30929" lon="-0.33097">
        <ele>64.8107</ele>
        <time>2011-07-23T13:35:26Z</time>
      </trkpt>
      <trkpt lat="46.30929" lon="-0.33098">
        <ele>64.7948</ele>
        <time>2011-07-23T13:35:27Z</time>
      </trkpt>
      <trkpt lat="46.30928" lon="-0.33099">
        <ele>64.7799</ele>
        <time>2011-07-23T13:35:28Z</time>
      </trkpt>
      <trkpt lat="46.30928" lon="-0.33101">
        <ele>64.7651</ele>
        <time>2011-07-23T13:35:29Z</time>
      </trkpt>
      <trkpt lat="46.30927" lon="-0.33102">
        <ele>64.7512</ele>
        <time>2011-07-23T13:35:30Z</time>
      </trkpt>
      <trkpt lat="46.30927" lon="-0.33104">
        <ele>64.7395</ele>
        <time>2011-07-23T13:35:31Z</time>
      </trkpt>
      <trkpt lat="46.30926" lon="-0.33105">
        <ele>64.7333</ele>
        <time>2011-07-23T13:35:32Z</time>
      </trkpt>
      <trkpt lat="46.30925" lon="-0.33107">
        <ele>64.7351</ele>
        <time>2011-07-23T13:35:33Z</time>
      </trkpt>
      <trkpt lat="46.30925" lon="-0.33109">
        <ele>64.7414</ele>
        <time>2011-07-23T13:35:34Z</time>
      </trkpt>
      <trkpt lat="46.30924" lon="-0.33111">
        <ele>64.7507</ele>
        <time>2011-07-23T13:35:35Z</time>
      </trkpt>
      <trkpt lat="46.30924" lon="-0.33112">
        <ele>64.7671</ele>
        <time>2011-07-23T13:35:36Z</time>
      </trkpt>
      <trkpt lat="46.30923" lon="-0.33114">
        <ele>64.7883</ele>
        <time>2011-07-23T13:35:37Z</time>
      </trkpt>
      <trkpt lat="46.30923" lon="-0.33115">
        <ele>64.809</ele>
        <time>2011-07-23T13:35:38Z</time>
      </trkpt>
      <trkpt lat="46.30922" lon="-0.33117">
        <ele>64.8298</ele>
        <time>2011-07-23T13:35:39Z</time>
      </trkpt>
      <trkpt lat="46.30922" lon="-0.33119">
        <ele>64.8522</ele>
        <time>2011-07-23T13:35:40Z</time>
      </trkpt>
      <trkpt lat="46.30922" lon="-0.3312">
        <ele>64.8729</ele>
        <time>2011-07-23T13:35:41Z</time>
      </trkpt>
      <trkpt lat="46.30922" lon="-0.33121">
        <ele>64.8944</ele>
        <time>2011-07-23T13:35:42Z</time>
      </trkpt>
      <trkpt lat="46.30922" lon="-0.33123">
        <ele>64.9151</ele>
        <time>2011-07-23T13:35:43Z</time>
      </trkpt>
      <trkpt lat="46.30921" lon="-0.33125">
        <ele>64.9442</ele>
        <time>2011-07-23T13:35:44Z</time>
      </trkpt>
      <trkpt lat="46.3092" lon="-0.33128">
        <ele>64.9815</ele>
        <time>2011-07-23T13:35:45Z</time>
      </trkpt>
      <trkpt lat="46.3092" lon="-0.3313">
        <ele>64.9815</ele>
        <time>2011-07-23T13:35:46Z</time>
      </trkpt>
      <trkpt lat="46.30919" lon="-0.33131">
        <ele>65.0094</ele>
        <time>2011-07-23T13:35:47Z</time>
      </trkpt>
      <trkpt lat="46.30919" lon="-0.33133">
        <ele>65.026</ele>
        <time>2011-07-23T13:35:48Z</time>
      </trkpt>
      <trkpt lat="46.30918" lon="-0.33134">
        <ele>65.0421</ele>
        <time>2011-07-23T13:35:49Z</time>
      </trkpt>
      <trkpt lat="46.30917" lon="-0.33136">
        <ele>65.0555</ele>
        <time>2011-07-23T13:35:50Z</time>
      </trkpt>
      <trkpt lat="46.30917" lon="-0.33137">
        <ele>65.0728</ele>
        <time>2011-07-23T13:35:51Z</time>
      </trkpt>
      <trkpt lat="46.30916" lon="-0.33138">
        <ele>65.0889</ele>
        <time>2011-07-23T13:35:52Z</time>
      </trkpt>
      <trkpt lat="46.30916" lon="-0.3314">
        <ele>65.0978</ele>
        <time>2011-07-23T13:35:53Z</time>
      </trkpt>
      <trkpt lat="46.30915" lon="-0.33141">
        <ele>65.0956</ele>
        <time>2011-07-23T13:35:54Z</time>
      </trkpt>
      <trkpt lat="46.30915" lon="-0.33142">
        <ele>65.0944</ele>
        <time>2011-07-23T13:35:55Z</time>
      </trkpt>
      <trkpt lat="46.30914" lon="-0.33143">
        <ele>65.0932</ele>
        <time>2011-07-23T13:35:56Z</time>
      </trkpt>
      <trkpt lat="46.30914" lon="-0.33145">
        <ele>65.0954</ele>
        <time>2011-07-23T13:35:57Z</time>
      </trkpt>
      <trkpt lat="46.30914" lon="-0.33146">
        <ele>65.0972</ele>
        <time>2011-07-23T13:35:58Z</time>
      </trkpt>
      <trkpt lat="46.30914" lon="-0.33147">
        <ele>65.0948</ele>
        <time>2011-07-23T13:35:59Z</time>
      </trkpt>
      <trkpt lat="46.30913" lon="-0.33149">
        <ele>65.0936</ele>
        <time>2011-07-23T13:36:00Z</time>
      </trkpt>
      <trkpt lat="46.30912" lon="-0.3315">
        <ele>65.0971</ele>
        <time>2011-07-23T13:36:01Z</time>
      </trkpt>
      <trkpt lat="46.30911" lon="-0.33152">
        <ele>65.096</ele>
        <time>2011-07-23T13:36:02Z</time>
      </trkpt>
      <trkpt lat="46.30911" lon="-0.33154">
        <ele>65.0842</ele>
        <time>2011-07-23T13:36:03Z</time>
      </trkpt>
      <trkpt lat="46.3091" lon="-0.33155">
        <ele>65.068</ele>
        <time>2011-07-23T13:36:04Z</time>
      </trkpt>
      <trkpt lat="46.30909" lon="-0.33156">
        <ele>65.0514</ele>
        <time>2011-07-23T13:36:05Z</time>
      </trkpt>
      <trkpt lat="46.30909" lon="-0.33158">
        <ele>65.0357</ele>
        <time>2011-07-23T13:36:06Z</time>
      </trkpt>
      <trkpt lat="46.30908" lon="-0.33159">
        <ele>65.0208</ele>
        <time>2011-07-23T13:36:07Z</time>
      </trkpt>
      <trkpt lat="46.30907" lon="-0.33161">
        <ele>65.0073</ele>
        <time>2011-07-23T13:36:08Z</time>
      </trkpt>
      <trkpt lat="46.30907" lon="-0.33162">
        <ele>64.9907</ele>
        <time>2011-07-23T13:36:09Z</time>
      </trkpt>
      <trkpt lat="46.30907" lon="-0.33164">
        <ele>64.9738</ele>
        <time>2011-07-23T13:36:10Z</time>
      </trkpt>
      <trkpt lat="46.30906" lon="-0.33165">
        <ele>64.9574</ele>
        <time>2011-07-23T13:36:11Z</time>
      </trkpt>
      <trkpt lat="46.30906" lon="-0.33167">
        <ele>64.9426</ele>
        <time>2011-07-23T13:36:12Z</time>
      </trkpt>
      <trkpt lat="46.30905" lon="-0.33168">
        <ele>64.9251</ele>
        <time>2011-07-23T13:36:13Z</time>
      </trkpt>
      <trkpt lat="46.30904" lon="-0.33169">
        <ele>64.9076</ele>
        <time>2011-07-23T13:36:14Z</time>
      </trkpt>
      <trkpt lat="46.30904" lon="-0.33171">
        <ele>64.8925</ele>
        <time>2011-07-23T13:36:15Z</time>
      </trkpt>
      <trkpt lat="46.30903" lon="-0.33172">
        <ele>64.8798</ele>
        <time>2011-07-23T13:36:16Z</time>
      </trkpt>
      <trkpt lat="46.30903" lon="-0.33173">
        <ele>64.8674</ele>
        <time>2011-07-23T13:36:17Z</time>
      </trkpt>
      <trkpt lat="46.30902" lon="-0.33174">
        <ele>64.8544</ele>
        <time>2011-07-23T13:36:18Z</time>
      </trkpt>
      <trkpt lat="46.30901" lon="-0.33176">
        <ele>64.8416</ele>
        <time>2011-07-23T13:36:19Z</time>
      </trkpt>
      <trkpt lat="46.30901" lon="-0.33177">
        <ele>64.8268</ele>
        <time>2011-07-23T13:36:20Z</time>
      </trkpt>
      <trkpt lat="46.30899" lon="-0.33178">
        <ele>64.8113</ele>
        <time>2011-07-23T13:36:21Z</time>
      </trkpt>
      <trkpt lat="46.30899" lon="-0.33179">
        <ele>64.7957</ele>
        <time>2011-07-23T13:36:22Z</time>
      </trkpt>
      <trkpt lat="46.30898" lon="-0.33181">
        <ele>64.7807</ele>
        <time>2011-07-23T13:36:23Z</time>
      </trkpt>
      <trkpt lat="46.30897" lon="-0.33182">
        <ele>64.7645</ele>
        <time>2011-07-23T13:36:24Z</time>
      </trkpt>
      <trkpt lat="46.30896" lon="-0.33184">
        <ele>64.7474</ele>
        <time>2011-07-23T13:36:25Z</time>
      </trkpt>
      <trkpt lat="46.30895" lon="-0.33186">
        <ele>64.7298</ele>
        <time>2011-07-23T13:36:26Z</time>
      </trkpt>
      <trkpt lat="46.30895" lon="-0.33188">
        <ele>64.7115</ele>
        <time>2011-07-23T13:36:27Z</time>
      </trkpt>
      <trkpt lat="46.30893" lon="-0.33189">
        <ele>64.6943</ele>
        <time>2011-07-23T13:36:28Z</time>
      </trkpt>
      <trkpt lat="46.30893" lon="-0.3319">
        <ele>64.6772</ele>
        <time>2011-07-23T13:36:29Z</time>
      </trkpt>
      <trkpt lat="46.30892" lon="-0.33192">
        <ele>64.6622</ele>
        <time>2011-07-23T13:36:30Z</time>
      </trkpt>
      <trkpt lat="46.30891" lon="-0.33193">
        <ele>64.6478</ele>
        <time>2011-07-23T13:36:31Z</time>
      </trkpt>
      <trkpt lat="46.30891" lon="-0.33194">
        <ele>64.6313</ele>
        <time>2011-07-23T13:36:32Z</time>
      </trkpt>
      <trkpt lat="46.3089" lon="-0.33196">
        <ele>64.6137</ele>
        <time>2011-07-23T13:36:33Z</time>
      </trkpt>
      <trkpt lat="46.3089" lon="-0.33198">
        <ele>64.5904</ele>
        <time>2011-07-23T13:36:34Z</time>
      </trkpt>
      <trkpt lat="46.3089" lon="-0.332">
        <ele>64.5621</ele>
        <time>2011-07-23T13:36:35Z</time>
      </trkpt>
      <trkpt lat="46.3089" lon="-0.33202">
        <ele>64.5313</ele>
        <time>2011-07-23T13:36:36Z</time>
      </trkpt>
      <trkpt lat="46.3089" lon="-0.33204">
        <ele>64.5035</ele>
        <time>2011-07-23T13:36:37Z</time>
      </trkpt>
      <trkpt lat="46.3089" lon="-0.33205">
        <ele>64.4773</ele>
        <time>2011-07-23T13:36:38Z</time>
      </trkpt>
      <trkpt lat="46.3089" lon="-0.33207">
        <ele>64.453</ele>
        <time>2011-07-23T13:36:39Z</time>
      </trkpt>
      <trkpt lat="46.30889" lon="-0.33209">
        <ele>64.4297</ele>
        <time>2011-07-23T13:36:40Z</time>
      </trkpt>
      <trkpt lat="46.30889" lon="-0.33211">
        <ele>64.4105</ele>
        <time>2011-07-23T13:36:41Z</time>
      </trkpt>
      <trkpt lat="46.30888" lon="-0.33213">
        <ele>64.3894</ele>
        <time>2011-07-23T13:36:42Z</time>
      </trkpt>
      <trkpt lat="46.30888" lon="-0.33215">
        <ele>64.3713</ele>
        <time>2011-07-23T13:36:43Z</time>
      </trkpt>
      <trkpt lat="46.30888" lon="-0.33217">
        <ele>64.3529</ele>
        <time>2011-07-23T13:36:44Z</time>
      </trkpt>
      <trkpt lat="46.30887" lon="-0.33218">
        <ele>64.3352</ele>
        <time>2011-07-23T13:36:45Z</time>
      </trkpt>
      <trkpt lat="46.30887" lon="-0.3322">
        <ele>64.317</ele>
        <time>2011-07-23T13:36:46Z</time>
      </trkpt>
      <trkpt lat="46.30887" lon="-0.33222">
        <ele>64.3002</ele>
        <time>2011-07-23T13:36:47Z</time>
      </trkpt>
      <trkpt lat="46.30886" lon="-0.33224">
        <ele>64.2843</ele>
        <time>2011-07-23T13:36:48Z</time>
      </trkpt>
      <trkpt lat="46.30886" lon="-0.33226">
        <ele>64.2681</ele>
        <time>2011-07-23T13:36:49Z</time>
      </trkpt>
      <trkpt lat="46.30885" lon="-0.33228">
        <ele>64.2545</ele>
        <time>2011-07-23T13:36:50Z</time>
      </trkpt>
      <trkpt lat="46.30885" lon="-0.3323">
        <ele>64.2404</ele>
        <time>2011-07-23T13:36:51Z</time>
      </trkpt>
      <trkpt lat="46.30885" lon="-0.33233">
        <ele>64.2277</ele>
        <time>2011-07-23T13:36:52Z</time>
      </trkpt>
      <trkpt lat="46.30885" lon="-0.33235">
        <ele>64.2172</ele>
        <time>2011-07-23T13:36:53Z</time>
      </trkpt>
      <trkpt lat="46.30885" lon="-0.33237">
        <ele>64.2069</ele>
        <time>2011-07-23T13:36:54Z</time>
      </trkpt>
      <trkpt lat="46.30885" lon="-0.33239">
        <ele>64.197</ele>
        <time>2011-07-23T13:36:55Z</time>
      </trkpt>
      <trkpt lat="46.30884" lon="-0.3324">
        <ele>64.178</ele>
        <time>2011-07-23T13:36:56Z</time>
      </trkpt>
      <trkpt lat="46.30884" lon="-0.33242">
        <ele>64.1633</ele>
        <time>2011-07-23T13:36:57Z</time>
      </trkpt>
      <trkpt lat="46.30883" lon="-0.33244">
        <ele>64.1493</ele>
        <time>2011-07-23T13:36:58Z</time>
      </trkpt>
      <trkpt lat="46.30883" lon="-0.33245">
        <ele>64.1257</ele>
        <time>2011-07-23T13:36:59Z</time>
      </trkpt>
      <trkpt lat="46.30883" lon="-0.33247">
        <ele>64.0926</ele>
        <time>2011-07-23T13:37:00Z</time>
      </trkpt>
      <trkpt lat="46.30883" lon="-0.33249">
        <ele>64.0597</ele>
        <time>2011-07-23T13:37:01Z</time>
      </trkpt>
      <trkpt lat="46.30883" lon="-0.33251">
        <ele>64.0225</ele>
        <time>2011-07-23T13:37:02Z</time>
      </trkpt>
      <trkpt lat="46.30883" lon="-0.33254">
        <ele>63.9819</ele>
        <time>2011-07-23T13:37:03Z</time>
      </trkpt>
      <trkpt lat="46.30883" lon="-0.33256">
        <ele>63.9423</ele>
        <time>2011-07-23T13:37:04Z</time>
      </trkpt>
      <trkpt lat="46.30883" lon="-0.33258">
        <ele>63.9026</ele>
        <time>2011-07-23T13:37:05Z</time>
      </trkpt>
      <trkpt lat="46.30883" lon="-0.3326">
        <ele>63.8644</ele>
        <time>2011-07-23T13:37:06Z</time>
      </trkpt>
      <trkpt lat="46.30884" lon="-0.33262">
        <ele>63.8278</ele>
        <time>2011-07-23T13:37:07Z</time>
      </trkpt>
      <trkpt lat="46.30884" lon="-0.33264">
        <ele>63.7971</ele>
        <time>2011-07-23T13:37:08Z</time>
      </trkpt>
      <trkpt lat="46.30884" lon="-0.33266">
        <ele>63.7749</ele>
        <time>2011-07-23T13:37:09Z</time>
      </trkpt>
      <trkpt lat="46.30885" lon="-0.33268">
        <ele>63.7525</ele>
        <time>2011-07-23T13:37:10Z</time>
      </trkpt>
      <trkpt lat="46.30886" lon="-0.3327">
        <ele>63.7294</ele>
        <time>2011-07-23T13:37:11Z</time>
      </trkpt>
      <trkpt lat="46.30887" lon="-0.33271">
        <ele>63.7056</ele>
        <time>2011-07-23T13:37:12Z</time>
      </trkpt>
      <trkpt lat="46.30888" lon="-0.33273">
        <ele>63.6825</ele>
        <time>2011-07-23T13:37:13Z</time>
      </trkpt>
      <trkpt lat="46.30888" lon="-0.33274">
        <ele>63.6623</ele>
        <time>2011-07-23T13:37:14Z</time>
      </trkpt>
      <trkpt lat="46.30889" lon="-0.33276">
        <ele>63.6468</ele>
        <time>2011-07-23T13:37:15Z</time>
      </trkpt>
      <trkpt lat="46.3089" lon="-0.33278">
        <ele>63.6317</ele>
        <time>2011-07-23T13:37:16Z</time>
      </trkpt>
      <trkpt lat="46.30891" lon="-0.3328">
        <ele>63.6197</ele>
        <time>2011-07-23T13:37:17Z</time>
      </trkpt>
      <trkpt lat="46.30892" lon="-0.33282">
        <ele>63.6189</ele>
        <time>2011-07-23T13:37:18Z</time>
      </trkpt>
      <trkpt lat="46.30893" lon="-0.33284">
        <ele>63.6185</ele>
        <time>2011-07-23T13:37:19Z</time>
      </trkpt>
      <trkpt lat="46.30893" lon="-0.33286">
        <ele>63.626</ele>
        <time>2011-07-23T13:37:20Z</time>
      </trkpt>
      <trkpt lat="46.30894" lon="-0.33288">
        <ele>63.6378</ele>
        <time>2011-07-23T13:37:21Z</time>
      </trkpt>
      <trkpt lat="46.30894" lon="-0.33289">
        <ele>63.651</ele>
        <time>2011-07-23T13:37:22Z</time>
      </trkpt>
      <trkpt lat="46.30895" lon="-0.33291">
        <ele>63.6629</ele>
        <time>2011-07-23T13:37:23Z</time>
      </trkpt>
      <trkpt lat="46.30895" lon="-0.33292">
        <ele>63.6754</ele>
        <time>2011-07-23T13:37:24Z</time>
      </trkpt>
      <trkpt lat="46.30895" lon="-0.33294">
        <ele>63.6857</ele>
        <time>2011-07-23T13:37:25Z</time>
      </trkpt>
      <trkpt lat="46.30896" lon="-0.33295">
        <ele>63.698</ele>
        <time>2011-07-23T13:37:26Z</time>
      </trkpt>
      <trkpt lat="46.30896" lon="-0.33297">
        <ele>63.7108</ele>
        <time>2011-07-23T13:37:27Z</time>
      </trkpt>
      <trkpt lat="46.30896" lon="-0.33298">
        <ele>63.7248</ele>
        <time>2011-07-23T13:37:28Z</time>
      </trkpt>
      <trkpt lat="46.30897" lon="-0.333">
        <ele>63.7361</ele>
        <time>2011-07-23T13:37:29Z</time>
      </trkpt>
      <trkpt lat="46.30897" lon="-0.33302">
        <ele>63.7424</ele>
        <time>2011-07-23T13:37:30Z</time>
      </trkpt>
      <trkpt lat="46.30898" lon="-0.33304">
        <ele>63.7442</ele>
        <time>2011-07-23T13:37:31Z</time>
      </trkpt>
      <trkpt lat="46.30898" lon="-0.33306">
        <ele>63.7469</ele>
        <time>2011-07-23T13:37:32Z</time>
      </trkpt>
      <trkpt lat="46.30899" lon="-0.33308">
        <ele>63.7583</ele>
        <time>2011-07-23T13:37:33Z</time>
      </trkpt>
      <trkpt lat="46.30899" lon="-0.3331">
        <ele>63.7697</ele>
        <time>2011-07-23T13:37:34Z</time>
      </trkpt>
      <trkpt lat="46.30899" lon="-0.33311">
        <ele>63.7805</ele>
        <time>2011-07-23T13:37:35Z</time>
      </trkpt>
      <trkpt lat="46.309" lon="-0.33313">
        <ele>63.7892</ele>
        <time>2011-07-23T13:37:36Z</time>
      </trkpt>
      <trkpt lat="46.309" lon="-0.33315">
        <ele>63.7987</ele>
        <time>2011-07-23T13:37:37Z</time>
      </trkpt>
      <trkpt lat="46.309" lon="-0.33317">
        <ele>63.8087</ele>
        <time>2011-07-23T13:37:38Z</time>
      </trkpt>
      <trkpt lat="46.30901" lon="-0.33318">
        <ele>63.8184</ele>
        <time>2011-07-23T13:37:39Z</time>
      </trkpt>
      <trkpt lat="46.30901" lon="-0.3332">
        <ele>63.8274</ele>
        <time>2011-07-23T13:37:40Z</time>
      </trkpt>
      <trkpt lat="46.30901" lon="-0.33322">
        <ele>63.836</ele>
        <time>2011-07-23T13:37:41Z</time>
      </trkpt>
      <trkpt lat="46.30901" lon="-0.33324">
        <ele>63.8447</ele>
        <time>2011-07-23T13:37:42Z</time>
      </trkpt>
      <trkpt lat="46.30902" lon="-0.33325">
        <ele>63.8533</ele>
        <time>2011-07-23T13:37:43Z</time>
      </trkpt>
      <trkpt lat="46.30902" lon="-0.33327">
        <ele>63.859</ele>
        <time>2011-07-23T13:37:44Z</time>
      </trkpt>
      <trkpt lat="46.30902" lon="-0.33328">
        <ele>63.8624</ele>
        <time>2011-07-23T13:37:45Z</time>
      </trkpt>
      <trkpt lat="46.30903" lon="-0.3333">
        <ele>63.8661</ele>
        <time>2011-07-23T13:37:46Z</time>
      </trkpt>
      <trkpt lat="46.30903" lon="-0.33331">
        <ele>63.8679</ele>
        <time>2011-07-23T13:37:47Z</time>
      </trkpt>
      <trkpt lat="46.30903" lon="-0.33332">
        <ele>63.8699</ele>
        <time>2011-07-23T13:37:48Z</time>
      </trkpt>
      <trkpt lat="46.30904" lon="-0.33334">
        <ele>63.8717</ele>
        <time>2011-07-23T13:37:49Z</time>
      </trkpt>
      <trkpt lat="46.30904" lon="-0.33335">
        <ele>63.8726</ele>
        <time>2011-07-23T13:37:50Z</time>
      </trkpt>
      <trkpt lat="46.30905" lon="-0.33336">
        <ele>63.8738</ele>
        <time>2011-07-23T13:37:51Z</time>
      </trkpt>
      <trkpt lat="46.30906" lon="-0.33337">
        <ele>63.8746</ele>
        <time>2011-07-23T13:37:52Z</time>
      </trkpt>
      <trkpt lat="46.30906" lon="-0.33339">
        <ele>63.8689</ele>
        <time>2011-07-23T13:37:53Z</time>
      </trkpt>
      <trkpt lat="46.30906" lon="-0.3334">
        <ele>63.8636</ele>
        <time>2011-07-23T13:37:54Z</time>
      </trkpt>
      <trkpt lat="46.30907" lon="-0.33342">
        <ele>63.8599</ele>
        <time>2011-07-23T13:37:55Z</time>
      </trkpt>
      <trkpt lat="46.30907" lon="-0.33344">
        <ele>63.8571</ele>
        <time>2011-07-23T13:37:56Z</time>
      </trkpt>
      <trkpt lat="46.30907" lon="-0.33345">
        <ele>63.851</ele>
        <time>2011-07-23T13:37:57Z</time>
      </trkpt>
      <trkpt lat="46.30907" lon="-0.33347">
        <ele>63.8453</ele>
        <time>2011-07-23T13:37:58Z</time>
      </trkpt>
      <trkpt lat="46.30908" lon="-0.33348">
        <ele>63.8409</ele>
        <time>2011-07-23T13:37:59Z</time>
      </trkpt>
      <trkpt lat="46.30908" lon="-0.3335">
        <ele>63.835</ele>
        <time>2011-07-23T13:38:00Z</time>
      </trkpt>
      <trkpt lat="46.30908" lon="-0.33351">
        <ele>63.8315</ele>
        <time>2011-07-23T13:38:01Z</time>
      </trkpt>
      <trkpt lat="46.30908" lon="-0.33353">
        <ele>63.827</ele>
        <time>2011-07-23T13:38:02Z</time>
      </trkpt>
      <trkpt lat="46.30908" lon="-0.33354">
        <ele>63.8218</ele>
        <time>2011-07-23T13:38:03Z</time>
      </trkpt>
      <trkpt lat="46.30908" lon="-0.33356">
        <ele>63.818</ele>
        <time>2011-07-23T13:38:04Z</time>
      </trkpt>
      <trkpt lat="46.30909" lon="-0.33357">
        <ele>63.8168</ele>
        <time>2011-07-23T13:38:05Z</time>
      </trkpt>
      <trkpt lat="46.30909" lon="-0.33358">
        <ele>63.8169</ele>
        <time>2011-07-23T13:38:06Z</time>
      </trkpt>
      <trkpt lat="46.3091" lon="-0.33359">
        <ele>63.8175</ele>
        <time>2011-07-23T13:38:07Z</time>
      </trkpt>
      <trkpt lat="46.30911" lon="-0.3336">
        <ele>63.8205</ele>
        <time>2011-07-23T13:38:08Z</time>
      </trkpt>
      <trkpt lat="46.30911" lon="-0.33361">
        <ele>63.8231</ele>
        <time>2011-07-23T13:38:09Z</time>
      </trkpt>
      <trkpt lat="46.30912" lon="-0.33363">
        <ele>63.8248</ele>
        <time>2011-07-23T13:38:10Z</time>
      </trkpt>
      <trkpt lat="46.30912" lon="-0.33364">
        <ele>63.8274</ele>
        <time>2011-07-23T13:38:11Z</time>
      </trkpt>
      <trkpt lat="46.30912" lon="-0.33366">
        <ele>63.8302</ele>
        <time>2011-07-23T13:38:12Z</time>
      </trkpt>
      <trkpt lat="46.30913" lon="-0.33367">
        <ele>63.8353</ele>
        <time>2011-07-23T13:38:13Z</time>
      </trkpt>
      <trkpt lat="46.30913" lon="-0.33369">
        <ele>63.8434</ele>
        <time>2011-07-23T13:38:14Z</time>
      </trkpt>
      <trkpt lat="46.30914" lon="-0.33371">
        <ele>63.8528</ele>
        <time>2011-07-23T13:38:15Z</time>
      </trkpt>
      <trkpt lat="46.30914" lon="-0.33373">
        <ele>63.8638</ele>
        <time>2011-07-23T13:38:16Z</time>
      </trkpt>
      <trkpt lat="46.30914" lon="-0.33375">
        <ele>63.8764</ele>
        <time>2011-07-23T13:38:17Z</time>
      </trkpt>
      <trkpt lat="46.30915" lon="-0.33376">
        <ele>63.8905</ele>
        <time>2011-07-23T13:38:18Z</time>
      </trkpt>
      <trkpt lat="46.30915" lon="-0.33378">
        <ele>63.9051</ele>
        <time>2011-07-23T13:38:19Z</time>
      </trkpt>
      <trkpt lat="46.30916" lon="-0.33379">
        <ele>63.9208</ele>
        <time>2011-07-23T13:38:20Z</time>
      </trkpt>
      <trkpt lat="46.30917" lon="-0.3338">
        <ele>63.9356</ele>
        <time>2011-07-23T13:38:21Z</time>
      </trkpt>
      <trkpt lat="46.30917" lon="-0.33381">
        <ele>63.9513</ele>
        <time>2011-07-23T13:38:22Z</time>
      </trkpt>
      <trkpt lat="46.30918" lon="-0.33382">
        <ele>63.9648</ele>
        <time>2011-07-23T13:38:23Z</time>
      </trkpt>
      <trkpt lat="46.30919" lon="-0.33383">
        <ele>63.978</ele>
        <time>2011-07-23T13:38:24Z</time>
      </trkpt>
      <trkpt lat="46.30919" lon="-0.33385">
        <ele>63.9922</ele>
        <time>2011-07-23T13:38:25Z</time>
      </trkpt>
      <trkpt lat="46.3092" lon="-0.33386">
        <ele>64.0058</ele>
        <time>2011-07-23T13:38:26Z</time>
      </trkpt>
      <trkpt lat="46.3092" lon="-0.33388">
        <ele>64.0176</ele>
        <time>2011-07-23T13:38:27Z</time>
      </trkpt>
      <trkpt lat="46.3092" lon="-0.33389">
        <ele>64.0279</ele>
        <time>2011-07-23T13:38:28Z</time>
      </trkpt>
      <trkpt lat="46.3092" lon="-0.33391">
        <ele>64.0378</ele>
        <time>2011-07-23T13:38:29Z</time>
      </trkpt>
      <trkpt lat="46.3092" lon="-0.33392">
        <ele>64.0483</ele>
        <time>2011-07-23T13:38:30Z</time>
      </trkpt>
      <trkpt lat="46.30921" lon="-0.33393">
        <ele>64.0587</ele>
        <time>2011-07-23T13:38:31Z</time>
      </trkpt>
      <trkpt lat="46.30921" lon="-0.33395">
        <ele>64.0691</ele>
        <time>2011-07-23T13:38:32Z</time>
      </trkpt>
      <trkpt lat="46.30922" lon="-0.33396">
        <ele>64.0793</ele>
        <time>2011-07-23T13:38:33Z</time>
      </trkpt>
      <trkpt lat="46.30922" lon="-0.33397">
        <ele>64.0885</ele>
        <time>2011-07-23T13:38:34Z</time>
      </trkpt>
      <trkpt lat="46.30922" lon="-0.33399">
        <ele>64.0975</ele>
        <time>2011-07-23T13:38:35Z</time>
      </trkpt>
      <trkpt lat="46.30923" lon="-0.334">
        <ele>64.1055</ele>
        <time>2011-07-23T13:38:36Z</time>
      </trkpt>
      <trkpt lat="46.30923" lon="-0.33401">
        <ele>64.1141</ele>
        <time>2011-07-23T13:38:37Z</time>
      </trkpt>
      <trkpt lat="46.30923" lon="-0.33402">
        <ele>64.1196</ele>
        <time>2011-07-23T13:38:38Z</time>
      </trkpt>
      <trkpt lat="46.30924" lon="-0.33403">
        <ele>64.1259</ele>
        <time>2011-07-23T13:38:39Z</time>
      </trkpt>
      <trkpt lat="46.30924" lon="-0.33404">
        <ele>64.1314</ele>
        <time>2011-07-23T13:38:40Z</time>
      </trkpt>
      <trkpt lat="46.30925" lon="-0.33405">
        <ele>64.1367</ele>
        <time>2011-07-23T13:38:41Z</time>
      </trkpt>
      <trkpt lat="46.30925" lon="-0.33407">
        <ele>64.1416</ele>
        <time>2011-07-23T13:38:42Z</time>
      </trkpt>
      <trkpt lat="46.30926" lon="-0.33408">
        <ele>64.1485</ele>
        <time>2011-07-23T13:38:43Z</time>
      </trkpt>
      <trkpt lat="46.30926" lon="-0.3341">
        <ele>64.1565</ele>
        <time>2011-07-23T13:38:44Z</time>
      </trkpt>
      <trkpt lat="46.30927" lon="-0.33412">
        <ele>64.1626</ele>
        <time>2011-07-23T13:38:45Z</time>
      </trkpt>
      <trkpt lat="46.30927" lon="-0.33413">
        <ele>64.1681</ele>
        <time>2011-07-23T13:38:46Z</time>
      </trkpt>
      <trkpt lat="46.30927" lon="-0.33415">
        <ele>64.1733</ele>
        <time>2011-07-23T13:38:47Z</time>
      </trkpt>
      <trkpt lat="46.30928" lon="-0.33416">
        <ele>64.1773</ele>
        <time>2011-07-23T13:38:48Z</time>
      </trkpt>
      <trkpt lat="46.30928" lon="-0.33417">
        <ele>64.1785</ele>
        <time>2011-07-23T13:38:49Z</time>
      </trkpt>
      <trkpt lat="46.30928" lon="-0.33419">
        <ele>64.1777</ele>
        <time>2011-07-23T13:38:50Z</time>
      </trkpt>
      <trkpt lat="46.30929" lon="-0.3342">
        <ele>64.1749</ele>
        <time>2011-07-23T13:38:51Z</time>
      </trkpt>
      <trkpt lat="46.3093" lon="-0.33422">
        <ele>64.1677</ele>
        <time>2011-07-23T13:38:52Z</time>
      </trkpt>
      <trkpt lat="46.3093" lon="-0.33425">
        <ele>64.1586</ele>
        <time>2011-07-23T13:38:53Z</time>
      </trkpt>
      <trkpt lat="46.30931" lon="-0.33427">
        <ele>64.1481</ele>
        <time>2011-07-23T13:38:54Z</time>
      </trkpt>
      <trkpt lat="46.30932" lon="-0.33429">
        <ele>64.1356</ele>
        <time>2011-07-23T13:38:55Z</time>
      </trkpt>
      <trkpt lat="46.30933" lon="-0.33431">
        <ele>64.1219</ele>
        <time>2011-07-23T13:38:56Z</time>
      </trkpt>
      <trkpt lat="46.30933" lon="-0.33433">
        <ele>64.1063</ele>
        <time>2011-07-23T13:38:57Z</time>
      </trkpt>
      <trkpt lat="46.30934" lon="-0.33435">
        <ele>64.0936</ele>
        <time>2011-07-23T13:38:58Z</time>
      </trkpt>
      <trkpt lat="46.30935" lon="-0.33437">
        <ele>64.0815</ele>
        <time>2011-07-23T13:38:59Z</time>
      </trkpt>
      <trkpt lat="46.30935" lon="-0.33439">
        <ele>64.0706</ele>
        <time>2011-07-23T13:39:00Z</time>
      </trkpt>
      <trkpt lat="46.30935" lon="-0.33441">
        <ele>64.0603</ele>
        <time>2011-07-23T13:39:01Z</time>
      </trkpt>
      <trkpt lat="46.30936" lon="-0.33443">
        <ele>64.0465</ele>
        <time>2011-07-23T13:39:02Z</time>
      </trkpt>
      <trkpt lat="46.30936" lon="-0.33446">
        <ele>64.0341</ele>
        <time>2011-07-23T13:39:03Z</time>
      </trkpt>
      <trkpt lat="46.30937" lon="-0.33448">
        <ele>64.0232</ele>
        <time>2011-07-23T13:39:04Z</time>
      </trkpt>
      <trkpt lat="46.30937" lon="-0.3345">
        <ele>64.0137</ele>
        <time>2011-07-23T13:39:05Z</time>
      </trkpt>
      <trkpt lat="46.30938" lon="-0.33451">
        <ele>64.0083</ele>
        <time>2011-07-23T13:39:06Z</time>
      </trkpt>
      <trkpt lat="46.30938" lon="-0.33453">
        <ele>64.0047</ele>
        <time>2011-07-23T13:39:07Z</time>
      </trkpt>
      <trkpt lat="46.30938" lon="-0.33454">
        <ele>64.0029</ele>
        <time>2011-07-23T13:39:08Z</time>
      </trkpt>
      <trkpt lat="46.30938" lon="-0.33456">
        <ele>64.0026</ele>
        <time>2011-07-23T13:39:09Z</time>
      </trkpt>
      <trkpt lat="46.30939" lon="-0.33458">
        <ele>64.0046</ele>
        <time>2011-07-23T13:39:10Z</time>
      </trkpt>
      <trkpt lat="46.30939" lon="-0.33459">
        <ele>64.0086</ele>
        <time>2011-07-23T13:39:11Z</time>
      </trkpt>
      <trkpt lat="46.3094" lon="-0.33461">
        <ele>64.0134</ele>
        <time>2011-07-23T13:39:12Z</time>
      </trkpt>
      <trkpt lat="46.3094" lon="-0.33463">
        <ele>64.0185</ele>
        <time>2011-07-23T13:39:13Z</time>
      </trkpt>
      <trkpt lat="46.3094" lon="-0.33464">
        <ele>64.0266</ele>
        <time>2011-07-23T13:39:14Z</time>
      </trkpt>
      <trkpt lat="46.3094" lon="-0.33466">
        <ele>64.0366</ele>
        <time>2011-07-23T13:39:15Z</time>
      </trkpt>
      <trkpt lat="46.30941" lon="-0.33468">
        <ele>64.0484</ele>
        <time>2011-07-23T13:39:16Z</time>
      </trkpt>
      <trkpt lat="46.30941" lon="-0.33469">
        <ele>64.0608</ele>
        <time>2011-07-23T13:39:17Z</time>
      </trkpt>
      <trkpt lat="46.30942" lon="-0.33471">
        <ele>64.0742</ele>
        <time>2011-07-23T13:39:18Z</time>
      </trkpt>
      <trkpt lat="46.30942" lon="-0.33473">
        <ele>64.0871</ele>
        <time>2011-07-23T13:39:19Z</time>
      </trkpt>
      <trkpt lat="46.30943" lon="-0.33475">
        <ele>64.0987</ele>
        <time>2011-07-23T13:39:20Z</time>
      </trkpt>
      <trkpt lat="46.30943" lon="-0.33477">
        <ele>64.1108</ele>
        <time>2011-07-23T13:39:21Z</time>
      </trkpt>
      <trkpt lat="46.30943" lon="-0.33479">
        <ele>64.1241</ele>
        <time>2011-07-23T13:39:22Z</time>
      </trkpt>
      <trkpt lat="46.30944" lon="-0.33481">
        <ele>64.1392</ele>
        <time>2011-07-23T13:39:23Z</time>
      </trkpt>
      <trkpt lat="46.30944" lon="-0.33483">
        <ele>64.1545</ele>
        <time>2011-07-23T13:39:24Z</time>
      </trkpt>
      <trkpt lat="46.30945" lon="-0.33485">
        <ele>64.1602</ele>
        <time>2011-07-23T13:39:25Z</time>
      </trkpt>
      <trkpt lat="46.30946" lon="-0.33487">
        <ele>64.162</ele>
        <time>2011-07-23T13:39:26Z</time>
      </trkpt>
      <trkpt lat="46.30946" lon="-0.33489">
        <ele>64.1667</ele>
        <time>2011-07-23T13:39:27Z</time>
      </trkpt>
      <trkpt lat="46.30946" lon="-0.33491">
        <ele>64.1721</ele>
        <time>2011-07-23T13:39:28Z</time>
      </trkpt>
      <trkpt lat="46.30947" lon="-0.33492">
        <ele>64.1794</ele>
        <time>2011-07-23T13:39:29Z</time>
      </trkpt>
      <trkpt lat="46.30948" lon="-0.33494">
        <ele>64.1866</ele>
        <time>2011-07-23T13:39:30Z</time>
      </trkpt>
      <trkpt lat="46.30948" lon="-0.33496">
        <ele>64.1939</ele>
        <time>2011-07-23T13:39:31Z</time>
      </trkpt>
      <trkpt lat="46.30949" lon="-0.33497">
        <ele>64.2014</ele>
        <time>2011-07-23T13:39:32Z</time>
      </trkpt>
      <trkpt lat="46.30949" lon="-0.33498">
        <ele>64.2079</ele>
        <time>2011-07-23T13:39:33Z</time>
      </trkpt>
      <trkpt lat="46.3095" lon="-0.335">
        <ele>64.2143</ele>
        <time>2011-07-23T13:39:34Z</time>
      </trkpt>
      <trkpt lat="46.30951" lon="-0.33501">
        <ele>64.2205</ele>
        <time>2011-07-23T13:39:35Z</time>
      </trkpt>
      <trkpt lat="46.30951" lon="-0.33502">
        <ele>64.2271</ele>
        <time>2011-07-23T13:39:36Z</time>
      </trkpt>
      <trkpt lat="46.30952" lon="-0.33504">
        <ele>64.2332</ele>
        <time>2011-07-23T13:39:37Z</time>
      </trkpt>
      <trkpt lat="46.30952" lon="-0.33505">
        <ele>64.2402</ele>
        <time>2011-07-23T13:39:38Z</time>
      </trkpt>
      <trkpt lat="46.30952" lon="-0.33506">
        <ele>64.2474</ele>
        <time>2011-07-23T13:39:39Z</time>
      </trkpt>
      <trkpt lat="46.30953" lon="-0.33508">
        <ele>64.2541</ele>
        <time>2011-07-23T13:39:40Z</time>
      </trkpt>
      <trkpt lat="46.30953" lon="-0.33509">
        <ele>64.2599</ele>
        <time>2011-07-23T13:39:41Z</time>
      </trkpt>
      <trkpt lat="46.30953" lon="-0.3351">
        <ele>64.2652</ele>
        <time>2011-07-23T13:39:42Z</time>
      </trkpt>
      <trkpt lat="46.30954" lon="-0.33512">
        <ele>64.2723</ele>
        <time>2011-07-23T13:39:43Z</time>
      </trkpt>
      <trkpt lat="46.30954" lon="-0.33513">
        <ele>64.2782</ele>
        <time>2011-07-23T13:39:44Z</time>
      </trkpt>
      <trkpt lat="46.30954" lon="-0.33515">
        <ele>64.2861</ele>
        <time>2011-07-23T13:39:45Z</time>
      </trkpt>
      <trkpt lat="46.30954" lon="-0.33517">
        <ele>64.2958</ele>
        <time>2011-07-23T13:39:46Z</time>
      </trkpt>
      <trkpt lat="46.30954" lon="-0.33519">
        <ele>64.3064</ele>
        <time>2011-07-23T13:39:47Z</time>
      </trkpt>
      <trkpt lat="46.30955" lon="-0.33521">
        <ele>64.317</ele>
        <time>2011-07-23T13:39:48Z</time>
      </trkpt>
      <trkpt lat="46.30955" lon="-0.33523">
        <ele>64.328</ele>
        <time>2011-07-23T13:39:49Z</time>
      </trkpt>
      <trkpt lat="46.30956" lon="-0.33525">
        <ele>64.3404</ele>
        <time>2011-07-23T13:39:50Z</time>
      </trkpt>
      <trkpt lat="46.30956" lon="-0.33527">
        <ele>64.3538</ele>
        <time>2011-07-23T13:39:51Z</time>
      </trkpt>
      <trkpt lat="46.30956" lon="-0.33529">
        <ele>64.3656</ele>
        <time>2011-07-23T13:39:52Z</time>
      </trkpt>
      <trkpt lat="46.30957" lon="-0.3353">
        <ele>64.377</ele>
        <time>2011-07-23T13:39:53Z</time>
      </trkpt>
      <trkpt lat="46.30957" lon="-0.33532">
        <ele>64.3886</ele>
        <time>2011-07-23T13:39:54Z</time>
      </trkpt>
      <trkpt lat="46.30957" lon="-0.33534">
        <ele>64.4011</ele>
        <time>2011-07-23T13:39:55Z</time>
      </trkpt>
      <trkpt lat="46.30957" lon="-0.33535">
        <ele>64.4101</ele>
        <time>2011-07-23T13:39:56Z</time>
      </trkpt>
      <trkpt lat="46.30958" lon="-0.33537">
        <ele>64.4184</ele>
        <time>2011-07-23T13:39:57Z</time>
      </trkpt>
      <trkpt lat="46.30958" lon="-0.33539">
        <ele>64.4249</ele>
        <time>2011-07-23T13:39:58Z</time>
      </trkpt>
      <trkpt lat="46.30958" lon="-0.3354">
        <ele>64.4324</ele>
        <time>2011-07-23T13:39:59Z</time>
      </trkpt>
      <trkpt lat="46.30959" lon="-0.33542">
        <ele>64.4398</ele>
        <time>2011-07-23T13:40:00Z</time>
      </trkpt>
      <trkpt lat="46.30959" lon="-0.33544">
        <ele>64.4509</ele>
        <time>2011-07-23T13:40:01Z</time>
      </trkpt>
      <trkpt lat="46.3096" lon="-0.33545">
        <ele>64.4624</ele>
        <time>2011-07-23T13:40:02Z</time>
      </trkpt>
      <trkpt lat="46.3096" lon="-0.33547">
        <ele>64.4746</ele>
        <time>2011-07-23T13:40:03Z</time>
      </trkpt>
      <trkpt lat="46.30961" lon="-0.33548">
        <ele>64.4886</ele>
        <time>2011-07-23T13:40:04Z</time>
      </trkpt>
      <trkpt lat="46.30961" lon="-0.3355">
        <ele>64.5004</ele>
        <time>2011-07-23T13:40:05Z</time>
      </trkpt>
      <trkpt lat="46.30961" lon="-0.33552">
        <ele>64.5107</ele>
        <time>2011-07-23T13:40:06Z</time>
      </trkpt>
      <trkpt lat="46.30961" lon="-0.33554">
        <ele>64.521</ele>
        <time>2011-07-23T13:40:07Z</time>
      </trkpt>
      <trkpt lat="46.30961" lon="-0.33556">
        <ele>64.5287</ele>
        <time>2011-07-23T13:40:08Z</time>
      </trkpt>
      <trkpt lat="46.30962" lon="-0.33558">
        <ele>64.5363</ele>
        <time>2011-07-23T13:40:09Z</time>
      </trkpt>
      <trkpt lat="46.30963" lon="-0.3356">
        <ele>64.5426</ele>
        <time>2011-07-23T13:40:10Z</time>
      </trkpt>
      <trkpt lat="46.30964" lon="-0.33562">
        <ele>64.5473</ele>
        <time>2011-07-23T13:40:11Z</time>
      </trkpt>
      <trkpt lat="46.30964" lon="-0.33564">
        <ele>64.5504</ele>
        <time>2011-07-23T13:40:12Z</time>
      </trkpt>
      <trkpt lat="46.30964" lon="-0.33566">
        <ele>64.5538</ele>
        <time>2011-07-23T13:40:13Z</time>
      </trkpt>
      <trkpt lat="46.30965" lon="-0.33568">
        <ele>64.5588</ele>
        <time>2011-07-23T13:40:14Z</time>
      </trkpt>
      <trkpt lat="46.30965" lon="-0.3357">
        <ele>64.5646</ele>
        <time>2011-07-23T13:40:15Z</time>
      </trkpt>
      <trkpt lat="46.30965" lon="-0.33572">
        <ele>64.5712</ele>
        <time>2011-07-23T13:40:16Z</time>
      </trkpt>
      <trkpt lat="46.30966" lon="-0.33574">
        <ele>64.5776</ele>
        <time>2011-07-23T13:40:17Z</time>
      </trkpt>
      <trkpt lat="46.30966" lon="-0.33575">
        <ele>64.5842</ele>
        <time>2011-07-23T13:40:18Z</time>
      </trkpt>
      <trkpt lat="46.30966" lon="-0.33576">
        <ele>64.5903</ele>
        <time>2011-07-23T13:40:19Z</time>
      </trkpt>
      <trkpt lat="46.30966" lon="-0.33578">
        <ele>64.5972</ele>
        <time>2011-07-23T13:40:20Z</time>
      </trkpt>
      <trkpt lat="46.30966" lon="-0.3358">
        <ele>64.6046</ele>
        <time>2011-07-23T13:40:21Z</time>
      </trkpt>
      <trkpt lat="46.30967" lon="-0.33582">
        <ele>64.6121</ele>
        <time>2011-07-23T13:40:22Z</time>
      </trkpt>
      <trkpt lat="46.30967" lon="-0.33584">
        <ele>64.6226</ele>
        <time>2011-07-23T13:40:23Z</time>
      </trkpt>
      <trkpt lat="46.30967" lon="-0.33587">
        <ele>64.6321</ele>
        <time>2011-07-23T13:40:24Z</time>
      </trkpt>
      <trkpt lat="46.30967" lon="-0.33588">
        <ele>64.6462</ele>
        <time>2011-07-23T13:40:25Z</time>
      </trkpt>
      <trkpt lat="46.30968" lon="-0.3359">
        <ele>64.6627</ele>
        <time>2011-07-23T13:40:26Z</time>
      </trkpt>
      <trkpt lat="46.30968" lon="-0.33592">
        <ele>64.6799</ele>
        <time>2011-07-23T13:40:27Z</time>
      </trkpt>
      <trkpt lat="46.30968" lon="-0.33593">
        <ele>64.6965</ele>
        <time>2011-07-23T13:40:28Z</time>
      </trkpt>
      <trkpt lat="46.30969" lon="-0.33594">
        <ele>64.7131</ele>
        <time>2011-07-23T13:40:29Z</time>
      </trkpt>
      <trkpt lat="46.30969" lon="-0.33596">
        <ele>64.7298</ele>
        <time>2011-07-23T13:40:30Z</time>
      </trkpt>
      <trkpt lat="46.30969" lon="-0.33597">
        <ele>64.7471</ele>
        <time>2011-07-23T13:40:31Z</time>
      </trkpt>
      <trkpt lat="46.30969" lon="-0.33599">
        <ele>64.7641</ele>
        <time>2011-07-23T13:40:32Z</time>
      </trkpt>
      <trkpt lat="46.3097" lon="-0.33601">
        <ele>64.7768</ele>
        <time>2011-07-23T13:40:33Z</time>
      </trkpt>
      <trkpt lat="46.3097" lon="-0.33603">
        <ele>64.7874</ele>
        <time>2011-07-23T13:40:34Z</time>
      </trkpt>
      <trkpt lat="46.3097" lon="-0.33606">
        <ele>64.794</ele>
        <time>2011-07-23T13:40:35Z</time>
      </trkpt>
      <trkpt lat="46.3097" lon="-0.33608">
        <ele>64.796</ele>
        <time>2011-07-23T13:40:36Z</time>
      </trkpt>
      <trkpt lat="46.3097" lon="-0.3361">
        <ele>64.7946</ele>
        <time>2011-07-23T13:40:37Z</time>
      </trkpt>
      <trkpt lat="46.3097" lon="-0.33612">
        <ele>64.7954</ele>
        <time>2011-07-23T13:40:38Z</time>
      </trkpt>
      <trkpt lat="46.3097" lon="-0.33613">
        <ele>64.7979</ele>
        <time>2011-07-23T13:40:39Z</time>
      </trkpt>
      <trkpt lat="46.30971" lon="-0.33615">
        <ele>64.8003</ele>
        <time>2011-07-23T13:40:40Z</time>
      </trkpt>
      <trkpt lat="46.3097" lon="-0.33617">
        <ele>64.8021</ele>
        <time>2011-07-23T13:40:41Z</time>
      </trkpt>
      <trkpt lat="46.30971" lon="-0.33619">
        <ele>64.804</ele>
        <time>2011-07-23T13:40:42Z</time>
      </trkpt>
      <trkpt lat="46.30971" lon="-0.3362">
        <ele>64.8067</ele>
        <time>2011-07-23T13:40:43Z</time>
      </trkpt>
      <trkpt lat="46.30971" lon="-0.33622">
        <ele>64.8031</ele>
        <time>2011-07-23T13:40:44Z</time>
      </trkpt>
      <trkpt lat="46.30971" lon="-0.33624">
        <ele>64.7954</ele>
        <time>2011-07-23T13:40:45Z</time>
      </trkpt>
      <trkpt lat="46.30971" lon="-0.33626">
        <ele>64.7853</ele>
        <time>2011-07-23T13:40:46Z</time>
      </trkpt>
      <trkpt lat="46.30972" lon="-0.33627">
        <ele>64.7746</ele>
        <time>2011-07-23T13:40:47Z</time>
      </trkpt>
      <trkpt lat="46.30972" lon="-0.33629">
        <ele>64.765</ele>
        <time>2011-07-23T13:40:48Z</time>
      </trkpt>
      <trkpt lat="46.30972" lon="-0.33631">
        <ele>64.7566</ele>
        <time>2011-07-23T13:40:49Z</time>
      </trkpt>
      <trkpt lat="46.30972" lon="-0.33632">
        <ele>64.7503</ele>
        <time>2011-07-23T13:40:50Z</time>
      </trkpt>
      <trkpt lat="46.30973" lon="-0.33633">
        <ele>64.7453</ele>
        <time>2011-07-23T13:40:51Z</time>
      </trkpt>
      <trkpt lat="46.30973" lon="-0.33635">
        <ele>64.7436</ele>
        <time>2011-07-23T13:40:52Z</time>
      </trkpt>
      <trkpt lat="46.30973" lon="-0.33637">
        <ele>64.7434</ele>
        <time>2011-07-23T13:40:53Z</time>
      </trkpt>
      <trkpt lat="46.30973" lon="-0.33639">
        <ele>64.7439</ele>
        <time>2011-07-23T13:40:54Z</time>
      </trkpt>
      <trkpt lat="46.30973" lon="-0.33641">
        <ele>64.7435</ele>
        <time>2011-07-23T13:40:55Z</time>
      </trkpt>
      <trkpt lat="46.30974" lon="-0.33643">
        <ele>64.7438</ele>
        <time>2011-07-23T13:40:56Z</time>
      </trkpt>
      <trkpt lat="46.30974" lon="-0.33645">
        <ele>64.7449</ele>
        <time>2011-07-23T13:40:57Z</time>
      </trkpt>
      <trkpt lat="46.30975" lon="-0.33647">
        <ele>64.7476</ele>
        <time>2011-07-23T13:40:58Z</time>
      </trkpt>
      <trkpt lat="46.30975" lon="-0.33649">
        <ele>64.7496</ele>
        <time>2011-07-23T13:40:59Z</time>
      </trkpt>
      <trkpt lat="46.30975" lon="-0.3365">
        <ele>64.7513</ele>
        <time>2011-07-23T13:41:00Z</time>
      </trkpt>
      <trkpt lat="46.30976" lon="-0.33652">
        <ele>64.7545</ele>
        <time>2011-07-23T13:41:01Z</time>
      </trkpt>
      <trkpt lat="46.30976" lon="-0.33653">
        <ele>64.7603</ele>
        <time>2011-07-23T13:41:02Z</time>
      </trkpt>
      <trkpt lat="46.30977" lon="-0.33655">
        <ele>64.765</ele>
        <time>2011-07-23T13:41:03Z</time>
      </trkpt>
      <trkpt lat="46.30976" lon="-0.33657">
        <ele>64.7692</ele>
        <time>2011-07-23T13:41:04Z</time>
      </trkpt>
      <trkpt lat="46.30976" lon="-0.33658">
        <ele>64.7737</ele>
        <time>2011-07-23T13:41:05Z</time>
      </trkpt>
      <trkpt lat="46.30976" lon="-0.3366">
        <ele>64.7778</ele>
        <time>2011-07-23T13:41:06Z</time>
      </trkpt>
      <trkpt lat="46.30976" lon="-0.33662">
        <ele>64.7815</ele>
        <time>2011-07-23T13:41:07Z</time>
      </trkpt>
      <trkpt lat="46.30976" lon="-0.33664">
        <ele>64.7867</ele>
        <time>2011-07-23T13:41:08Z</time>
      </trkpt>
      <trkpt lat="46.30976" lon="-0.33665">
        <ele>64.7908</ele>
        <time>2011-07-23T13:41:09Z</time>
      </trkpt>
      <trkpt lat="46.30976" lon="-0.33667">
        <ele>64.7933</ele>
        <time>2011-07-23T13:41:10Z</time>
      </trkpt>
      <trkpt lat="46.30976" lon="-0.33669">
        <ele>64.7965</ele>
        <time>2011-07-23T13:41:11Z</time>
      </trkpt>
      <trkpt lat="46.30977" lon="-0.3367">
        <ele>64.8013</ele>
        <time>2011-07-23T13:41:12Z</time>
      </trkpt>
      <trkpt lat="46.30977" lon="-0.33672">
        <ele>64.8039</ele>
        <time>2011-07-23T13:41:13Z</time>
      </trkpt>
      <trkpt lat="46.30978" lon="-0.33674">
        <ele>64.8076</ele>
        <time>2011-07-23T13:41:14Z</time>
      </trkpt>
      <trkpt lat="46.30978" lon="-0.33676">
        <ele>64.8123</ele>
        <time>2011-07-23T13:41:15Z</time>
      </trkpt>
      <trkpt lat="46.30979" lon="-0.33678">
        <ele>64.8167</ele>
        <time>2011-07-23T13:41:16Z</time>
      </trkpt>
      <trkpt lat="46.3098" lon="-0.3368">
        <ele>64.8239</ele>
        <time>2011-07-23T13:41:17Z</time>
      </trkpt>
      <trkpt lat="46.3098" lon="-0.33682">
        <ele>64.8349</ele>
        <time>2011-07-23T13:41:18Z</time>
      </trkpt>
      <trkpt lat="46.30981" lon="-0.33683">
        <ele>64.8515</ele>
        <time>2011-07-23T13:41:19Z</time>
      </trkpt>
      <trkpt lat="46.30981" lon="-0.33685">
        <ele>64.8678</ele>
        <time>2011-07-23T13:41:20Z</time>
      </trkpt>
      <trkpt lat="46.30981" lon="-0.33686">
        <ele>64.8829</ele>
        <time>2011-07-23T13:41:21Z</time>
      </trkpt>
      <trkpt lat="46.30981" lon="-0.33688">
        <ele>64.9024</ele>
        <time>2011-07-23T13:41:22Z</time>
      </trkpt>
      <trkpt lat="46.30981" lon="-0.3369">
        <ele>64.9218</ele>
        <time>2011-07-23T13:41:23Z</time>
      </trkpt>
      <trkpt lat="46.30981" lon="-0.33691">
        <ele>64.9411</ele>
        <time>2011-07-23T13:41:24Z</time>
      </trkpt>
      <trkpt lat="46.30981" lon="-0.33693">
        <ele>64.9577</ele>
        <time>2011-07-23T13:41:25Z</time>
      </trkpt>
      <trkpt lat="46.30982" lon="-0.33694">
        <ele>64.975</ele>
        <time>2011-07-23T13:41:26Z</time>
      </trkpt>
      <trkpt lat="46.30982" lon="-0.33696">
        <ele>64.9912</ele>
        <time>2011-07-23T13:41:27Z</time>
      </trkpt>
      <trkpt lat="46.30983" lon="-0.33697">
        <ele>65.0089</ele>
        <time>2011-07-23T13:41:28Z</time>
      </trkpt>
      <trkpt lat="46.30983" lon="-0.33699">
        <ele>65.0242</ele>
        <time>2011-07-23T13:41:29Z</time>
      </trkpt>
      <trkpt lat="46.30983" lon="-0.33701">
        <ele>65.0387</ele>
        <time>2011-07-23T13:41:30Z</time>
      </trkpt>
      <trkpt lat="46.30984" lon="-0.33702">
        <ele>65.0527</ele>
        <time>2011-07-23T13:41:31Z</time>
      </trkpt>
      <trkpt lat="46.30985" lon="-0.33704">
        <ele>65.0668</ele>
        <time>2011-07-23T13:41:32Z</time>
      </trkpt>
      <trkpt lat="46.30985" lon="-0.33705">
        <ele>65.0802</ele>
        <time>2011-07-23T13:41:33Z</time>
      </trkpt>
      <trkpt lat="46.30986" lon="-0.33707">
        <ele>65.0929</ele>
        <time>2011-07-23T13:41:34Z</time>
      </trkpt>
      <trkpt lat="46.30986" lon="-0.33708">
        <ele>65.106</ele>
        <time>2011-07-23T13:41:35Z</time>
      </trkpt>
      <trkpt lat="46.30986" lon="-0.3371">
        <ele>65.1213</ele>
        <time>2011-07-23T13:41:36Z</time>
      </trkpt>
      <trkpt lat="46.30986" lon="-0.33712">
        <ele>65.1397</ele>
        <time>2011-07-23T13:41:37Z</time>
      </trkpt>
      <trkpt lat="46.30986" lon="-0.33713">
        <ele>65.1618</ele>
        <time>2011-07-23T13:41:38Z</time>
      </trkpt>
      <trkpt lat="46.30986" lon="-0.33715">
        <ele>65.1881</ele>
        <time>2011-07-23T13:41:39Z</time>
      </trkpt>
      <trkpt lat="46.30987" lon="-0.33717">
        <ele>65.2151</ele>
        <time>2011-07-23T13:41:40Z</time>
      </trkpt>
      <trkpt lat="46.30987" lon="-0.33719">
        <ele>65.243</ele>
        <time>2011-07-23T13:41:41Z</time>
      </trkpt>
      <trkpt lat="46.30988" lon="-0.33721">
        <ele>65.2698</ele>
        <time>2011-07-23T13:41:42Z</time>
      </trkpt>
      <trkpt lat="46.30988" lon="-0.33723">
        <ele>65.2954</ele>
        <time>2011-07-23T13:41:43Z</time>
      </trkpt>
      <trkpt lat="46.30988" lon="-0.33726">
        <ele>65.32</ele>
        <time>2011-07-23T13:41:44Z</time>
      </trkpt>
      <trkpt lat="46.30989" lon="-0.33728">
        <ele>65.3428</ele>
        <time>2011-07-23T13:41:45Z</time>
      </trkpt>
      <trkpt lat="46.30989" lon="-0.3373">
        <ele>65.3637</ele>
        <time>2011-07-23T13:41:46Z</time>
      </trkpt>
      <trkpt lat="46.30989" lon="-0.33732">
        <ele>65.3837</ele>
        <time>2011-07-23T13:41:47Z</time>
      </trkpt>
      <trkpt lat="46.3099" lon="-0.33734">
        <ele>65.4007</ele>
        <time>2011-07-23T13:41:48Z</time>
      </trkpt>
      <trkpt lat="46.3099" lon="-0.33735">
        <ele>65.4169</ele>
        <time>2011-07-23T13:41:49Z</time>
      </trkpt>
      <trkpt lat="46.3099" lon="-0.33737">
        <ele>65.4316</ele>
        <time>2011-07-23T13:41:50Z</time>
      </trkpt>
      <trkpt lat="46.30991" lon="-0.33738">
        <ele>65.4449</ele>
        <time>2011-07-23T13:41:51Z</time>
      </trkpt>
      <trkpt lat="46.30991" lon="-0.3374">
        <ele>65.4568</ele>
        <time>2011-07-23T13:41:52Z</time>
      </trkpt>
      <trkpt lat="46.30991" lon="-0.33742">
        <ele>65.469</ele>
        <time>2011-07-23T13:41:53Z</time>
      </trkpt>
      <trkpt lat="46.30992" lon="-0.33743">
        <ele>65.4814</ele>
        <time>2011-07-23T13:41:54Z</time>
      </trkpt>
      <trkpt lat="46.30992" lon="-0.33745">
        <ele>65.4911</ele>
        <time>2011-07-23T13:41:55Z</time>
      </trkpt>
      <trkpt lat="46.30992" lon="-0.33746">
        <ele>65.4999</ele>
        <time>2011-07-23T13:41:56Z</time>
      </trkpt>
      <trkpt lat="46.30993" lon="-0.33747">
        <ele>65.5068</ele>
        <time>2011-07-23T13:41:57Z</time>
      </trkpt>
      <trkpt lat="46.30993" lon="-0.33749">
        <ele>65.5143</ele>
        <time>2011-07-23T13:41:58Z</time>
      </trkpt>
      <trkpt lat="46.30993" lon="-0.33751">
        <ele>65.5197</ele>
        <time>2011-07-23T13:41:59Z</time>
      </trkpt>
      <trkpt lat="46.30993" lon="-0.33753">
        <ele>65.5234</ele>
        <time>2011-07-23T13:42:00Z</time>
      </trkpt>
      <trkpt lat="46.30993" lon="-0.33754">
        <ele>65.527</ele>
        <time>2011-07-23T13:42:01Z</time>
      </trkpt>
      <trkpt lat="46.30993" lon="-0.33756">
        <ele>65.5335</ele>
        <time>2011-07-23T13:42:02Z</time>
      </trkpt>
      <trkpt lat="46.30993" lon="-0.33757">
        <ele>65.5402</ele>
        <time>2011-07-23T13:42:03Z</time>
      </trkpt>
      <trkpt lat="46.30994" lon="-0.33758">
        <ele>65.5459</ele>
        <time>2011-07-23T13:42:04Z</time>
      </trkpt>
      <trkpt lat="46.30994" lon="-0.3376">
        <ele>65.5508</ele>
        <time>2011-07-23T13:42:05Z</time>
      </trkpt>
      <trkpt lat="46.30994" lon="-0.33762">
        <ele>65.5573</ele>
        <time>2011-07-23T13:42:06Z</time>
      </trkpt>
      <trkpt lat="46.30995" lon="-0.33764">
        <ele>65.5646</ele>
        <time>2011-07-23T13:42:07Z</time>
      </trkpt>
      <trkpt lat="46.30995" lon="-0.33766">
        <ele>65.572</ele>
        <time>2011-07-23T13:42:08Z</time>
      </trkpt>
      <trkpt lat="46.30996" lon="-0.33767">
        <ele>65.5775</ele>
        <time>2011-07-23T13:42:09Z</time>
      </trkpt>
      <trkpt lat="46.30997" lon="-0.33769">
        <ele>65.5814</ele>
        <time>2011-07-23T13:42:10Z</time>
      </trkpt>
      <trkpt lat="46.30998" lon="-0.33771">
        <ele>65.5854</ele>
        <time>2011-07-23T13:42:11Z</time>
      </trkpt>
      <trkpt lat="46.30998" lon="-0.33773">
        <ele>65.5877</ele>
        <time>2011-07-23T13:42:12Z</time>
      </trkpt>
      <trkpt lat="46.30999" lon="-0.33774">
        <ele>65.5892</ele>
        <time>2011-07-23T13:42:13Z</time>
      </trkpt>
      <trkpt lat="46.30999" lon="-0.33776">
        <ele>65.5895</ele>
        <time>2011-07-23T13:42:14Z</time>
      </trkpt>
      <trkpt lat="46.30999" lon="-0.33778">
        <ele>65.5891</ele>
        <time>2011-07-23T13:42:15Z</time>
      </trkpt>
      <trkpt lat="46.30999" lon="-0.3378">
        <ele>65.5906</ele>
        <time>2011-07-23T13:42:16Z</time>
      </trkpt>
      <trkpt lat="46.31" lon="-0.33781">
        <ele>65.5915</ele>
        <time>2011-07-23T13:42:17Z</time>
      </trkpt>
      <trkpt lat="46.31" lon="-0.33783">
        <ele>65.5905</ele>
        <time>2011-07-23T13:42:18Z</time>
      </trkpt>
      <trkpt lat="46.31001" lon="-0.33785">
        <ele>65.59</ele>
        <time>2011-07-23T13:42:19Z</time>
      </trkpt>
      <trkpt lat="46.31001" lon="-0.33786">
        <ele>65.5914</ele>
        <time>2011-07-23T13:42:20Z</time>
      </trkpt>
      <trkpt lat="46.31002" lon="-0.33788">
        <ele>65.5938</ele>
        <time>2011-07-23T13:42:21Z</time>
      </trkpt>
      <trkpt lat="46.31003" lon="-0.3379">
        <ele>65.5945</ele>
        <time>2011-07-23T13:42:22Z</time>
      </trkpt>
      <trkpt lat="46.31003" lon="-0.33792">
        <ele>65.5914</ele>
        <time>2011-07-23T13:42:23Z</time>
      </trkpt>
      <trkpt lat="46.31004" lon="-0.33794">
        <ele>65.5869</ele>
        <time>2011-07-23T13:42:24Z</time>
      </trkpt>
      <trkpt lat="46.31004" lon="-0.33796">
        <ele>65.5794</ele>
        <time>2011-07-23T13:42:25Z</time>
      </trkpt>
      <trkpt lat="46.31004" lon="-0.33797">
        <ele>65.5724</ele>
        <time>2011-07-23T13:42:26Z</time>
      </trkpt>
      <trkpt lat="46.31005" lon="-0.33799">
        <ele>65.5649</ele>
        <time>2011-07-23T13:42:27Z</time>
      </trkpt>
      <trkpt lat="46.31005" lon="-0.338">
        <ele>65.5628</ele>
        <time>2011-07-23T13:42:28Z</time>
      </trkpt>
      <trkpt lat="46.31006" lon="-0.33802">
        <ele>65.5648</ele>
        <time>2011-07-23T13:42:29Z</time>
      </trkpt>
      <trkpt lat="46.31006" lon="-0.33803">
        <ele>65.5684</ele>
        <time>2011-07-23T13:42:30Z</time>
      </trkpt>
      <trkpt lat="46.31006" lon="-0.33804">
        <ele>65.5726</ele>
        <time>2011-07-23T13:42:31Z</time>
      </trkpt>
      <trkpt lat="46.31006" lon="-0.33806">
        <ele>65.5744</ele>
        <time>2011-07-23T13:42:32Z</time>
      </trkpt>
      <trkpt lat="46.31007" lon="-0.33807">
        <ele>65.5765</ele>
        <time>2011-07-23T13:42:33Z</time>
      </trkpt>
      <trkpt lat="46.31007" lon="-0.33809">
        <ele>65.5763</ele>
        <time>2011-07-23T13:42:34Z</time>
      </trkpt>
      <trkpt lat="46.31008" lon="-0.33811">
        <ele>65.5753</ele>
        <time>2011-07-23T13:42:35Z</time>
      </trkpt>
      <trkpt lat="46.31008" lon="-0.33813">
        <ele>65.5742</ele>
        <time>2011-07-23T13:42:36Z</time>
      </trkpt>
      <trkpt lat="46.31009" lon="-0.33815">
        <ele>65.5732</ele>
        <time>2011-07-23T13:42:37Z</time>
      </trkpt>
      <trkpt lat="46.3101" lon="-0.33816">
        <ele>65.5703</ele>
        <time>2011-07-23T13:42:38Z</time>
      </trkpt>
      <trkpt lat="46.3101" lon="-0.33818">
        <ele>65.5677</ele>
        <time>2011-07-23T13:42:39Z</time>
      </trkpt>
      <trkpt lat="46.3101" lon="-0.3382">
        <ele>65.5651</ele>
        <time>2011-07-23T13:42:40Z</time>
      </trkpt>
      <trkpt lat="46.31011" lon="-0.33821">
        <ele>65.5633</ele>
        <time>2011-07-23T13:42:41Z</time>
      </trkpt>
      <trkpt lat="46.31011" lon="-0.33823">
        <ele>65.562</ele>
        <time>2011-07-23T13:42:42Z</time>
      </trkpt>
      <trkpt lat="46.31012" lon="-0.33824">
        <ele>65.5621</ele>
        <time>2011-07-23T13:42:43Z</time>
      </trkpt>
      <trkpt lat="46.31012" lon="-0.33826">
        <ele>65.5622</ele>
        <time>2011-07-23T13:42:44Z</time>
      </trkpt>
      <trkpt lat="46.31013" lon="-0.33827">
        <ele>65.5616</ele>
        <time>2011-07-23T13:42:45Z</time>
      </trkpt>
      <trkpt lat="46.31013" lon="-0.33829">
        <ele>65.5615</ele>
        <time>2011-07-23T13:42:46Z</time>
      </trkpt>
      <trkpt lat="46.31014" lon="-0.3383">
        <ele>65.5642</ele>
        <time>2011-07-23T13:42:47Z</time>
      </trkpt>
      <trkpt lat="46.31014" lon="-0.33831">
        <ele>65.5677</ele>
        <time>2011-07-23T13:42:48Z</time>
      </trkpt>
      <trkpt lat="46.31015" lon="-0.33832">
        <ele>65.571</ele>
        <time>2011-07-23T13:42:49Z</time>
      </trkpt>
      <trkpt lat="46.31015" lon="-0.33834">
        <ele>65.5738</ele>
        <time>2011-07-23T13:42:50Z</time>
      </trkpt>
      <trkpt lat="46.31015" lon="-0.33835">
        <ele>65.5765</ele>
        <time>2011-07-23T13:42:51Z</time>
      </trkpt>
      <trkpt lat="46.31016" lon="-0.33836">
        <ele>65.5778</ele>
        <time>2011-07-23T13:42:52Z</time>
      </trkpt>
      <trkpt lat="46.31016" lon="-0.33838">
        <ele>65.5794</ele>
        <time>2011-07-23T13:42:53Z</time>
      </trkpt>
      <trkpt lat="46.31017" lon="-0.33839">
        <ele>65.5769</ele>
        <time>2011-07-23T13:42:54Z</time>
      </trkpt>
      <trkpt lat="46.31017" lon="-0.33841">
        <ele>65.5746</ele>
        <time>2011-07-23T13:42:55Z</time>
      </trkpt>
      <trkpt lat="46.31017" lon="-0.33842">
        <ele>65.5718</ele>
        <time>2011-07-23T13:42:56Z</time>
      </trkpt>
      <trkpt lat="46.31018" lon="-0.33843">
        <ele>65.5686</ele>
        <time>2011-07-23T13:42:57Z</time>
      </trkpt>
      <trkpt lat="46.31018" lon="-0.33845">
        <ele>65.5617</ele>
        <time>2011-07-23T13:42:58Z</time>
      </trkpt>
      <trkpt lat="46.31019" lon="-0.33846">
        <ele>65.5549</ele>
        <time>2011-07-23T13:42:59Z</time>
      </trkpt>
      <trkpt lat="46.31019" lon="-0.33848">
        <ele>65.5495</ele>
        <time>2011-07-23T13:43:00Z</time>
      </trkpt>
      <trkpt lat="46.3102" lon="-0.3385">
        <ele>65.5449</ele>
        <time>2011-07-23T13:43:01Z</time>
      </trkpt>
      <trkpt lat="46.3102" lon="-0.33852">
        <ele>65.5411</ele>
        <time>2011-07-23T13:43:02Z</time>
      </trkpt>
      <trkpt lat="46.31021" lon="-0.33854">
        <ele>65.5331</ele>
        <time>2011-07-23T13:43:03Z</time>
      </trkpt>
      <trkpt lat="46.31022" lon="-0.33856">
        <ele>65.5234</ele>
        <time>2011-07-23T13:43:04Z</time>
      </trkpt>
      <trkpt lat="46.31022" lon="-0.33858">
        <ele>65.5136</ele>
        <time>2011-07-23T13:43:05Z</time>
      </trkpt>
      <trkpt lat="46.31023" lon="-0.33859">
        <ele>65.503</ele>
        <time>2011-07-23T13:43:06Z</time>
      </trkpt>
      <trkpt lat="46.31023" lon="-0.3386">
        <ele>65.4903</ele>
        <time>2011-07-23T13:43:07Z</time>
      </trkpt>
      <trkpt lat="46.31024" lon="-0.33862">
        <ele>65.476</ele>
        <time>2011-07-23T13:43:08Z</time>
      </trkpt>
      <trkpt lat="46.31025" lon="-0.33863">
        <ele>65.464</ele>
        <time>2011-07-23T13:43:09Z</time>
      </trkpt>
      <trkpt lat="46.31025" lon="-0.33865">
        <ele>65.4541</ele>
        <time>2011-07-23T13:43:10Z</time>
      </trkpt>
      <trkpt lat="46.31026" lon="-0.33866">
        <ele>65.4441</ele>
        <time>2011-07-23T13:43:11Z</time>
      </trkpt>
      <trkpt lat="46.31026" lon="-0.33868">
        <ele>65.4313</ele>
        <time>2011-07-23T13:43:12Z</time>
      </trkpt>
      <trkpt lat="46.31027" lon="-0.33869">
        <ele>65.4174</ele>
        <time>2011-07-23T13:43:13Z</time>
      </trkpt>
      <trkpt lat="46.31027" lon="-0.33871">
        <ele>65.4012</ele>
        <time>2011-07-23T13:43:14Z</time>
      </trkpt>
      <trkpt lat="46.31028" lon="-0.33872">
        <ele>65.3836</ele>
        <time>2011-07-23T13:43:15Z</time>
      </trkpt>
      <trkpt lat="46.31029" lon="-0.33874">
        <ele>65.3644</ele>
        <time>2011-07-23T13:43:16Z</time>
      </trkpt>
      <trkpt lat="46.3103" lon="-0.33875">
        <ele>65.3447</ele>
        <time>2011-07-23T13:43:17Z</time>
      </trkpt>
      <trkpt lat="46.3103" lon="-0.33877">
        <ele>65.3254</ele>
        <time>2011-07-23T13:43:18Z</time>
      </trkpt>
      <trkpt lat="46.31031" lon="-0.33878">
        <ele>65.3058</ele>
        <time>2011-07-23T13:43:19Z</time>
      </trkpt>
      <trkpt lat="46.31031" lon="-0.3388">
        <ele>65.2857</ele>
        <time>2011-07-23T13:43:20Z</time>
      </trkpt>
      <trkpt lat="46.31032" lon="-0.33881">
        <ele>65.2655</ele>
        <time>2011-07-23T13:43:21Z</time>
      </trkpt>
      <trkpt lat="46.31032" lon="-0.33882">
        <ele>65.2461</ele>
        <time>2011-07-23T13:43:22Z</time>
      </trkpt>
      <trkpt lat="46.31032" lon="-0.33884">
        <ele>65.2251</ele>
        <time>2011-07-23T13:43:23Z</time>
      </trkpt>
      <trkpt lat="46.31033" lon="-0.33886">
        <ele>65.2069</ele>
        <time>2011-07-23T13:43:24Z</time>
      </trkpt>
      <trkpt lat="46.31033" lon="-0.33887">
        <ele>65.1927</ele>
        <time>2011-07-23T13:43:25Z</time>
      </trkpt>
      <trkpt lat="46.31033" lon="-0.33888">
        <ele>65.1782</ele>
        <time>2011-07-23T13:43:26Z</time>
      </trkpt>
      <trkpt lat="46.31034" lon="-0.3389">
        <ele>65.1635</ele>
        <time>2011-07-23T13:43:27Z</time>
      </trkpt>
      <trkpt lat="46.31035" lon="-0.33891">
        <ele>65.1442</ele>
        <time>2011-07-23T13:43:28Z</time>
      </trkpt>
      <trkpt lat="46.31036" lon="-0.33892">
        <ele>65.1221</ele>
        <time>2011-07-23T13:43:29Z</time>
      </trkpt>
      <trkpt lat="46.31036" lon="-0.33894">
        <ele>65.098</ele>
        <time>2011-07-23T13:43:30Z</time>
      </trkpt>
      <trkpt lat="46.31037" lon="-0.33896">
        <ele>65.0693</ele>
        <time>2011-07-23T13:43:31Z</time>
      </trkpt>
      <trkpt lat="46.31038" lon="-0.33897">
        <ele>65.0411</ele>
        <time>2011-07-23T13:43:32Z</time>
      </trkpt>
      <trkpt lat="46.31038" lon="-0.33899">
        <ele>65.0154</ele>
        <time>2011-07-23T13:43:33Z</time>
      </trkpt>
      <trkpt lat="46.31039" lon="-0.33902">
        <ele>64.9902</ele>
        <time>2011-07-23T13:43:34Z</time>
      </trkpt>
      <trkpt lat="46.31039" lon="-0.33903">
        <ele>64.9654</ele>
        <time>2011-07-23T13:43:35Z</time>
      </trkpt>
      <trkpt lat="46.3104" lon="-0.33905">
        <ele>64.9315</ele>
        <time>2011-07-23T13:43:36Z</time>
      </trkpt>
      <trkpt lat="46.3104" lon="-0.33907">
        <ele>64.8976</ele>
        <time>2011-07-23T13:43:37Z</time>
      </trkpt>
      <trkpt lat="46.31041" lon="-0.33909">
        <ele>64.8646</ele>
        <time>2011-07-23T13:43:38Z</time>
      </trkpt>
      <trkpt lat="46.31041" lon="-0.33911">
        <ele>64.8281</ele>
        <time>2011-07-23T13:43:39Z</time>
      </trkpt>
      <trkpt lat="46.31042" lon="-0.33912">
        <ele>64.7918</ele>
        <time>2011-07-23T13:43:40Z</time>
      </trkpt>
      <trkpt lat="46.31042" lon="-0.33914">
        <ele>64.7616</ele>
        <time>2011-07-23T13:43:41Z</time>
      </trkpt>
      <trkpt lat="46.31042" lon="-0.33916">
        <ele>64.7343</ele>
        <time>2011-07-23T13:43:42Z</time>
      </trkpt>
      <trkpt lat="46.31043" lon="-0.33918">
        <ele>64.711</ele>
        <time>2011-07-23T13:43:43Z</time>
      </trkpt>
      <trkpt lat="46.31043" lon="-0.33919">
        <ele>64.6875</ele>
        <time>2011-07-23T13:43:44Z</time>
      </trkpt>
      <trkpt lat="46.31044" lon="-0.33921">
        <ele>64.6645</ele>
        <time>2011-07-23T13:43:45Z</time>
      </trkpt>
      <trkpt lat="46.31045" lon="-0.33923">
        <ele>64.6384</ele>
        <time>2011-07-23T13:43:46Z</time>
      </trkpt>
      <trkpt lat="46.31046" lon="-0.33925">
        <ele>64.6103</ele>
        <time>2011-07-23T13:43:47Z</time>
      </trkpt>
      <trkpt lat="46.31046" lon="-0.33927">
        <ele>64.582</ele>
        <time>2011-07-23T13:43:48Z</time>
      </trkpt>
      <trkpt lat="46.31046" lon="-0.33929">
        <ele>64.5561</ele>
        <time>2011-07-23T13:43:49Z</time>
      </trkpt>
      <trkpt lat="46.31047" lon="-0.3393">
        <ele>64.53</ele>
        <time>2011-07-23T13:43:50Z</time>
      </trkpt>
      <trkpt lat="46.31047" lon="-0.33932">
        <ele>64.5003</ele>
        <time>2011-07-23T13:43:51Z</time>
      </trkpt>
      <trkpt lat="46.31048" lon="-0.33934">
        <ele>64.4646</ele>
        <time>2011-07-23T13:43:52Z</time>
      </trkpt>
      <trkpt lat="46.31049" lon="-0.33936">
        <ele>64.4293</ele>
        <time>2011-07-23T13:43:53Z</time>
      </trkpt>
      <trkpt lat="46.31049" lon="-0.33938">
        <ele>64.3947</ele>
        <time>2011-07-23T13:43:54Z</time>
      </trkpt>
      <trkpt lat="46.31049" lon="-0.33939">
        <ele>64.3588</ele>
        <time>2011-07-23T13:43:55Z</time>
      </trkpt>
      <trkpt lat="46.3105" lon="-0.3394">
        <ele>64.3247</ele>
        <time>2011-07-23T13:43:56Z</time>
      </trkpt>
      <trkpt lat="46.3105" lon="-0.33942">
        <ele>64.2915</ele>
        <time>2011-07-23T13:43:57Z</time>
      </trkpt>
      <trkpt lat="46.31051" lon="-0.33943">
        <ele>64.2585</ele>
        <time>2011-07-23T13:43:58Z</time>
      </trkpt>
      <trkpt lat="46.31051" lon="-0.33945">
        <ele>64.2271</ele>
        <time>2011-07-23T13:43:59Z</time>
      </trkpt>
      <trkpt lat="46.31052" lon="-0.33946">
        <ele>64.1967</ele>
        <time>2011-07-23T13:44:00Z</time>
      </trkpt>
      <trkpt lat="46.31052" lon="-0.33947">
        <ele>64.1682</ele>
        <time>2011-07-23T13:44:01Z</time>
      </trkpt>
      <trkpt lat="46.31052" lon="-0.33949">
        <ele>64.1384</ele>
        <time>2011-07-23T13:44:02Z</time>
      </trkpt>
      <trkpt lat="46.31053" lon="-0.3395">
        <ele>64.1103</ele>
        <time>2011-07-23T13:44:03Z</time>
      </trkpt>
      <trkpt lat="46.31054" lon="-0.33952">
        <ele>64.0824</ele>
        <time>2011-07-23T13:44:04Z</time>
      </trkpt>
      <trkpt lat="46.31054" lon="-0.33953">
        <ele>64.0524</ele>
        <time>2011-07-23T13:44:05Z</time>
      </trkpt>
      <trkpt lat="46.31055" lon="-0.33954">
        <ele>64.0231</ele>
        <time>2011-07-23T13:44:06Z</time>
      </trkpt>
      <trkpt lat="46.31055" lon="-0.33956">
        <ele>63.9939</ele>
        <time>2011-07-23T13:44:07Z</time>
      </trkpt>
      <trkpt lat="46.31056" lon="-0.33957">
        <ele>63.9651</ele>
        <time>2011-07-23T13:44:08Z</time>
      </trkpt>
      <trkpt lat="46.31056" lon="-0.33959">
        <ele>63.9359</ele>
        <time>2011-07-23T13:44:09Z</time>
      </trkpt>
      <trkpt lat="46.31056" lon="-0.3396">
        <ele>63.9085</ele>
        <time>2011-07-23T13:44:10Z</time>
      </trkpt>
      <trkpt lat="46.31057" lon="-0.33961">
        <ele>63.8801</ele>
        <time>2011-07-23T13:44:11Z</time>
      </trkpt>
      <trkpt lat="46.31057" lon="-0.33963">
        <ele>63.8508</ele>
        <time>2011-07-23T13:44:12Z</time>
      </trkpt>
      <trkpt lat="46.31058" lon="-0.33964">
        <ele>63.8214</ele>
        <time>2011-07-23T13:44:13Z</time>
      </trkpt>
      <trkpt lat="46.31058" lon="-0.33966">
        <ele>63.7939</ele>
        <time>2011-07-23T13:44:14Z</time>
      </trkpt>
      <trkpt lat="46.31059" lon="-0.33968">
        <ele>63.7671</ele>
        <time>2011-07-23T13:44:15Z</time>
      </trkpt>
      <trkpt lat="46.31059" lon="-0.3397">
        <ele>63.7422</ele>
        <time>2011-07-23T13:44:16Z</time>
      </trkpt>
      <trkpt lat="46.31059" lon="-0.33972">
        <ele>63.7224</ele>
        <time>2011-07-23T13:44:17Z</time>
      </trkpt>
      <trkpt lat="46.31059" lon="-0.33974">
        <ele>63.7076</ele>
        <time>2011-07-23T13:44:18Z</time>
      </trkpt>
      <trkpt lat="46.31059" lon="-0.33975">
        <ele>63.6978</ele>
        <time>2011-07-23T13:44:19Z</time>
      </trkpt>
      <trkpt lat="46.31059" lon="-0.33976">
        <ele>63.6919</ele>
        <time>2011-07-23T13:44:20Z</time>
      </trkpt>
      <trkpt lat="46.31059" lon="-0.33978">
        <ele>63.6869</ele>
        <time>2011-07-23T13:44:21Z</time>
      </trkpt>
      <trkpt lat="46.31059" lon="-0.33979">
        <ele>63.6822</ele>
        <time>2011-07-23T13:44:22Z</time>
      </trkpt>
      <trkpt lat="46.31058" lon="-0.33981">
        <ele>63.6791</ele>
        <time>2011-07-23T13:44:23Z</time>
      </trkpt>
      <trkpt lat="46.31058" lon="-0.33983">
        <ele>63.676</ele>
        <time>2011-07-23T13:44:24Z</time>
      </trkpt>
      <trkpt lat="46.31057" lon="-0.33984">
        <ele>63.6726</ele>
        <time>2011-07-23T13:44:25Z</time>
      </trkpt>
      <trkpt lat="46.31057" lon="-0.33986">
        <ele>63.6698</ele>
        <time>2011-07-23T13:44:26Z</time>
      </trkpt>
      <trkpt lat="46.31056" lon="-0.33988">
        <ele>63.6636</ele>
        <time>2011-07-23T13:44:27Z</time>
      </trkpt>
      <trkpt lat="46.31055" lon="-0.33989">
        <ele>63.6549</ele>
        <time>2011-07-23T13:44:28Z</time>
      </trkpt>
      <trkpt lat="46.31054" lon="-0.33991">
        <ele>63.6454</ele>
        <time>2011-07-23T13:44:29Z</time>
      </trkpt>
      <trkpt lat="46.31053" lon="-0.33992">
        <ele>63.6351</ele>
        <time>2011-07-23T13:44:30Z</time>
      </trkpt>
      <trkpt lat="46.31052" lon="-0.33993">
        <ele>63.6244</ele>
        <time>2011-07-23T13:44:31Z</time>
      </trkpt>
      <trkpt lat="46.31051" lon="-0.33994">
        <ele>63.6149</ele>
        <time>2011-07-23T13:44:32Z</time>
      </trkpt>
      <trkpt lat="46.31049" lon="-0.33994">
        <ele>63.606</ele>
        <time>2011-07-23T13:44:33Z</time>
      </trkpt>
      <trkpt lat="46.31048" lon="-0.33994">
        <ele>63.5972</ele>
        <time>2011-07-23T13:44:34Z</time>
      </trkpt>
      <trkpt lat="46.31047" lon="-0.33995">
        <ele>63.5898</ele>
        <time>2011-07-23T13:44:35Z</time>
      </trkpt>
      <trkpt lat="46.31046" lon="-0.33995">
        <ele>63.5826</ele>
        <time>2011-07-23T13:44:36Z</time>
      </trkpt>
      <trkpt lat="46.31044" lon="-0.33995">
        <ele>63.5743</ele>
        <time>2011-07-23T13:44:37Z</time>
      </trkpt>
      <trkpt lat="46.31043" lon="-0.33996">
        <ele>63.5652</ele>
        <time>2011-07-23T13:44:38Z</time>
      </trkpt>
      <trkpt lat="46.31042" lon="-0.33996">
        <ele>63.5563</ele>
        <time>2011-07-23T13:44:39Z</time>
      </trkpt>
      <trkpt lat="46.31041" lon="-0.33997">
        <ele>63.5474</ele>
        <time>2011-07-23T13:44:40Z</time>
      </trkpt>
      <trkpt lat="46.3104" lon="-0.33998">
        <ele>63.5385</ele>
        <time>2011-07-23T13:44:41Z</time>
      </trkpt>
      <trkpt lat="46.31038" lon="-0.33998">
        <ele>63.5309</ele>
        <time>2011-07-23T13:44:42Z</time>
      </trkpt>
      <trkpt lat="46.31037" lon="-0.33998">
        <ele>63.5273</ele>
        <time>2011-07-23T13:44:43Z</time>
      </trkpt>
      <trkpt lat="46.31036" lon="-0.33999">
        <ele>63.5249</ele>
        <time>2011-07-23T13:44:44Z</time>
      </trkpt>
      <trkpt lat="46.31035" lon="-0.33999">
        <ele>63.5236</ele>
        <time>2011-07-23T13:44:45Z</time>
      </trkpt>
      <trkpt lat="46.31034" lon="-0.34">
        <ele>63.5233</ele>
        <time>2011-07-23T13:44:46Z</time>
      </trkpt>
      <trkpt lat="46.31033" lon="-0.34">
        <ele>63.5281</ele>
        <time>2011-07-23T13:44:47Z</time>
      </trkpt>
      <trkpt lat="46.31031" lon="-0.34">
        <ele>63.5375</ele>
        <time>2011-07-23T13:44:48Z</time>
      </trkpt>
      <trkpt lat="46.3103" lon="-0.34001">
        <ele>63.5501</ele>
        <time>2011-07-23T13:44:49Z</time>
      </trkpt>
      <trkpt lat="46.31028" lon="-0.34001">
        <ele>63.5671</ele>
        <time>2011-07-23T13:44:50Z</time>
      </trkpt>
      <trkpt lat="46.31027" lon="-0.34001">
        <ele>63.5871</ele>
        <time>2011-07-23T13:44:51Z</time>
      </trkpt>
      <trkpt lat="46.31025" lon="-0.34002">
        <ele>63.6093</ele>
        <time>2011-07-23T13:44:52Z</time>
      </trkpt>
      <trkpt lat="46.31023" lon="-0.34002">
        <ele>63.6342</ele>
        <time>2011-07-23T13:44:53Z</time>
      </trkpt>
      <trkpt lat="46.31022" lon="-0.34003">
        <ele>63.6617</ele>
        <time>2011-07-23T13:44:54Z</time>
      </trkpt>
      <trkpt lat="46.3102" lon="-0.34003">
        <ele>63.6926</ele>
        <time>2011-07-23T13:44:55Z</time>
      </trkpt>
      <trkpt lat="46.31019" lon="-0.34003">
        <ele>63.7249</ele>
        <time>2011-07-23T13:44:56Z</time>
      </trkpt>
      <trkpt lat="46.31017" lon="-0.34003">
        <ele>63.7575</ele>
        <time>2011-07-23T13:44:57Z</time>
      </trkpt>
      <trkpt lat="46.31016" lon="-0.34003">
        <ele>63.7905</ele>
        <time>2011-07-23T13:44:58Z</time>
      </trkpt>
      <trkpt lat="46.31015" lon="-0.34003">
        <ele>63.8224</ele>
        <time>2011-07-23T13:44:59Z</time>
      </trkpt>
      <trkpt lat="46.31014" lon="-0.34003">
        <ele>63.8553</ele>
        <time>2011-07-23T13:45:00Z</time>
      </trkpt>
      <trkpt lat="46.31012" lon="-0.34003">
        <ele>63.8907</ele>
        <time>2011-07-23T13:45:01Z</time>
      </trkpt>
      <trkpt lat="46.31012" lon="-0.34004">
        <ele>63.9303</ele>
        <time>2011-07-23T13:45:02Z</time>
      </trkpt>
      <trkpt lat="46.3101" lon="-0.34004">
        <ele>63.9715</ele>
        <time>2011-07-23T13:45:03Z</time>
      </trkpt>
      <trkpt lat="46.31009" lon="-0.34004">
        <ele>64.0164</ele>
        <time>2011-07-23T13:45:04Z</time>
      </trkpt>
      <trkpt lat="46.31008" lon="-0.34005">
        <ele>64.0649</ele>
        <time>2011-07-23T13:45:05Z</time>
      </trkpt>
      <trkpt lat="46.31007" lon="-0.34005">
        <ele>64.1142</ele>
        <time>2011-07-23T13:45:06Z</time>
      </trkpt>
      <trkpt lat="46.31006" lon="-0.34005">
        <ele>64.1631</ele>
        <time>2011-07-23T13:45:07Z</time>
      </trkpt>
      <trkpt lat="46.31005" lon="-0.34006">
        <ele>64.2123</ele>
        <time>2011-07-23T13:45:08Z</time>
      </trkpt>
      <trkpt lat="46.31004" lon="-0.34006">
        <ele>64.2617</ele>
        <time>2011-07-23T13:45:09Z</time>
      </trkpt>
      <trkpt lat="46.31002" lon="-0.34006">
        <ele>64.3105</ele>
        <time>2011-07-23T13:45:10Z</time>
      </trkpt>
      <trkpt lat="46.31001" lon="-0.34007">
        <ele>64.3625</ele>
        <time>2011-07-23T13:45:11Z</time>
      </trkpt>
      <trkpt lat="46.31" lon="-0.34007">
        <ele>64.4219</ele>
        <time>2011-07-23T13:45:12Z</time>
      </trkpt>
      <trkpt lat="46.30999" lon="-0.34007">
        <ele>64.4893</ele>
        <time>2011-07-23T13:45:13Z</time>
      </trkpt>
      <trkpt lat="46.30997" lon="-0.34008">
        <ele>64.5571</ele>
        <time>2011-07-23T13:45:14Z</time>
      </trkpt>
      <trkpt lat="46.30996" lon="-0.34008">
        <ele>64.6238</ele>
        <time>2011-07-23T13:45:15Z</time>
      </trkpt>
      <trkpt lat="46.30995" lon="-0.34007">
        <ele>64.6905</ele>
        <time>2011-07-23T13:45:16Z</time>
      </trkpt>
      <trkpt lat="46.30994" lon="-0.34006">
        <ele>64.7574</ele>
        <time>2011-07-23T13:45:17Z</time>
      </trkpt>
      <trkpt lat="46.30993" lon="-0.34005">
        <ele>64.8267</ele>
        <time>2011-07-23T13:45:18Z</time>
      </trkpt>
      <trkpt lat="46.30993" lon="-0.34004">
        <ele>64.8943</ele>
        <time>2011-07-23T13:45:19Z</time>
      </trkpt>
      <trkpt lat="46.30991" lon="-0.34003">
        <ele>64.9586</ele>
        <time>2011-07-23T13:45:20Z</time>
      </trkpt>
      <trkpt lat="46.30991" lon="-0.34003">
        <ele>65.0206</ele>
        <time>2011-07-23T13:45:21Z</time>
      </trkpt>
      <trkpt lat="46.3099" lon="-0.34003">
        <ele>65.0791</ele>
        <time>2011-07-23T13:45:22Z</time>
      </trkpt>
      <trkpt lat="46.30989" lon="-0.34003">
        <ele>65.135</ele>
        <time>2011-07-23T13:45:23Z</time>
      </trkpt>
      <trkpt lat="46.30988" lon="-0.34003">
        <ele>65.1897</ele>
        <time>2011-07-23T13:45:24Z</time>
      </trkpt>
      <trkpt lat="46.30987" lon="-0.34004">
        <ele>65.2432</ele>
        <time>2011-07-23T13:45:25Z</time>
      </trkpt>
      <trkpt lat="46.30986" lon="-0.34004">
        <ele>65.2941</ele>
        <time>2011-07-23T13:45:26Z</time>
      </trkpt>
      <trkpt lat="46.30985" lon="-0.34005">
        <ele>65.3435</ele>
        <time>2011-07-23T13:45:27Z</time>
      </trkpt>
      <trkpt lat="46.30983" lon="-0.34005">
        <ele>65.3944</ele>
        <time>2011-07-23T13:45:28Z</time>
      </trkpt>
      <trkpt lat="46.30982" lon="-0.34006">
        <ele>65.4465</ele>
        <time>2011-07-23T13:45:29Z</time>
      </trkpt>
      <trkpt lat="46.30981" lon="-0.34007">
        <ele>65.4969</ele>
        <time>2011-07-23T13:45:30Z</time>
      </trkpt>
      <trkpt lat="46.3098" lon="-0.34007">
        <ele>65.5468</ele>
        <time>2011-07-23T13:45:31Z</time>
      </trkpt>
      <trkpt lat="46.30979" lon="-0.34007">
        <ele>65.5969</ele>
        <time>2011-07-23T13:45:32Z</time>
      </trkpt>
      <trkpt lat="46.30978" lon="-0.34008">
        <ele>65.6472</ele>
        <time>2011-07-23T13:45:33Z</time>
      </trkpt>
      <trkpt lat="46.30977" lon="-0.34008">
        <ele>65.6978</ele>
        <time>2011-07-23T13:45:34Z</time>
      </trkpt>
      <trkpt lat="46.30976" lon="-0.34008">
        <ele>65.7477</ele>
        <time>2011-07-23T13:45:35Z</time>
      </trkpt>
      <trkpt lat="46.30975" lon="-0.34008">
        <ele>65.7973</ele>
        <time>2011-07-23T13:45:36Z</time>
      </trkpt>
      <trkpt lat="46.30974" lon="-0.34008">
        <ele>65.8459</ele>
        <time>2011-07-23T13:45:37Z</time>
      </trkpt>
      <trkpt lat="46.30973" lon="-0.34009">
        <ele>65.8947</ele>
        <time>2011-07-23T13:45:38Z</time>
      </trkpt>
      <trkpt lat="46.30972" lon="-0.34009">
        <ele>65.9423</ele>
        <time>2011-07-23T13:45:39Z</time>
      </trkpt>
      <trkpt lat="46.30971" lon="-0.34009">
        <ele>65.9897</ele>
        <time>2011-07-23T13:45:40Z</time>
      </trkpt>
      <trkpt lat="46.3097" lon="-0.34009">
        <ele>66.0391</ele>
        <time>2011-07-23T13:45:41Z</time>
      </trkpt>
      <trkpt lat="46.30969" lon="-0.3401">
        <ele>66.0927</ele>
        <time>2011-07-23T13:45:42Z</time>
      </trkpt>
      <trkpt lat="46.30967" lon="-0.3401">
        <ele>66.1476</ele>
        <time>2011-07-23T13:45:43Z</time>
      </trkpt>
      <trkpt lat="46.30966" lon="-0.34011">
        <ele>66.205</ele>
        <time>2011-07-23T13:45:44Z</time>
      </trkpt>
      <trkpt lat="46.30965" lon="-0.34011">
        <ele>66.2646</ele>
        <time>2011-07-23T13:45:45Z</time>
      </trkpt>
      <trkpt lat="46.30964" lon="-0.34012">
        <ele>66.3247</ele>
        <time>2011-07-23T13:45:46Z</time>
      </trkpt>
      <trkpt lat="46.30963" lon="-0.34012">
        <ele>66.3854</ele>
        <time>2011-07-23T13:45:47Z</time>
      </trkpt>
      <trkpt lat="46.30962" lon="-0.34012">
        <ele>66.4456</ele>
        <time>2011-07-23T13:45:48Z</time>
      </trkpt>
      <trkpt lat="46.30961" lon="-0.34012">
        <ele>66.5068</ele>
        <time>2011-07-23T13:45:49Z</time>
      </trkpt>
      <trkpt lat="46.3096" lon="-0.34013">
        <ele>66.5651</ele>
        <time>2011-07-23T13:45:50Z</time>
      </trkpt>
      <trkpt lat="46.30959" lon="-0.34013">
        <ele>66.6238</ele>
        <time>2011-07-23T13:45:51Z</time>
      </trkpt>
      <trkpt lat="46.30958" lon="-0.34013">
        <ele>66.6854</ele>
        <time>2011-07-23T13:45:52Z</time>
      </trkpt>
      <trkpt lat="46.30957" lon="-0.34013">
        <ele>66.7493</ele>
        <time>2011-07-23T13:45:53Z</time>
      </trkpt>
      <trkpt lat="46.30956" lon="-0.34014">
        <ele>66.8108</ele>
        <time>2011-07-23T13:45:54Z</time>
      </trkpt>
      <trkpt lat="46.30954" lon="-0.34013">
        <ele>66.8651</ele>
        <time>2011-07-23T13:45:55Z</time>
      </trkpt>
      <trkpt lat="46.30952" lon="-0.34013">
        <ele>66.9176</ele>
        <time>2011-07-23T13:45:56Z</time>
      </trkpt>
      <trkpt lat="46.3095" lon="-0.34013">
        <ele>66.9669</ele>
        <time>2011-07-23T13:45:57Z</time>
      </trkpt>
      <trkpt lat="46.30948" lon="-0.34013">
        <ele>67.0147</ele>
        <time>2011-07-23T13:45:58Z</time>
      </trkpt>
      <trkpt lat="46.30946" lon="-0.34014">
        <ele>67.0621</ele>
        <time>2011-07-23T13:45:59Z</time>
      </trkpt>
      <trkpt lat="46.30944" lon="-0.34014">
        <ele>67.1085</ele>
        <time>2011-07-23T13:46:00Z</time>
      </trkpt>
      <trkpt lat="46.30943" lon="-0.34014">
        <ele>67.1539</ele>
        <time>2011-07-23T13:46:01Z</time>
      </trkpt>
      <trkpt lat="46.30941" lon="-0.34015">
        <ele>67.1981</ele>
        <time>2011-07-23T13:46:02Z</time>
      </trkpt>
      <trkpt lat="46.3094" lon="-0.34015">
        <ele>67.2422</ele>
        <time>2011-07-23T13:46:03Z</time>
      </trkpt>
      <trkpt lat="46.30938" lon="-0.34015">
        <ele>67.2845</ele>
        <time>2011-07-23T13:46:04Z</time>
      </trkpt>
      <trkpt lat="46.30937" lon="-0.34015">
        <ele>67.3268</ele>
        <time>2011-07-23T13:46:05Z</time>
      </trkpt>
      <trkpt lat="46.30936" lon="-0.34015">
        <ele>67.369</ele>
        <time>2011-07-23T13:46:06Z</time>
      </trkpt>
      <trkpt lat="46.30935" lon="-0.34016">
        <ele>67.4098</ele>
        <time>2011-07-23T13:46:07Z</time>
      </trkpt>
      <trkpt lat="46.30933" lon="-0.34016">
        <ele>67.4501</ele>
        <time>2011-07-23T13:46:08Z</time>
      </trkpt>
      <trkpt lat="46.30932" lon="-0.34017">
        <ele>67.4898</ele>
        <time>2011-07-23T13:46:09Z</time>
      </trkpt>
      <trkpt lat="46.3093" lon="-0.34017">
        <ele>67.5306</ele>
        <time>2011-07-23T13:46:10Z</time>
      </trkpt>
      <trkpt lat="46.30929" lon="-0.34018">
        <ele>67.5715</ele>
        <time>2011-07-23T13:46:11Z</time>
      </trkpt>
      <trkpt lat="46.30928" lon="-0.34019">
        <ele>67.6131</ele>
        <time>2011-07-23T13:46:12Z</time>
      </trkpt>
      <trkpt lat="46.30927" lon="-0.3402">
        <ele>67.6548</ele>
        <time>2011-07-23T13:46:13Z</time>
      </trkpt>
      <trkpt lat="46.30926" lon="-0.3402">
        <ele>67.6962</ele>
        <time>2011-07-23T13:46:14Z</time>
      </trkpt>
      <trkpt lat="46.30925" lon="-0.34021">
        <ele>67.7368</ele>
        <time>2011-07-23T13:46:15Z</time>
      </trkpt>
      <trkpt lat="46.30924" lon="-0.34022">
        <ele>67.7779</ele>
        <time>2011-07-23T13:46:16Z</time>
      </trkpt>
      <trkpt lat="46.30924" lon="-0.34022">
        <ele>67.8193</ele>
        <time>2011-07-23T13:46:17Z</time>
      </trkpt>
      <trkpt lat="46.30922" lon="-0.34022">
        <ele>67.8607</ele>
        <time>2011-07-23T13:46:18Z</time>
      </trkpt>
      <trkpt lat="46.30921" lon="-0.34023">
        <ele>67.901</ele>
        <time>2011-07-23T13:46:19Z</time>
      </trkpt>
      <trkpt lat="46.3092" lon="-0.34023">
        <ele>67.9418</ele>
        <time>2011-07-23T13:46:20Z</time>
      </trkpt>
      <trkpt lat="46.30919" lon="-0.34023">
        <ele>67.9811</ele>
        <time>2011-07-23T13:46:21Z</time>
      </trkpt>
      <trkpt lat="46.30918" lon="-0.34024">
        <ele>68.0228</ele>
        <time>2011-07-23T13:46:22Z</time>
      </trkpt>
      <trkpt lat="46.30917" lon="-0.34024">
        <ele>68.0699</ele>
        <time>2011-07-23T13:46:23Z</time>
      </trkpt>
      <trkpt lat="46.30916" lon="-0.34025">
        <ele>68.1224</ele>
        <time>2011-07-23T13:46:24Z</time>
      </trkpt>
      <trkpt lat="46.30915" lon="-0.34026">
        <ele>68.1784</ele>
        <time>2011-07-23T13:46:25Z</time>
      </trkpt>
      <trkpt lat="46.30914" lon="-0.34026">
        <ele>68.2372</ele>
        <time>2011-07-23T13:46:26Z</time>
      </trkpt>
      <trkpt lat="46.30913" lon="-0.34026">
        <ele>68.2969</ele>
        <time>2011-07-23T13:46:27Z</time>
      </trkpt>
      <trkpt lat="46.30912" lon="-0.34026">
        <ele>68.3568</ele>
        <time>2011-07-23T13:46:28Z</time>
      </trkpt>
      <trkpt lat="46.30911" lon="-0.34027">
        <ele>68.4157</ele>
        <time>2011-07-23T13:46:29Z</time>
      </trkpt>
      <trkpt lat="46.3091" lon="-0.34027">
        <ele>68.4739</ele>
        <time>2011-07-23T13:46:30Z</time>
      </trkpt>
      <trkpt lat="46.30908" lon="-0.34027">
        <ele>68.5344</ele>
        <time>2011-07-23T13:46:31Z</time>
      </trkpt>
      <trkpt lat="46.30907" lon="-0.34027">
        <ele>68.595</ele>
        <time>2011-07-23T13:46:32Z</time>
      </trkpt>
      <trkpt lat="46.30906" lon="-0.34028">
        <ele>68.651</ele>
        <time>2011-07-23T13:46:33Z</time>
      </trkpt>
      <trkpt lat="46.30904" lon="-0.34028">
        <ele>68.7015</ele>
        <time>2011-07-23T13:46:34Z</time>
      </trkpt>
      <trkpt lat="46.30903" lon="-0.34028">
        <ele>68.7512</ele>
        <time>2011-07-23T13:46:35Z</time>
      </trkpt>
      <trkpt lat="46.30902" lon="-0.34028">
        <ele>68.8038</ele>
        <time>2011-07-23T13:46:36Z</time>
      </trkpt>
      <trkpt lat="46.30901" lon="-0.34028">
        <ele>68.8618</ele>
        <time>2011-07-23T13:46:37Z</time>
      </trkpt>
      <trkpt lat="46.30899" lon="-0.34029">
        <ele>68.9229</ele>
        <time>2011-07-23T13:46:38Z</time>
      </trkpt>
      <trkpt lat="46.30897" lon="-0.34029">
        <ele>68.985</ele>
        <time>2011-07-23T13:46:39Z</time>
      </trkpt>
      <trkpt lat="46.30896" lon="-0.34029">
        <ele>69.0451</ele>
        <time>2011-07-23T13:46:40Z</time>
      </trkpt>
      <trkpt lat="46.30894" lon="-0.3403">
        <ele>69.1044</ele>
        <time>2011-07-23T13:46:41Z</time>
      </trkpt>
      <trkpt lat="46.30893" lon="-0.3403">
        <ele>69.1634</ele>
        <time>2011-07-23T13:46:42Z</time>
      </trkpt>
      <trkpt lat="46.30891" lon="-0.3403">
        <ele>69.2158</ele>
        <time>2011-07-23T13:46:43Z</time>
      </trkpt>
      <trkpt lat="46.3089" lon="-0.3403">
        <ele>69.2661</ele>
        <time>2011-07-23T13:46:44Z</time>
      </trkpt>
      <trkpt lat="46.30888" lon="-0.34031">
        <ele>69.3112</ele>
        <time>2011-07-23T13:46:45Z</time>
      </trkpt>
      <trkpt lat="46.30887" lon="-0.34031">
        <ele>69.3562</ele>
        <time>2011-07-23T13:46:46Z</time>
      </trkpt>
      <trkpt lat="46.30886" lon="-0.34031">
        <ele>69.4013</ele>
        <time>2011-07-23T13:46:47Z</time>
      </trkpt>
      <trkpt lat="46.30885" lon="-0.34032">
        <ele>69.4457</ele>
        <time>2011-07-23T13:46:48Z</time>
      </trkpt>
      <trkpt lat="46.30884" lon="-0.34033">
        <ele>69.4862</ele>
        <time>2011-07-23T13:46:49Z</time>
      </trkpt>
      <trkpt lat="46.30883" lon="-0.34034">
        <ele>69.5252</ele>
        <time>2011-07-23T13:46:50Z</time>
      </trkpt>
      <trkpt lat="46.30882" lon="-0.34035">
        <ele>69.5625</ele>
        <time>2011-07-23T13:46:51Z</time>
      </trkpt>
      <trkpt lat="46.30881" lon="-0.34036">
        <ele>69.6001</ele>
        <time>2011-07-23T13:46:52Z</time>
      </trkpt>
      <trkpt lat="46.3088" lon="-0.34036">
        <ele>69.6411</ele>
        <time>2011-07-23T13:46:53Z</time>
      </trkpt>
      <trkpt lat="46.30879" lon="-0.34037">
        <ele>69.6817</ele>
        <time>2011-07-23T13:46:54Z</time>
      </trkpt>
      <trkpt lat="46.30878" lon="-0.34038">
        <ele>69.7235</ele>
        <time>2011-07-23T13:46:55Z</time>
      </trkpt>
      <trkpt lat="46.30878" lon="-0.34039">
        <ele>69.7638</ele>
        <time>2011-07-23T13:46:56Z</time>
      </trkpt>
      <trkpt lat="46.30877" lon="-0.3404">
        <ele>69.8018</ele>
        <time>2011-07-23T13:46:57Z</time>
      </trkpt>
      <trkpt lat="46.30877" lon="-0.34041">
        <ele>69.8371</ele>
        <time>2011-07-23T13:46:58Z</time>
      </trkpt>
      <trkpt lat="46.30876" lon="-0.34042">
        <ele>69.8736</ele>
        <time>2011-07-23T13:46:59Z</time>
      </trkpt>
      <trkpt lat="46.30875" lon="-0.34042">
        <ele>69.91</ele>
        <time>2011-07-23T13:47:00Z</time>
      </trkpt>
      <trkpt lat="46.30874" lon="-0.34043">
        <ele>69.9426</ele>
        <time>2011-07-23T13:47:01Z</time>
      </trkpt>
      <trkpt lat="46.30872" lon="-0.34044">
        <ele>69.9836</ele>
        <time>2011-07-23T13:47:02Z</time>
      </trkpt>
      <trkpt lat="46.30871" lon="-0.34046">
        <ele>70.0292</ele>
        <time>2011-07-23T13:47:03Z</time>
      </trkpt>
      <trkpt lat="46.3087" lon="-0.34048">
        <ele>70.0931</ele>
        <time>2011-07-23T13:47:04Z</time>
      </trkpt>
      <trkpt lat="46.30869" lon="-0.34049">
        <ele>70.1621</ele>
        <time>2011-07-23T13:47:05Z</time>
      </trkpt>
      <trkpt lat="46.30867" lon="-0.34051">
        <ele>70.231</ele>
        <time>2011-07-23T13:47:06Z</time>
      </trkpt>
      <trkpt lat="46.30866" lon="-0.34051">
        <ele>70.2997</ele>
        <time>2011-07-23T13:47:07Z</time>
      </trkpt>
      <trkpt lat="46.30864" lon="-0.34052">
        <ele>70.3643</ele>
        <time>2011-07-23T13:47:08Z</time>
      </trkpt>
      <trkpt lat="46.30862" lon="-0.34053">
        <ele>70.4298</ele>
        <time>2011-07-23T13:47:09Z</time>
      </trkpt>
      <trkpt lat="46.30861" lon="-0.34054">
        <ele>70.4913</ele>
        <time>2011-07-23T13:47:10Z</time>
      </trkpt>
      <trkpt lat="46.30859" lon="-0.34055">
        <ele>70.5499</ele>
        <time>2011-07-23T13:47:11Z</time>
      </trkpt>
      <trkpt lat="46.30858" lon="-0.34056">
        <ele>70.6059</ele>
        <time>2011-07-23T13:47:12Z</time>
      </trkpt>
      <trkpt lat="46.30857" lon="-0.34057">
        <ele>70.6605</ele>
        <time>2011-07-23T13:47:13Z</time>
      </trkpt>
      <trkpt lat="46.30855" lon="-0.34058">
        <ele>70.7123</ele>
        <time>2011-07-23T13:47:14Z</time>
      </trkpt>
      <trkpt lat="46.30854" lon="-0.3406">
        <ele>70.7618</ele>
        <time>2011-07-23T13:47:15Z</time>
      </trkpt>
      <trkpt lat="46.30853" lon="-0.34062">
        <ele>70.8088</ele>
        <time>2011-07-23T13:47:16Z</time>
      </trkpt>
      <trkpt lat="46.30853" lon="-0.34064">
        <ele>70.8539</ele>
        <time>2011-07-23T13:47:17Z</time>
      </trkpt>
      <trkpt lat="46.30852" lon="-0.34065">
        <ele>70.9007</ele>
        <time>2011-07-23T13:47:18Z</time>
      </trkpt>
      <trkpt lat="46.30851" lon="-0.34067">
        <ele>70.9469</ele>
        <time>2011-07-23T13:47:19Z</time>
      </trkpt>
      <trkpt lat="46.30851" lon="-0.34068">
        <ele>70.9913</ele>
        <time>2011-07-23T13:47:20Z</time>
      </trkpt>
      <trkpt lat="46.3085" lon="-0.34069">
        <ele>71.036</ele>
        <time>2011-07-23T13:47:21Z</time>
      </trkpt>
      <trkpt lat="46.30849" lon="-0.3407">
        <ele>71.084</ele>
        <time>2011-07-23T13:47:22Z</time>
      </trkpt>
      <trkpt lat="46.30848" lon="-0.3407">
        <ele>71.1361</ele>
        <time>2011-07-23T13:47:23Z</time>
      </trkpt>
      <trkpt lat="46.30846" lon="-0.3407">
        <ele>71.1896</ele>
        <time>2011-07-23T13:47:24Z</time>
      </trkpt>
      <trkpt lat="46.30845" lon="-0.34071">
        <ele>71.2471</ele>
        <time>2011-07-23T13:47:25Z</time>
      </trkpt>
      <trkpt lat="46.30844" lon="-0.34071">
        <ele>71.3066</ele>
        <time>2011-07-23T13:47:26Z</time>
      </trkpt>
      <trkpt lat="46.30843" lon="-0.34072">
        <ele>71.3692</ele>
        <time>2011-07-23T13:47:27Z</time>
      </trkpt>
      <trkpt lat="46.30842" lon="-0.34073">
        <ele>71.431</ele>
        <time>2011-07-23T13:47:28Z</time>
      </trkpt>
      <trkpt lat="46.3084" lon="-0.34073">
        <ele>71.4922</ele>
        <time>2011-07-23T13:47:29Z</time>
      </trkpt>
      <trkpt lat="46.30839" lon="-0.34074">
        <ele>71.5503</ele>
        <time>2011-07-23T13:47:30Z</time>
      </trkpt>
      <trkpt lat="46.30837" lon="-0.34075">
        <ele>71.6067</ele>
        <time>2011-07-23T13:47:31Z</time>
      </trkpt>
      <trkpt lat="46.30836" lon="-0.34076">
        <ele>71.662</ele>
        <time>2011-07-23T13:47:32Z</time>
      </trkpt>
      <trkpt lat="46.30834" lon="-0.34076">
        <ele>71.7157</ele>
        <time>2011-07-23T13:47:33Z</time>
      </trkpt>
      <trkpt lat="46.30833" lon="-0.34077">
        <ele>71.7684</ele>
        <time>2011-07-23T13:47:34Z</time>
      </trkpt>
      <trkpt lat="46.30832" lon="-0.34077">
        <ele>71.8216</ele>
        <time>2011-07-23T13:47:35Z</time>
      </trkpt>
      <trkpt lat="46.3083" lon="-0.34077">
        <ele>71.8737</ele>
        <time>2011-07-23T13:47:36Z</time>
      </trkpt>
      <trkpt lat="46.30829" lon="-0.34078">
        <ele>71.9231</ele>
        <time>2011-07-23T13:47:37Z</time>
      </trkpt>
      <trkpt lat="46.30827" lon="-0.34078">
        <ele>71.9722</ele>
        <time>2011-07-23T13:47:38Z</time>
      </trkpt>
      <trkpt lat="46.30826" lon="-0.34078">
        <ele>72.0205</ele>
        <time>2011-07-23T13:47:39Z</time>
      </trkpt>
      <trkpt lat="46.30825" lon="-0.34079">
        <ele>72.0685</ele>
        <time>2011-07-23T13:47:40Z</time>
      </trkpt>
      <trkpt lat="46.30824" lon="-0.3408">
        <ele>72.1168</ele>
        <time>2011-07-23T13:47:41Z</time>
      </trkpt>
      <trkpt lat="46.30822" lon="-0.3408">
        <ele>72.1655</ele>
        <time>2011-07-23T13:47:42Z</time>
      </trkpt>
      <trkpt lat="46.30821" lon="-0.34081">
        <ele>72.2132</ele>
        <time>2011-07-23T13:47:43Z</time>
      </trkpt>
      <trkpt lat="46.3082" lon="-0.34081">
        <ele>72.2619</ele>
        <time>2011-07-23T13:47:44Z</time>
      </trkpt>
      <trkpt lat="46.30819" lon="-0.34081">
        <ele>72.3138</ele>
        <time>2011-07-23T13:47:45Z</time>
      </trkpt>
      <trkpt lat="46.30817" lon="-0.34082">
        <ele>72.3692</ele>
        <time>2011-07-23T13:47:46Z</time>
      </trkpt>
      <trkpt lat="46.30816" lon="-0.34082">
        <ele>72.4262</ele>
        <time>2011-07-23T13:47:47Z</time>
      </trkpt>
      <trkpt lat="46.30815" lon="-0.34083">
        <ele>72.4873</ele>
        <time>2011-07-23T13:47:48Z</time>
      </trkpt>
      <trkpt lat="46.30814" lon="-0.34084">
        <ele>72.5505</ele>
        <time>2011-07-23T13:47:49Z</time>
      </trkpt>
      <trkpt lat="46.30812" lon="-0.34084">
        <ele>72.613</ele>
        <time>2011-07-23T13:47:50Z</time>
      </trkpt>
      <trkpt lat="46.30811" lon="-0.34085">
        <ele>72.6733</ele>
        <time>2011-07-23T13:47:51Z</time>
      </trkpt>
      <trkpt lat="46.3081" lon="-0.34086">
        <ele>72.7341</ele>
        <time>2011-07-23T13:47:52Z</time>
      </trkpt>
      <trkpt lat="46.30809" lon="-0.34087">
        <ele>72.7948</ele>
        <time>2011-07-23T13:47:53Z</time>
      </trkpt>
      <trkpt lat="46.30808" lon="-0.34088">
        <ele>72.8555</ele>
        <time>2011-07-23T13:47:54Z</time>
      </trkpt>
      <trkpt lat="46.30807" lon="-0.34089">
        <ele>72.9176</ele>
        <time>2011-07-23T13:47:55Z</time>
      </trkpt>
      <trkpt lat="46.30806" lon="-0.3409">
        <ele>72.9805</ele>
        <time>2011-07-23T13:47:56Z</time>
      </trkpt>
      <trkpt lat="46.30804" lon="-0.34091">
        <ele>73.0431</ele>
        <time>2011-07-23T13:47:57Z</time>
      </trkpt>
      <trkpt lat="46.30804" lon="-0.34092">
        <ele>73.1014</ele>
        <time>2011-07-23T13:47:58Z</time>
      </trkpt>
      <trkpt lat="46.30803" lon="-0.34092">
        <ele>73.1583</ele>
        <time>2011-07-23T13:47:59Z</time>
      </trkpt>
      <trkpt lat="46.30802" lon="-0.34093">
        <ele>73.2153</ele>
        <time>2011-07-23T13:48:00Z</time>
      </trkpt>
      <trkpt lat="46.30801" lon="-0.34094">
        <ele>73.2713</ele>
        <time>2011-07-23T13:48:01Z</time>
      </trkpt>
      <trkpt lat="46.308" lon="-0.34095">
        <ele>73.3258</ele>
        <time>2011-07-23T13:48:02Z</time>
      </trkpt>
      <trkpt lat="46.30799" lon="-0.34095">
        <ele>73.3791</ele>
        <time>2011-07-23T13:48:03Z</time>
      </trkpt>
      <trkpt lat="46.30798" lon="-0.34096">
        <ele>73.4303</ele>
        <time>2011-07-23T13:48:04Z</time>
      </trkpt>
      <trkpt lat="46.30797" lon="-0.34097">
        <ele>73.4815</ele>
        <time>2011-07-23T13:48:05Z</time>
      </trkpt>
      <trkpt lat="46.30796" lon="-0.34098">
        <ele>73.5317</ele>
        <time>2011-07-23T13:48:06Z</time>
      </trkpt>
      <trkpt lat="46.30795" lon="-0.34098">
        <ele>73.5812</ele>
        <time>2011-07-23T13:48:07Z</time>
      </trkpt>
      <trkpt lat="46.30793" lon="-0.34099">
        <ele>73.6299</ele>
        <time>2011-07-23T13:48:08Z</time>
      </trkpt>
      <trkpt lat="46.30792" lon="-0.341">
        <ele>73.6783</ele>
        <time>2011-07-23T13:48:09Z</time>
      </trkpt>
      <trkpt lat="46.3079" lon="-0.341">
        <ele>73.727</ele>
        <time>2011-07-23T13:48:10Z</time>
      </trkpt>
      <trkpt lat="46.30789" lon="-0.34101">
        <ele>73.7757</ele>
        <time>2011-07-23T13:48:11Z</time>
      </trkpt>
      <trkpt lat="46.30788" lon="-0.34102">
        <ele>73.825</ele>
        <time>2011-07-23T13:48:12Z</time>
      </trkpt>
      <trkpt lat="46.30787" lon="-0.34103">
        <ele>73.8748</ele>
        <time>2011-07-23T13:48:13Z</time>
      </trkpt>
      <trkpt lat="46.30785" lon="-0.34104">
        <ele>73.9236</ele>
        <time>2011-07-23T13:48:14Z</time>
      </trkpt>
      <trkpt lat="46.30784" lon="-0.34105">
        <ele>73.973</ele>
        <time>2011-07-23T13:48:15Z</time>
      </trkpt>
      <trkpt lat="46.30782" lon="-0.34105">
        <ele>74.0238</ele>
        <time>2011-07-23T13:48:16Z</time>
      </trkpt>
      <trkpt lat="46.30781" lon="-0.34106">
        <ele>74.0767</ele>
        <time>2011-07-23T13:48:17Z</time>
      </trkpt>
      <trkpt lat="46.3078" lon="-0.34107">
        <ele>74.1301</ele>
        <time>2011-07-23T13:48:18Z</time>
      </trkpt>
      <trkpt lat="46.30779" lon="-0.34108">
        <ele>74.1819</ele>
        <time>2011-07-23T13:48:19Z</time>
      </trkpt>
      <trkpt lat="46.30778" lon="-0.34108">
        <ele>74.2323</ele>
        <time>2011-07-23T13:48:20Z</time>
      </trkpt>
      <trkpt lat="46.30777" lon="-0.34109">
        <ele>74.2799</ele>
        <time>2011-07-23T13:48:21Z</time>
      </trkpt>
      <trkpt lat="46.30776" lon="-0.34109">
        <ele>74.324</ele>
        <time>2011-07-23T13:48:22Z</time>
      </trkpt>
      <trkpt lat="46.30774" lon="-0.3411">
        <ele>74.3654</ele>
        <time>2011-07-23T13:48:23Z</time>
      </trkpt>
      <trkpt lat="46.30774" lon="-0.3411">
        <ele>74.4053</ele>
        <time>2011-07-23T13:48:24Z</time>
      </trkpt>
      <trkpt lat="46.30772" lon="-0.34111">
        <ele>74.4407</ele>
        <time>2011-07-23T13:48:25Z</time>
      </trkpt>
      <trkpt lat="46.30771" lon="-0.34112">
        <ele>74.4733</ele>
        <time>2011-07-23T13:48:26Z</time>
      </trkpt>
      <trkpt lat="46.3077" lon="-0.34112">
        <ele>74.5035</ele>
        <time>2011-07-23T13:48:27Z</time>
      </trkpt>
      <trkpt lat="46.30769" lon="-0.34113">
        <ele>74.5331</ele>
        <time>2011-07-23T13:48:28Z</time>
      </trkpt>
      <trkpt lat="46.30767" lon="-0.34113">
        <ele>74.5638</ele>
        <time>2011-07-23T13:48:29Z</time>
      </trkpt>
      <trkpt lat="46.30766" lon="-0.34115">
        <ele>74.5953</ele>
        <time>2011-07-23T13:48:30Z</time>
      </trkpt>
      <trkpt lat="46.30765" lon="-0.34115">
        <ele>74.6286</ele>
        <time>2011-07-23T13:48:31Z</time>
      </trkpt>
      <trkpt lat="46.30764" lon="-0.34116">
        <ele>74.6618</ele>
        <time>2011-07-23T13:48:32Z</time>
      </trkpt>
      <trkpt lat="46.30763" lon="-0.34116">
        <ele>74.6997</ele>
        <time>2011-07-23T13:48:33Z</time>
      </trkpt>
      <trkpt lat="46.30761" lon="-0.34117">
        <ele>74.7386</ele>
        <time>2011-07-23T13:48:34Z</time>
      </trkpt>
      <trkpt lat="46.30761" lon="-0.34118">
        <ele>74.7785</ele>
        <time>2011-07-23T13:48:35Z</time>
      </trkpt>
      <trkpt lat="46.30759" lon="-0.34118">
        <ele>74.8178</ele>
        <time>2011-07-23T13:48:36Z</time>
      </trkpt>
      <trkpt lat="46.30759" lon="-0.34119">
        <ele>74.857</ele>
        <time>2011-07-23T13:48:37Z</time>
      </trkpt>
      <trkpt lat="46.30758" lon="-0.34119">
        <ele>74.8953</ele>
        <time>2011-07-23T13:48:38Z</time>
      </trkpt>
      <trkpt lat="46.30756" lon="-0.3412">
        <ele>74.9339</ele>
        <time>2011-07-23T13:48:39Z</time>
      </trkpt>
      <trkpt lat="46.30755" lon="-0.3412">
        <ele>74.9727</ele>
        <time>2011-07-23T13:48:40Z</time>
      </trkpt>
      <trkpt lat="46.30754" lon="-0.34121">
        <ele>75.0117</ele>
        <time>2011-07-23T13:48:41Z</time>
      </trkpt>
      <trkpt lat="46.30753" lon="-0.34122">
        <ele>75.0502</ele>
        <time>2011-07-23T13:48:42Z</time>
      </trkpt>
      <trkpt lat="46.30752" lon="-0.34123">
        <ele>75.088</ele>
        <time>2011-07-23T13:48:43Z</time>
      </trkpt>
      <trkpt lat="46.30751" lon="-0.34123">
        <ele>75.1248</ele>
        <time>2011-07-23T13:48:44Z</time>
      </trkpt>
      <trkpt lat="46.3075" lon="-0.34124">
        <ele>75.1609</ele>
        <time>2011-07-23T13:48:45Z</time>
      </trkpt>
      <trkpt lat="46.30749" lon="-0.34124">
        <ele>75.1981</ele>
        <time>2011-07-23T13:48:46Z</time>
      </trkpt>
      <trkpt lat="46.30748" lon="-0.34125">
        <ele>75.2347</ele>
        <time>2011-07-23T13:48:47Z</time>
      </trkpt>
      <trkpt lat="46.30747" lon="-0.34125">
        <ele>75.2699</ele>
        <time>2011-07-23T13:48:48Z</time>
      </trkpt>
      <trkpt lat="46.30745" lon="-0.34126">
        <ele>75.3029</ele>
        <time>2011-07-23T13:48:49Z</time>
      </trkpt>
      <trkpt lat="46.30744" lon="-0.34127">
        <ele>75.3352</ele>
        <time>2011-07-23T13:48:50Z</time>
      </trkpt>
      <trkpt lat="46.30743" lon="-0.34127">
        <ele>75.3664</ele>
        <time>2011-07-23T13:48:51Z</time>
      </trkpt>
      <trkpt lat="46.30742" lon="-0.34128">
        <ele>75.4011</ele>
        <time>2011-07-23T13:48:52Z</time>
      </trkpt>
      <trkpt lat="46.3074" lon="-0.34129">
        <ele>75.4415</ele>
        <time>2011-07-23T13:48:53Z</time>
      </trkpt>
      <trkpt lat="46.30739" lon="-0.34129">
        <ele>75.488</ele>
        <time>2011-07-23T13:48:54Z</time>
      </trkpt>
      <trkpt lat="46.30737" lon="-0.3413">
        <ele>75.5333</ele>
        <time>2011-07-23T13:48:55Z</time>
      </trkpt>
      <trkpt lat="46.30736" lon="-0.3413">
        <ele>75.5788</ele>
        <time>2011-07-23T13:48:56Z</time>
      </trkpt>
      <trkpt lat="46.30734" lon="-0.3413">
        <ele>75.6235</ele>
        <time>2011-07-23T13:48:57Z</time>
      </trkpt>
      <trkpt lat="46.30733" lon="-0.34131">
        <ele>75.6718</ele>
        <time>2011-07-23T13:48:58Z</time>
      </trkpt>
      <trkpt lat="46.30732" lon="-0.34131">
        <ele>75.72</ele>
        <time>2011-07-23T13:48:59Z</time>
      </trkpt>
      <trkpt lat="46.30731" lon="-0.34132">
        <ele>75.7683</ele>
        <time>2011-07-23T13:49:00Z</time>
      </trkpt>
      <trkpt lat="46.3073" lon="-0.34133">
        <ele>75.8202</ele>
        <time>2011-07-23T13:49:01Z</time>
      </trkpt>
      <trkpt lat="46.30729" lon="-0.34134">
        <ele>75.8751</ele>
        <time>2011-07-23T13:49:02Z</time>
      </trkpt>
      <trkpt lat="46.30728" lon="-0.34136">
        <ele>75.9317</ele>
        <time>2011-07-23T13:49:03Z</time>
      </trkpt>
      <trkpt lat="46.30727" lon="-0.34138">
        <ele>75.987</ele>
        <time>2011-07-23T13:49:04Z</time>
      </trkpt>
      <trkpt lat="46.30727" lon="-0.34138">
        <ele>76.0458</ele>
        <time>2011-07-23T13:49:05Z</time>
      </trkpt>
      <trkpt lat="46.30727" lon="-0.34137">
        <ele>76.1098</ele>
        <time>2011-07-23T13:49:06Z</time>
      </trkpt>
      <trkpt lat="46.30727" lon="-0.34136">
        <ele>76.18</ele>
        <time>2011-07-23T13:49:07Z</time>
      </trkpt>
      <trkpt lat="46.30727" lon="-0.34135">
        <ele>76.2588</ele>
        <time>2011-07-23T13:49:08Z</time>
      </trkpt>
      <trkpt lat="46.30727" lon="-0.34134">
        <ele>76.3424</ele>
        <time>2011-07-23T13:49:09Z</time>
      </trkpt>
      <trkpt lat="46.30728" lon="-0.34134">
        <ele>76.482</ele>
        <time>2011-07-23T13:49:14Z</time>
      </trkpt>
      <trkpt lat="46.30727" lon="-0.34134">
        <ele>76.5891</ele>
        <time>2011-07-23T13:49:15Z</time>
      </trkpt>
      <trkpt lat="46.30727" lon="-0.34135">
        <ele>76.7013</ele>
        <time>2011-07-23T13:49:16Z</time>
      </trkpt>
      <trkpt lat="46.30726" lon="-0.34134">
        <ele>76.8197</ele>
        <time>2011-07-23T13:49:17Z</time>
      </trkpt>
      <trkpt lat="46.30725" lon="-0.34134">
        <ele>76.935</ele>
        <time>2011-07-23T13:49:18Z</time>
      </trkpt>
      <trkpt lat="46.30724" lon="-0.34134">
        <ele>77.0462</ele>
        <time>2011-07-23T13:49:19Z</time>
      </trkpt>
      <trkpt lat="46.30724" lon="-0.34135">
        <ele>77.3318</ele>
        <time>2011-07-23T13:49:23Z</time>
      </trkpt>
      <trkpt lat="46.30723" lon="-0.34136">
        <ele>77.3318</ele>
        <time>2011-07-23T13:49:24Z</time>
      </trkpt>
      <trkpt lat="46.30723" lon="-0.34136">
        <ele>77.3951</ele>
        <time>2011-07-23T13:49:25Z</time>
      </trkpt>
      <trkpt lat="46.30721" lon="-0.34142">
        <ele>77.4844</ele>
        <time>2011-07-23T13:49:34Z</time>
      </trkpt>
      <trkpt lat="46.30721" lon="-0.34142">
        <ele>77.6051</ele>
        <time>2011-07-23T13:49:39Z</time>
      </trkpt>
      <trkpt lat="46.30725" lon="-0.34139">
        <ele>77.6385</ele>
        <time>2011-07-23T13:49:45Z</time>
      </trkpt>
      <trkpt lat="46.30721" lon="-0.34136">
        <ele>78.2268</ele>
        <time>2011-07-23T13:50:44Z</time>
      </trkpt>
      <trkpt lat="46.30724" lon="-0.3414">
        <ele>78.1704</ele>
        <time>2011-07-23T13:51:06Z</time>
      </trkpt>
      <trkpt lat="46.30725" lon="-0.34137">
        <ele>78.1932</ele>
        <time>2011-07-23T13:51:20Z</time>
      </trkpt>
      <trkpt lat="46.30725" lon="-0.34137">
        <ele>78.2235</ele>
        <time>2011-07-23T13:51:21Z</time>
      </trkpt>
      <trkpt lat="46.30726" lon="-0.34136">
        <ele>78.2951</ele>
        <time>2011-07-23T13:51:25Z</time>
      </trkpt>
      <trkpt lat="46.30726" lon="-0.34136">
        <ele>78.3139</ele>
        <time>2011-07-23T13:51:26Z</time>
      </trkpt>
      <trkpt lat="46.30723" lon="-0.34137">
        <ele>78.5057</ele>
        <time>2011-07-23T13:51:32Z</time>
      </trkpt>
      <trkpt lat="46.30722" lon="-0.34138">
        <ele>78.599</ele>
        <time>2011-07-23T13:51:33Z</time>
      </trkpt>
      <trkpt lat="46.30721" lon="-0.34139">
        <ele>78.6986</ele>
        <time>2011-07-23T13:51:34Z</time>
      </trkpt>
      <trkpt lat="46.30719" lon="-0.34139">
        <ele>78.8397</ele>
        <time>2011-07-23T13:51:35Z</time>
      </trkpt>
      <trkpt lat="46.3072" lon="-0.34132">
        <ele>80.2735</ele>
        <time>2011-07-23T13:52:06Z</time>
      </trkpt>
      <trkpt lat="46.30724" lon="-0.34134">
        <ele>82.3822</ele>
        <time>2011-07-23T13:53:20Z</time>
      </trkpt>
      <trkpt lat="46.3072" lon="-0.34134">
        <ele>82.069</ele>
        <time>2011-07-23T13:53:50Z</time>
      </trkpt>
      <trkpt lat="46.30719" lon="-0.34128">
        <ele>82.5422</ele>
        <time>2011-07-23T13:54:17Z</time>
      </trkpt>
      <trkpt lat="46.3072" lon="-0.34128">
        <ele>82.9581</ele>
        <time>2011-07-23T13:54:23Z</time>
      </trkpt>
      <trkpt lat="46.30723" lon="-0.3413">
        <ele>84.5322</ele>
        <time>2011-07-23T13:54:38Z</time>
      </trkpt>
      <trkpt lat="46.30723" lon="-0.34129">
        <ele>84.7682</ele>
        <time>2011-07-23T13:54:39Z</time>
      </trkpt>
      <trkpt lat="46.30718" lon="-0.3413">
        <ele>87.04</ele>
        <time>2011-07-23T13:55:15Z</time>
      </trkpt>
      <trkpt lat="46.30713" lon="-0.34132">
        <ele>87.2805</ele>
        <time>2011-07-23T13:55:30Z</time>
      </trkpt>
      <trkpt lat="46.30717" lon="-0.34128">
        <ele>88.3577</ele>
        <time>2011-07-23T13:55:54Z</time>
      </trkpt>
      <trkpt lat="46.30717" lon="-0.34127">
        <ele>88.4756</ele>
        <time>2011-07-23T13:55:55Z</time>
      </trkpt>
      <trkpt lat="46.30717" lon="-0.34127">
        <ele>88.5858</ele>
        <time>2011-07-23T13:55:56Z</time>
      </trkpt>
      <trkpt lat="46.30719" lon="-0.34134">
        <ele>88.5399</ele>
        <time>2011-07-23T13:56:30Z</time>
      </trkpt>
      <trkpt lat="46.30724" lon="-0.34137">
        <ele>88.4874</ele>
        <time>2011-07-23T13:56:44Z</time>
      </trkpt>
      <trkpt lat="46.30724" lon="-0.34131">
        <ele>87.006</ele>
        <time>2011-07-23T13:57:43Z</time>
      </trkpt>
      <trkpt lat="46.30724" lon="-0.34132">
        <ele>86.8777</ele>
        <time>2011-07-23T13:57:44Z</time>
      </trkpt>
      <trkpt lat="46.30723" lon="-0.34134">
        <ele>86.5114</ele>
        <time>2011-07-23T13:57:49Z</time>
      </trkpt>
      <trkpt lat="46.30724" lon="-0.34135">
        <ele>85.806</ele>
        <time>2011-07-23T13:58:14Z</time>
      </trkpt>
      <trkpt lat="46.30723" lon="-0.34133">
        <ele>85.8077</ele>
        <time>2011-07-23T13:58:31Z</time>
      </trkpt>
      <trkpt lat="46.30724" lon="-0.34134">
        <ele>85.8043</ele>
        <time>2011-07-23T13:58:32Z</time>
      </trkpt>
      <trkpt lat="46.30725" lon="-0.34135">
        <ele>85.7951</ele>
        <time>2011-07-23T13:58:33Z</time>
      </trkpt>
      <trkpt lat="46.30726" lon="-0.34135">
        <ele>85.7859</ele>
        <time>2011-07-23T13:58:34Z</time>
      </trkpt>
      <trkpt lat="46.30728" lon="-0.34132">
        <ele>86.0734</ele>
        <time>2011-07-23T13:58:54Z</time>
      </trkpt>
      <trkpt lat="46.30728" lon="-0.34131">
        <ele>86.0917</ele>
        <time>2011-07-23T13:58:55Z</time>
      </trkpt>
      <trkpt lat="46.30727" lon="-0.34131">
        <ele>86.108</ele>
        <time>2011-07-23T13:58:56Z</time>
      </trkpt>
      <trkpt lat="46.30726" lon="-0.34131">
        <ele>86.1212</ele>
        <time>2011-07-23T13:58:57Z</time>
      </trkpt>
      <trkpt lat="46.30726" lon="-0.34132">
        <ele>86.135</ele>
        <time>2011-07-23T13:58:58Z</time>
      </trkpt>
      <trkpt lat="46.30723" lon="-0.34131">
        <ele>85.64</ele>
        <time>2011-07-23T14:00:07Z</time>
      </trkpt>
      <trkpt lat="46.30724" lon="-0.34132">
        <ele>85.489</ele>
        <time>2011-07-23T14:00:08Z</time>
      </trkpt>
      <trkpt lat="46.30723" lon="-0.34132">
        <ele>85.1571</ele>
        <time>2011-07-23T14:00:11Z</time>
      </trkpt>
      <trkpt lat="46.30724" lon="-0.34132">
        <ele>85.0006</ele>
        <time>2011-07-23T14:00:12Z</time>
      </trkpt>
      <trkpt lat="46.30723" lon="-0.34132">
        <ele>84.8598</ele>
        <time>2011-07-23T14:00:13Z</time>
      </trkpt>
      <trkpt lat="46.30723" lon="-0.34132">
        <ele>84.7271</ele>
        <time>2011-07-23T14:00:14Z</time>
      </trkpt>
      <trkpt lat="46.30723" lon="-0.34132">
        <ele>84.6036</ele>
        <time>2011-07-23T14:00:15Z</time>
      </trkpt>
      <trkpt lat="46.30723" lon="-0.34131">
        <ele>84.4805</ele>
        <time>2011-07-23T14:00:16Z</time>
      </trkpt>
      <trkpt lat="46.30725" lon="-0.34138">
        <ele>83.8111</ele>
        <time>2011-07-23T14:01:09Z</time>
      </trkpt>
      <trkpt lat="46.30728" lon="-0.34133">
        <ele>83.2958</ele>
        <time>2011-07-23T14:02:08Z</time>
      </trkpt>
      <trkpt lat="46.30723" lon="-0.34133">
        <ele>83.1989</ele>
        <time>2011-07-23T14:02:55Z</time>
      </trkpt>
      <trkpt lat="46.30727" lon="-0.3413">
        <ele>83.1429</ele>
        <time>2011-07-23T14:03:14Z</time>
      </trkpt>
      <trkpt lat="46.30729" lon="-0.34136">
        <ele>83.0382</ele>
        <time>2011-07-23T14:03:29Z</time>
      </trkpt>
      <trkpt lat="46.30726" lon="-0.3413">
        <ele>82.9001</ele>
        <time>2011-07-23T14:03:41Z</time>
      </trkpt>
      <trkpt lat="46.30722" lon="-0.34127">
        <ele>82.8476</ele>
        <time>2011-07-23T14:04:20Z</time>
      </trkpt>
      <trkpt lat="46.30725" lon="-0.34131">
        <ele>83.0454</ele>
        <time>2011-07-23T14:05:32Z</time>
      </trkpt>
      <trkpt lat="46.30727" lon="-0.34138">
        <ele>82.866</ele>
        <time>2011-07-23T14:05:50Z</time>
      </trkpt>
      <trkpt lat="46.30723" lon="-0.34133">
        <ele>82.657</ele>
        <time>2011-07-23T14:06:17Z</time>
      </trkpt>
      <trkpt lat="46.30722" lon="-0.34134">
        <ele>82.5455</ele>
        <time>2011-07-23T14:06:25Z</time>
      </trkpt>
      <trkpt lat="46.30722" lon="-0.34134">
        <ele>82.4743</ele>
        <time>2011-07-23T14:06:26Z</time>
      </trkpt>
      <trkpt lat="46.30727" lon="-0.34134">
        <ele>82.0123</ele>
        <time>2011-07-23T14:06:37Z</time>
      </trkpt>
      <trkpt lat="46.30727" lon="-0.34135">
        <ele>81.9214</ele>
        <time>2011-07-23T14:06:39Z</time>
      </trkpt>
      <trkpt lat="46.30723" lon="-0.34132">
        <ele>81.8968</ele>
        <time>2011-07-23T14:06:47Z</time>
      </trkpt>
      <trkpt lat="46.30721" lon="-0.34134">
        <ele>81.6071</ele>
        <time>2011-07-23T14:07:20Z</time>
      </trkpt>
      <trkpt lat="46.3072" lon="-0.34135">
        <ele>81.5701</ele>
        <time>2011-07-23T14:07:21Z</time>
      </trkpt>
      <trkpt lat="46.30719" lon="-0.34136">
        <ele>81.5327</ele>
        <time>2011-07-23T14:07:22Z</time>
      </trkpt>
      <trkpt lat="46.30718" lon="-0.34137">
        <ele>81.4933</ele>
        <time>2011-07-23T14:07:23Z</time>
      </trkpt>
      <trkpt lat="46.30718" lon="-0.34138">
        <ele>81.4577</ele>
        <time>2011-07-23T14:07:24Z</time>
      </trkpt>
      <trkpt lat="46.30719" lon="-0.3414">
        <ele>81.4237</ele>
        <time>2011-07-23T14:07:25Z</time>
      </trkpt>
      <trkpt lat="46.30724" lon="-0.34145">
        <ele>81.3753</ele>
        <time>2011-07-23T14:07:28Z</time>
      </trkpt>
      <trkpt lat="46.30726" lon="-0.3415">
        <ele>81.3075</ele>
        <time>2011-07-23T14:07:40Z</time>
      </trkpt>
      <trkpt lat="46.30728" lon="-0.34147">
        <ele>80.173</ele>
        <time>2011-07-23T14:08:30Z</time>
      </trkpt>
      <trkpt lat="46.30727" lon="-0.34149">
        <ele>80.0275</ele>
        <time>2011-07-23T14:08:31Z</time>
      </trkpt>
      <trkpt lat="46.30726" lon="-0.3415">
        <ele>79.8846</ele>
        <time>2011-07-23T14:08:32Z</time>
      </trkpt>
      <trkpt lat="46.30725" lon="-0.34151">
        <ele>79.7502</ele>
        <time>2011-07-23T14:08:33Z</time>
      </trkpt>
      <trkpt lat="46.30724" lon="-0.34151">
        <ele>79.6296</ele>
        <time>2011-07-23T14:08:34Z</time>
      </trkpt>
      <trkpt lat="46.30721" lon="-0.3415">
        <ele>79.518</ele>
        <time>2011-07-23T14:08:35Z</time>
      </trkpt>
      <trkpt lat="46.3072" lon="-0.34151">
        <ele>79.4258</ele>
        <time>2011-07-23T14:08:36Z</time>
      </trkpt>
      <trkpt lat="46.30717" lon="-0.34151">
        <ele>79.3498</ele>
        <time>2011-07-23T14:08:37Z</time>
      </trkpt>
      <trkpt lat="46.30712" lon="-0.3415">
        <ele>79.2618</ele>
        <time>2011-07-23T14:08:38Z</time>
      </trkpt>
      <trkpt lat="46.30708" lon="-0.3415">
        <ele>79.1796</ele>
        <time>2011-07-23T14:08:39Z</time>
      </trkpt>
      <trkpt lat="46.30707" lon="-0.34153">
        <ele>79.1172</ele>
        <time>2011-07-23T14:08:40Z</time>
      </trkpt>
      <trkpt lat="46.30707" lon="-0.34157">
        <ele>79.1067</ele>
        <time>2011-07-23T14:08:41Z</time>
      </trkpt>
      <trkpt lat="46.30708" lon="-0.34161">
        <ele>79.1042</ele>
        <time>2011-07-23T14:08:42Z</time>
      </trkpt>
      <trkpt lat="46.30711" lon="-0.34165">
        <ele>79.1078</ele>
        <time>2011-07-23T14:08:43Z</time>
      </trkpt>
      <trkpt lat="46.30714" lon="-0.34169">
        <ele>79.1062</ele>
        <time>2011-07-23T14:08:44Z</time>
      </trkpt>
      <trkpt lat="46.30717" lon="-0.34173">
        <ele>79.1037</ele>
        <time>2011-07-23T14:08:45Z</time>
      </trkpt>
      <trkpt lat="46.30719" lon="-0.34177">
        <ele>79.1012</ele>
        <time>2011-07-23T14:08:46Z</time>
      </trkpt>
      <trkpt lat="46.3072" lon="-0.34179">
        <ele>79.097</ele>
        <time>2011-07-23T14:08:47Z</time>
      </trkpt>
      <trkpt lat="46.30721" lon="-0.34182">
        <ele>79.0906</ele>
        <time>2011-07-23T14:08:48Z</time>
      </trkpt>
      <trkpt lat="46.30722" lon="-0.34185">
        <ele>79.0795</ele>
        <time>2011-07-23T14:08:49Z</time>
      </trkpt>
      <trkpt lat="46.30722" lon="-0.34187">
        <ele>79.0557</ele>
        <time>2011-07-23T14:08:50Z</time>
      </trkpt>
    </trkseg>
  </trk>
</gpx>